[[{"header":{"parameterUnit":"m.s-1","parameterCategory":1,"la1":31.0,"la2":29.5877,"lo1":-88.7671,"lo2":-86.6584,"dx":0.0162,"dy":0.0185,"nx":115,"ny":88,"refTime":"2022-12-18T06:00:00:Z","depth":0,"parameterNumber":2,"parameterNumberName":"U-component_of_WINDS"},"data":[0.0,0.0,0.0,0.0,0.0,0.0,0.0,0.0,0.0,0.0,0.0,0.0,0.0,0.0,0.0,0.0,0.0,0.0,0.0,0.0,0.0,0.0,0.0,0.0,0.0,0.0,0.0,0.0,0.0,0.0,0.0,0.0,0.0,0.0,0.0,0.0,0.0,0.0,0.0,0.0,0.0,0.0,0.0,0.0,0.0,0.0,0.0,0.0,0.0,0.0,0.0,0.0,0.0,0.0,0.0,0.0,0.0,0.0,0.0,0.0,0.0,0.0,0.0,0.0,0.0,0.0,0.0,0.0,0.0,0.0,0.0,0.0,0.0,0.0,0.0,0.0,0.0,0.0,0.0,0.0,0.0,0.0,0.0,0.0,0.0,0.0,0.0,0.0,0.0,0.0,0.0,0.0,0.0,0.0,0.0,0.0,0.0,0.0,0.0,0.0,0.0,0.0,0.0,0.0,0.0,0.0,0.0,0.0,0.0,0.0,0.0,0.0,0.0,0.0,0.0,0.0,0.0,0.0,0.0,0.0,0.0,0.0,0.0,0.0,0.0,0.0,0.0,0.0,0.0,0.0,0.0,0.0,0.0,0.0,0.0,0.0,0.0,0.0,0.0,0.0,0.0,0.0,0.0,0.0,0.0,0.0,0.0,0.0,0.0,0.0,0.0,0.0,0.0,0.0,0.0,0.0,0.0,0.0,0.0,0.0,0.0,0.0,0.0,0.0,0.0,0.0,0.0,0.0,0.0,0.0,0.0,0.0,0.0,0.0,0.0,0.0,0.0,0.0,0.0,0.0,0.0,0.0,0.0,0.0,0.0,0.0,0.0,0.0,0.0,0.0,0.0,0.0,0.0,0.0,0.0,0.0,0.0,0.0,0.0,0.0,0.0,0.0,0.0,0.0,0.0,0.0,0.0,0.0,0.0,0.0,0.0,0.0,0.0,0.0,0.0,0.0,0.0,0.0,0.0,0.0,0.0,0.0,0.0,0.0,0.0,0.0,0.0,0.0,0.0,0.0,0.0,0.0,0.0,0.0,0.0,0.0,0.0,0.0,0.0,0.0,0.0,0.0,0.0,0.0,0.0,0.0,0.0,0.0,0.0,0.0,0.0,0.0,0.0,0.0,0.0,0.0,0.0,0.0,0.0,0.0,0.0,0.0,0.0,0.0,0.0,0.0,0.0,0.0,0.0,0.0,0.0,0.0,0.0,0.0,0.0,0.0,0.0,0.0,0.0,0.0,0.0,0.0,0.0,0.0,0.0,0.0,0.0,0.0,0.0,0.0,0.0,0.0,0.0,0.0,0.0,0.0,0.0,0.0,0.0,0.0,0.0,0.0,0.0,0.0,0.0,0.0,0.0,0.0,0.0,0.0,0.0,0.0,0.0,0.0,0.0,0.0,0.0,0.0,0.0,0.0,0.0,0.0,0.0,0.0,0.0,0.0,0.0,0.0,0.0,0.0,0.0,0.0,0.0,0.0,0.0,0.0,0.0,0.0,0.0,0.0,0.0,0.0,0.0,0.0,0.0,0.0,0.0,0.0,0.0,0.0,0.0,0.0,0.0,0.0,0.0,0.0,0.0,0.0,0.0,0.0,0.0,0.0,0.0,0.0,0.0,0.0,0.0,0.0,0.0,0.0,0.0,0.0,0.0,0.0,0.0,0.0,0.0,0.0,0.0,0.0,0.0,0.0,0.0,0.0,0.0,0.0,0.0,0.0,0.0,0.0,0.0,0.0,0.0,0.0,0.0,0.0,0.0,0.0,0.0,0.0,0.0,0.0,0.0,0.0,0.0,0.0,0.0,0.0,0.0,0.0,0.0,0.0,0.0,0.0,0.0,0.0,0.0,0.0,0.0,0.0,0.0,0.0,0.0,0.0,0.0,0.0,0.0,0.0,0.0,0.0,0.0,0.0,0.0,0.0,0.0,0.0,0.0,0.0,0.0,0.0,0.0,0.0,0.0,0.0,0.0,0.0,0.0,0.0,0.0,0.0,0.0,0.0,0.0,0.0,0.0,0.0,0.0,0.0,0.0,0.0,0.0,0.0,0.0,0.0,0.0,0.0,0.0,0.0,0.0,0.0,0.0,0.0,0.0,0.0,0.0,0.0,0.0,0.0,0.0,0.0,0.0,0.0,0.0,0.0,0.0,0.0,0.0,0.0,0.0,0.0,0.0,0.0,0.0,0.0,0.0,0.0,0.0,0.0,0.0,0.0,0.0,0.0,0.0,0.0,0.0,0.0,0.0,0.0,0.0,0.0,0.0,0.0,0.0,0.0,0.0,0.0,0.0,0.0,0.0,0.0,0.0,0.0,0.0,0.0,0.0,0.0,0.0,0.0,0.0,0.0,0.0,0.0,0.0,0.0,0.0,0.0,0.0,0.0,0.0,0.0,0.0,0.0,0.0,0.0,0.0,0.0,0.0,0.0,0.0,0.0,0.0,0.0,0.0,0.0,0.0,0.0,0.0,0.0,0.0,0.0,0.0,0.0,0.0,0.0,0.0,0.0,0.0,0.0,0.0,0.0,0.0,0.0,0.0,0.0,0.0,0.0,0.0,0.0,0.0,0.0,0.0,0.0,0.0,0.0,0.0,0.0,0.0,0.0,0.0,0.0,0.0,0.0,0.0,0.0,0.0,0.0,0.0,0.0,0.0,0.0,0.0,0.0,0.0,0.0,0.0,0.0,0.0,0.0,0.0,0.0,0.0,0.0,0.0,0.0,0.0,0.0,0.0,0.0,0.0,0.0,0.0,0.0,0.0,0.0,0.0,0.0,0.0,0.0,0.0,0.0,0.0,0.0,0.0,0.0,0.0,0.0,0.0,0.0,0.0,0.0,0.0,0.0,0.0,0.0,0.0,0.0,0.0,0.0,0.0,0.0,0.0,0.0,0.0,0.0,0.0,0.0,0.0,0.0,0.0,0.0,0.0,0.0,0.0,0.0,0.0,0.0,0.0,0.0,0.0,0.0,0.0,0.0,0.0,0.0,0.0,0.0,0.0,0.0,0.0,0.0,0.0,0.0,0.0,0.0,0.0,0.0,0.0,0.0,0.0,0.0,0.0,0.0,0.0,0.0,0.0,0.0,0.0,0.0,0.0,0.0,0.0,0.0,0.0,0.0,0.0,0.0,0.0,0.0,0.0,0.0,0.0,0.0,0.0,0.0,0.0,0.0,0.0,0.0,0.0,0.0,0.0,0.0,0.0,0.0,0.0,0.0,0.0,0.0,0.0,0.0,0.0,0.0,0.0,0.0,0.0,0.0,0.0,0.0,0.0,0.0,0.0,0.0,0.0,0.0,0.0,0.0,0.0,0.0,0.0,0.0,0.0,0.0,0.0,0.0,0.0,0.0,0.0,0.0,0.0,0.0,0.0,0.0,0.0,0.0,0.0,0.0,0.0,0.0,0.0,0.0,0.0,0.0,0.0,0.0,0.0,0.0,0.0,0.0,0.0,0.0,0.0,0.0,0.0,0.0,0.0,0.0,0.0,0.0,0.0,0.0,0.0,0.0,0.0,0.0,0.0,0.0,0.0,0.0,0.0,0.0,0.0,0.0,0.0,0.0,0.0,0.0,0.0,0.0,0.0,0.0,0.0,0.0,0.0,0.0,0.0,0.0,0.0,0.0,0.0,0.0,0.0,0.0,0.0,0.0,0.0,0.0,0.0,0.0,0.0,0.0,0.0,0.0,0.0,0.0,0.0,0.0,0.0,0.0,0.0,0.0,0.0,0.0,0.0,0.0,0.0,0.0,0.0,0.0,0.0,0.0,0.0,0.0,0.0,0.0,0.0,0.0,0.0,0.0,0.0,0.0,0.0,0.0,0.0,0.0,0.0,0.0,0.0,0.0,0.0,0.0,0.0,0.0,0.0,0.0,0.0,0.0,0.0,0.0,0.0,0.0,0.0,0.0,0.0,0.0,0.0,0.0,0.0,0.0,0.0,0.0,0.0,0.0,0.0,0.0,0.0,0.0,0.0,0.0,0.0,0.0,0.0,0.0,0.0,0.0,0.0,0.0,0.0,0.0,0.0,0.0,0.0,0.0,0.0,0.0,0.0,0.0,0.0,0.0,0.0,0.0,0.0,0.0,0.0,0.0,0.0,0.0,0.0,0.0,0.0,0.0,0.0,0.0,0.0,0.0,0.0,0.0,0.0,0.0,0.0,0.0,0.0,0.0,0.0,0.0,0.0,0.0,0.0,0.0,0.0,0.0,0.0,0.0,0.0,0.0,0.0,0.0,0.0,0.0,0.0,0.0,0.0,0.0,2.536,0.0,0.0,0.0,2.3421,0.0,0.0,0.0,0.0,0.0,0.0,0.0,0.0,0.0,0.0,0.0,0.0,0.0,0.0,0.0,0.0,0.0,0.0,0.0,0.0,0.0,0.0,0.0,0.0,0.0,0.0,0.0,0.0,0.0,0.0,0.0,0.0,0.0,0.0,0.0,0.0,0.0,0.0,0.0,0.0,0.0,0.0,0.0,0.0,0.0,0.0,0.0,0.0,0.0,0.0,0.0,0.0,0.0,0.0,0.0,0.0,0.0,0.0,0.0,0.0,0.0,0.0,0.0,0.0,0.0,0.0,0.0,0.0,0.0,0.0,0.0,0.0,0.0,0.0,0.0,0.0,0.0,0.0,0.0,0.0,0.0,0.0,0.0,0.0,0.0,0.0,0.0,0.0,0.0,0.0,0.0,0.0,0.0,0.0,0.0,0.0,0.0,0.0,0.0,0.0,0.0,0.0,0.0,0.0,0.0,0.0,0.0,0.0,0.0,0.0,2.5979,2.485,2.5912,2.5887,2.4525,0.0,0.0,0.0,0.0,0.0,0.0,0.0,0.0,0.0,0.0,0.0,0.0,0.0,0.0,0.0,0.0,0.0,0.0,0.0,0.0,0.0,0.0,0.0,0.0,0.0,0.0,0.0,0.0,0.0,0.0,0.0,0.0,0.0,0.0,0.0,0.0,0.0,0.0,0.0,0.0,0.0,0.0,0.0,0.0,0.0,0.0,0.0,0.0,0.0,0.0,0.0,0.0,0.0,0.0,0.0,0.0,0.0,0.0,0.0,0.0,0.0,0.0,0.0,0.0,0.0,0.0,0.0,0.0,0.0,0.0,0.0,0.0,0.0,0.0,0.0,0.0,0.0,0.0,0.0,0.0,0.0,0.0,0.0,0.0,0.0,0.0,0.0,0.0,0.0,0.0,0.0,0.0,0.0,0.0,0.0,0.0,0.0,0.0,0.0,0.0,0.0,0.0,0.0,0.0,0.0,0.0,0.0,0.0,0.0,0.0,0.0,0.0,2.6615,2.6834,2.5845,0.0,0.0,0.0,0.0,0.0,0.0,0.0,0.0,0.0,0.0,0.0,0.0,0.0,0.0,0.0,0.0,0.0,0.0,0.0,0.0,0.0,0.0,0.0,0.0,0.0,0.0,0.0,0.0,0.0,0.0,0.0,0.0,0.0,0.0,0.0,0.0,0.0,0.0,0.0,0.0,0.0,0.0,0.0,0.0,0.0,0.0,0.0,0.0,0.0,0.0,0.0,0.0,0.0,0.0,0.0,0.0,0.0,0.0,0.0,0.0,0.0,0.0,0.0,0.0,0.0,0.0,0.0,0.0,0.0,0.0,0.0,0.0,0.0,0.0,0.0,0.0,0.0,0.0,0.0,0.0,0.0,0.0,0.0,0.0,0.0,0.0,0.0,0.0,0.0,0.0,0.0,0.0,0.0,0.0,0.0,0.0,0.0,0.0,0.0,0.0,0.0,0.0,0.0,0.0,0.0,0.0,0.0,0.0,0.0,0.0,2.618,2.706,2.7211,0.0,2.6422,0.0,0.0,0.0,0.0,0.0,0.0,0.0,0.0,0.0,0.0,0.0,0.0,0.0,0.0,0.0,0.0,0.0,0.0,0.0,0.0,0.0,0.0,0.0,0.0,0.0,0.0,0.0,0.0,0.0,0.0,0.0,0.0,0.0,0.0,0.0,0.0,0.0,0.0,0.0,0.0,0.0,0.0,0.0,0.0,0.0,0.0,0.0,0.0,0.0,0.0,0.0,0.0,0.0,0.0,0.0,0.0,0.0,0.0,0.0,0.0,0.0,0.0,0.0,0.0,0.0,0.0,0.0,0.0,0.0,0.0,0.0,0.0,0.0,0.0,0.0,0.0,0.0,0.0,0.0,0.0,0.0,0.0,0.0,0.0,0.0,0.0,0.0,0.0,0.0,0.0,0.0,0.0,0.0,0.0,0.0,0.0,0.0,0.0,0.0,0.0,0.0,0.0,0.0,0.0,0.0,0.0,0.0,0.0,0.0,0.0,2.7318,2.777,2.7462,2.7185,0.0,0.0,0.0,0.0,0.0,0.0,0.0,0.0,0.0,0.0,0.0,0.0,0.0,0.0,0.0,0.0,0.0,0.0,0.0,0.0,0.0,0.0,0.0,0.0,0.0,0.0,0.0,0.0,0.0,0.0,0.0,0.0,0.0,0.0,0.0,0.0,0.0,0.0,0.0,0.0,0.0,0.0,0.0,0.0,0.0,0.0,0.0,0.0,0.0,0.0,0.0,0.0,0.0,0.0,0.0,0.0,0.0,0.0,0.0,0.0,0.0,0.0,0.0,0.0,0.0,0.0,0.0,0.0,0.0,0.0,0.0,0.0,0.0,0.0,0.0,0.0,0.0,0.0,0.0,0.0,0.0,0.0,0.0,0.0,0.0,0.0,0.0,0.0,0.0,0.0,0.0,0.0,0.0,0.0,0.0,0.0,0.0,0.0,0.0,0.0,0.0,0.0,0.0,0.0,0.0,0.0,0.0,0.0,0.0,0.0,2.7871,2.8247,2.853,2.8323,2.7864,2.7085,0.0,0.0,0.0,0.0,0.0,0.0,0.0,0.0,0.0,0.0,0.0,0.0,0.0,0.0,0.0,0.0,0.0,0.0,0.0,0.0,0.0,0.0,0.0,0.0,0.0,0.0,0.0,0.0,0.0,0.0,0.0,0.0,0.0,0.0,0.0,0.0,0.0,0.0,0.0,0.0,0.0,0.0,0.0,0.0,0.0,0.0,0.0,0.0,0.0,0.0,0.0,0.0,0.0,0.0,0.0,0.0,0.0,0.0,0.0,0.0,0.0,0.0,0.0,0.0,0.0,0.0,0.0,0.0,0.0,0.0,0.0,0.0,0.0,0.0,0.0,0.0,0.0,0.0,0.0,0.0,0.0,0.0,0.0,0.0,0.0,0.0,0.0,0.0,0.0,0.0,0.0,0.0,0.0,0.0,0.0,0.0,0.0,0.0,0.0,0.0,0.0,0.0,0.0,0.0,0.0,0.0,0.0,0.0,2.9453,2.8624,2.8624,2.9704,3.0181,2.9227,0.0,0.0,0.0,0.0,0.0,0.0,0.0,0.0,0.0,0.0,0.0,0.0,0.0,0.0,0.0,0.0,0.0,0.0,0.0,0.0,0.0,0.0,0.0,0.0,0.0,0.0,0.0,0.0,0.0,0.0,0.0,0.0,0.0,0.0,0.0,0.0,0.0,0.0,0.0,0.0,0.0,0.0,0.0,0.0,0.0,0.0,0.0,0.0,0.0,0.0,0.0,0.0,0.0,0.0,0.0,0.0,0.0,0.0,0.0,0.0,0.0,0.0,0.0,0.0,0.0,0.0,0.0,0.0,0.0,0.0,0.0,0.0,0.0,0.0,0.0,0.0,0.0,0.0,0.0,0.0,0.0,0.0,0.0,0.0,0.0,0.0,0.0,0.0,0.0,0.0,0.0,0.0,0.0,0.0,0.0,0.0,0.0,0.0,0.0,0.0,0.0,0.0,0.0,0.0,0.0,0.0,0.0,0.0,0.0,2.7656,2.7946,2.9132,3.116,2.9195,2.7989,0.0,0.0,0.0,0.0,0.0,0.0,0.0,0.0,0.0,0.0,0.0,0.0,0.0,0.0,0.0,0.0,0.0,0.0,0.0,0.0,0.0,0.0,0.0,0.0,0.0,0.0,0.0,0.0,0.0,0.0,0.0,0.0,0.0,0.0,0.0,0.0,0.0,0.0,0.0,0.0,0.0,0.0,0.0,0.0,0.0,0.0,0.0,0.0,0.0,0.0,0.0,0.0,0.0,0.0,0.0,0.0,0.0,0.0,0.0,0.0,0.0,0.0,0.0,0.0,0.0,0.0,0.0,0.0,0.0,0.0,0.0,0.0,0.0,0.0,0.0,0.0,0.0,0.0,0.0,0.0,0.0,0.0,0.0,0.0,0.0,0.0,0.0,0.0,0.0,0.0,0.0,0.0,0.0,0.0,0.0,0.0,0.0,0.0,0.0,0.0,0.0,0.0,0.0,0.0,0.0,0.0,0.0,0.0,0.0,2.8083,2.9679,3.1065,3.2039,2.9723,2.819,0.0,0.0,0.0,0.0,0.0,0.0,0.0,0.0,0.0,0.0,0.0,0.0,0.0,0.0,0.0,0.0,0.0,0.0,0.0,0.0,0.0,0.0,0.0,0.0,0.0,0.0,0.0,0.0,0.0,0.0,0.0,0.0,0.0,0.0,0.0,0.0,0.0,0.0,0.0,0.0,0.0,0.0,0.0,0.0,0.0,0.0,0.0,0.0,0.0,0.0,0.0,0.0,0.0,0.0,0.0,0.0,0.0,0.0,0.0,0.0,0.0,0.0,0.0,0.0,0.0,0.0,0.0,0.0,0.0,0.0,0.0,0.0,0.0,0.0,0.0,0.0,0.0,0.0,0.0,0.0,0.0,0.0,0.0,0.0,0.0,0.0,0.0,0.0,0.0,0.0,0.0,0.0,0.0,0.0,0.0,0.0,0.0,0.0,0.0,0.0,0.0,0.0,0.0,0.0,0.0,0.0,0.0,0.0,2.8184,3.1235,3.3875,3.4179,3.2319,3.2043,3.0055,0.0,0.0,0.0,0.0,0.0,0.0,0.0,0.0,0.0,0.0,0.0,0.0,0.0,0.0,0.0,0.0,0.0,0.0,0.0,0.0,0.0,0.0,0.0,0.0,0.0,0.0,0.0,0.0,0.0,0.0,0.0,0.0,0.0,0.0,0.0,0.0,0.0,0.0,0.0,0.0,0.0,0.0,0.0,0.0,0.0,0.0,0.0,0.0,0.0,0.0,0.0,0.0,0.0,0.0,0.0,0.0,0.0,0.0,0.0,0.0,0.0,0.0,0.0,0.0,0.0,0.0,0.0,0.0,0.0,0.0,0.0,0.0,0.0,0.0,0.0,0.0,0.0,0.0,0.0,0.0,0.0,0.0,0.0,0.0,0.0,0.0,0.0,0.0,0.0,0.0,0.0,0.0,0.0,0.0,0.0,0.0,0.0,0.0,0.0,0.0,0.0,0.0,0.0,0.0,0.0,0.0,0.0,0.0,0.0,3.0382,3.2616,3.385,3.385,3.1738,3.0256,0.0,0.0,0.0,0.0,0.0,0.0,0.0,0.0,0.0,0.0,0.0,0.0,0.0,0.0,0.0,0.0,0.0,0.0,0.0,0.0,0.0,0.0,0.0,0.0,0.0,0.0,0.0,0.0,0.0,0.0,0.0,0.0,0.0,0.0,0.0,0.0,0.0,0.0,0.0,0.0,0.0,0.0,0.0,0.0,0.0,0.0,0.0,0.0,0.0,0.0,0.0,0.0,0.0,0.0,0.0,0.0,0.0,0.0,0.0,0.0,0.0,0.0,0.0,0.0,0.0,0.0,0.0,0.0,0.0,0.0,0.0,0.0,0.0,0.0,0.0,0.0,0.0,0.0,0.0,0.0,0.0,0.0,0.0,0.0,0.0,0.0,0.0,0.0,0.0,0.0,0.0,0.0,0.0,0.0,0.0,0.0,0.0,0.0,0.0,0.0,0.0,0.0,0.0,0.0,0.0,0.0,0.0,0.0,0.0,3.3391,3.5127,3.6081,3.5932,3.3323,3.1642,3.1035,0.0,0.0,0.0,0.0,0.0,0.0,0.0,0.0,0.0,0.0,0.0,0.0,0.0,0.0,0.0,0.0,0.0,0.0,0.0,0.0,0.0,0.0,0.0,0.0,0.0,0.0,0.0,0.0,0.0,0.0,0.0,0.0,0.0,0.0,0.0,0.0,0.0,0.0,0.0,0.0,0.0,0.0,0.0,0.0,0.0,0.0,0.0,0.0,0.0,0.0,0.0,0.0,0.0,0.0,0.0,0.0,0.0,0.0,0.0,0.0,0.0,0.0,0.0,0.0,0.0,0.0,0.0,0.0,0.0,0.0,0.0,0.0,0.0,0.0,0.0,0.0,0.0,0.0,0.0,0.0,0.0,0.0,0.0,0.0,0.0,0.0,0.0,0.0,0.0,0.0,0.0,0.0,0.0,0.0,0.0,0.0,0.0,0.0,0.0,0.0,0.0,0.0,0.0,0.0,0.0,0.0,0.0,0.0,3.917,4.0725,4.0474,3.8241,3.6461,3.4101,0.0,0.0,0.0,0.0,0.0,0.0,0.0,0.0,0.0,0.0,0.0,0.0,0.0,0.0,0.0,0.0,0.0,0.0,0.0,0.0,0.0,0.0,0.0,0.0,0.0,0.0,0.0,0.0,0.0,0.0,0.0,0.0,0.0,0.0,0.0,0.0,0.0,0.0,0.0,0.0,0.0,0.0,0.0,0.0,0.0,0.0,0.0,0.0,0.0,0.0,0.0,0.0,0.0,0.0,0.0,0.0,0.0,0.0,0.0,0.0,0.0,0.0,0.0,0.0,0.0,0.0,0.0,0.0,0.0,0.0,0.0,0.0,0.0,0.0,0.0,0.0,0.0,0.0,0.0,0.0,0.0,0.0,0.0,0.0,0.0,0.0,0.0,0.0,0.0,0.0,0.0,0.0,0.0,0.0,0.0,0.0,0.0,0.0,0.0,0.0,0.0,0.0,0.0,0.0,0.0,0.0,0.0,0.0,0.0,4.2459,4.4141,4.3536,4.0524,3.8065,3.578,0.0,0.0,0.0,0.0,0.0,0.0,0.0,0.0,0.0,0.0,0.0,0.0,0.0,0.0,0.0,0.0,0.0,0.0,0.0,0.0,0.0,0.0,0.0,0.0,0.0,0.0,0.0,0.0,0.0,0.0,0.0,0.0,0.0,0.0,0.0,0.0,0.0,0.0,0.0,0.0,0.0,0.0,0.0,0.0,0.0,0.0,0.0,0.0,0.0,0.0,0.0,0.0,0.0,0.0,0.0,0.0,0.0,0.0,0.0,0.0,0.0,0.0,0.0,0.0,0.0,0.0,0.0,0.0,0.0,0.0,0.0,0.0,0.0,0.0,0.0,0.0,0.0,0.0,0.0,0.0,0.0,0.0,0.0,0.0,0.0,0.0,0.0,0.0,0.0,0.0,0.0,0.0,0.0,0.0,0.0,0.0,0.0,0.0,0.0,0.0,0.0,0.0,0.0,0.0,0.0,0.0,0.0,0.0,4.2409,4.5146,4.615,4.5593,4.346,4.0727,3.8065,0.0,0.0,0.0,0.0,0.0,0.0,0.0,0.0,0.0,0.0,0.0,0.0,0.0,0.0,0.0,0.0,0.0,0.0,0.0,0.0,0.0,0.0,0.0,0.0,0.0,0.0,0.0,0.0,0.0,0.0,0.0,0.0,0.0,0.0,0.0,0.0,0.0,0.0,0.0,0.0,0.0,0.0,0.0,0.0,0.0,0.0,0.0,0.0,0.0,0.0,0.0,0.0,0.0,0.0,0.0,0.0,0.0,0.0,0.0,0.0,0.0,0.0,0.0,0.0,0.0,0.0,0.0,0.0,0.0,0.0,0.0,0.0,0.0,0.0,0.0,0.0,0.0,0.0,0.0,0.0,0.0,0.0,0.0,0.0,0.0,0.0,0.0,0.0,0.0,0.0,0.0,0.0,0.0,0.0,0.0,0.0,0.0,0.0,0.0,0.0,0.0,0.0,0.0,0.0,0.0,0.0,0.0,0.0,4.4568,4.7199,4.735,4.7074,4.6426,4.3768,4.0477,0.0,0.0,0.0,0.0,0.0,0.0,0.0,0.0,0.0,0.0,0.0,0.0,0.0,0.0,0.0,0.0,0.0,0.0,0.0,0.0,0.0,0.0,0.0,0.0,0.0,0.0,0.0,0.0,0.0,0.0,0.0,0.0,0.0,0.0,0.0,0.0,0.0,0.0,0.0,0.0,0.0,0.0,0.0,0.0,0.0,0.0,0.0,0.0,0.0,0.0,0.0,0.0,0.0,0.0,0.0,0.0,0.0,0.0,0.0,0.0,0.0,0.0,0.0,0.0,0.0,0.0,0.0,0.0,0.0,0.0,0.0,0.0,0.0,0.0,0.0,0.0,0.0,0.0,0.0,0.0,0.0,0.0,0.0,0.0,0.0,0.0,0.0,0.0,0.0,0.0,0.0,0.0,0.0,0.0,0.0,0.0,0.0,0.0,0.0,0.0,0.0,0.0,0.0,0.0,0.0,0.0,0.0,0.0,4.6105,4.836,4.8837,4.8586,4.7581,4.4468,4.1178,0.0,0.0,0.0,0.0,0.0,0.0,0.0,0.0,0.0,0.0,0.0,0.0,0.0,0.0,0.0,0.0,0.0,0.0,0.0,0.0,0.0,0.0,0.0,0.0,0.0,0.0,0.0,0.0,0.0,0.0,0.0,0.0,0.0,0.0,0.0,0.0,0.0,0.0,0.0,0.0,0.0,0.0,0.0,0.0,0.0,0.0,0.0,0.0,2.4805,0.0,0.0,0.0,0.0,0.0,0.0,0.0,0.0,0.0,0.0,0.0,0.0,0.0,0.0,0.0,0.0,0.0,0.0,0.0,0.0,0.0,0.0,0.0,0.0,0.0,0.0,0.0,0.0,0.0,0.0,0.0,0.0,0.0,0.0,0.0,0.0,0.0,0.0,0.0,0.0,0.0,0.0,0.0,0.0,0.0,0.0,0.0,0.0,0.0,0.0,0.0,0.0,0.0,0.0,0.0,0.0,0.0,0.0,0.0,4.6954,4.9063,4.9439,4.9188,4.8284,4.6351,4.3363,0.0,0.0,0.0,0.0,0.0,0.0,0.0,0.0,0.0,0.0,0.0,0.0,0.0,0.0,0.0,0.0,0.0,0.0,0.0,0.0,0.0,0.0,0.0,0.0,0.0,0.0,0.0,0.0,0.0,0.0,0.0,0.0,0.0,0.0,0.0,0.0,0.0,0.0,0.0,0.0,0.0,0.0,0.0,0.0,0.0,0.0,0.0,0.0,0.0,0.0,0.0,0.0,0.0,0.0,0.0,0.0,0.0,0.0,0.0,0.0,0.0,0.0,0.0,0.0,0.0,0.0,0.0,0.0,0.0,0.0,0.0,0.0,0.0,0.0,0.0,0.0,0.0,0.0,0.0,0.0,0.0,0.0,0.0,0.0,0.0,0.0,0.0,0.0,0.0,0.0,0.0,0.0,0.0,0.0,0.0,0.0,0.0,0.0,0.0,0.0,0.0,0.0,0.0,0.0,0.0,0.0,0.0,4.5271,4.7657,4.9866,4.9891,4.964,4.9195,4.8435,4.5799,4.1078,0.0,0.0,0.0,0.0,0.0,0.0,0.0,0.0,0.0,0.0,0.0,0.0,0.0,0.0,0.0,0.0,0.0,0.0,0.0,0.0,0.0,0.0,0.0,0.0,0.0,0.0,0.0,0.0,0.0,0.0,0.0,0.0,0.0,0.0,0.0,0.0,0.0,0.0,2.3542,2.5338,0.0,0.0,0.0,0.0,0.0,0.0,0.0,0.0,2.5619,0.0,0.0,0.0,0.0,0.0,0.0,0.0,0.0,0.0,0.0,0.0,0.0,0.0,0.0,0.0,0.0,0.0,0.0,0.0,0.0,0.0,0.0,0.0,0.0,0.0,0.0,0.0,0.0,0.0,0.0,0.0,0.0,0.0,0.0,0.0,0.0,0.0,0.0,0.0,0.0,0.0,0.0,0.0,0.0,0.0,0.0,0.0,0.0,0.0,0.0,0.0,0.0,0.0,0.0,0.0,0.0,4.5547,4.6954,4.8962,5.1599,5.1247,5.1004,5.0878,4.9446,4.6758,4.2763,0.0,0.0,0.0,0.0,0.0,0.0,0.0,0.0,0.0,0.0,0.0,0.0,0.0,0.0,0.0,0.0,0.0,0.0,0.0,0.0,0.0,0.0,0.0,0.0,0.0,0.0,0.0,0.0,0.0,0.0,0.0,0.0,0.0,0.0,0.0,0.0,0.0,0.0,0.0,2.8618,2.9342,0.0,0.0,0.0,0.0,0.0,0.0,0.0,0.0,2.5471,0.0,0.0,0.0,0.0,0.0,0.0,0.0,0.0,0.0,0.0,0.0,0.0,0.0,0.0,0.0,0.0,0.0,0.0,0.0,0.0,0.0,0.0,0.0,0.0,0.0,0.0,0.0,0.0,0.0,0.0,0.0,0.0,0.0,0.0,0.0,0.0,0.0,0.0,0.0,0.0,0.0,0.0,0.0,0.0,0.0,0.0,0.0,0.0,0.0,0.0,0.0,0.0,0.0,0.0,0.0,4.497,4.8083,5.0444,5.2026,5.185,5.1607,5.1272,5.0527,4.7889,0.0,0.0,0.0,0.0,0.0,0.0,0.0,0.0,0.0,0.0,0.0,0.0,0.0,0.0,0.0,0.0,0.0,0.0,0.0,0.0,0.0,0.0,0.0,0.0,0.0,0.0,0.0,0.0,0.0,0.0,0.0,0.0,0.0,0.0,0.0,0.0,0.0,0.0,0.0,0.0,2.9839,3.0637,3.0701,0.0,0.0,0.0,0.0,0.0,0.0,2.6785,2.5696,0.0,0.0,0.0,0.0,0.0,0.0,0.0,0.0,0.0,0.0,0.0,0.0,0.0,0.0,0.0,0.0,0.0,0.0,0.0,0.0,0.0,0.0,0.0,0.0,0.0,0.0,0.0,0.0,0.0,0.0,0.0,0.0,0.0,0.0,0.0,0.0,0.0,0.0,0.0,0.0,0.0,0.0,0.0,0.0,0.0,0.0,0.0,0.0,0.0,0.0,0.0,0.0,0.0,0.0,0.0,4.4066,4.8686,5.1548,5.2377,5.2427,5.2176,5.1624,5.1398,4.8711,0.0,0.0,0.0,0.0,0.0,0.0,0.0,0.0,0.0,0.0,0.0,0.0,0.0,0.0,0.0,0.0,0.0,0.0,0.0,0.0,0.0,0.0,0.0,0.0,0.0,0.0,0.0,0.0,0.0,0.0,0.0,0.0,0.0,0.0,0.0,0.0,0.0,0.0,0.0,0.0,0.0,3.1557,3.2193,3.1235,0.0,0.0,0.0,0.0,2.9295,2.7954,0.0,0.0,0.0,0.0,0.0,0.0,0.0,0.0,0.0,0.0,0.0,0.0,0.0,0.0,0.0,0.0,0.0,0.0,0.0,0.0,0.0,0.0,0.0,0.0,0.0,0.0,0.0,0.0,0.0,0.0,0.0,0.0,0.0,0.0,0.0,0.0,0.0,0.0,0.0,0.0,0.0,0.0,0.0,0.0,0.0,0.0,0.0,0.0,0.0,0.0,0.0,0.0,0.0,0.0,0.0,0.0,4.4539,4.8485,5.1498,5.3406,5.3507,5.3256,5.2719,5.18,4.8887,0.0,0.0,0.0,0.0,0.0,0.0,0.0,0.0,0.0,0.0,0.0,0.0,0.0,0.0,0.0,0.0,0.0,0.0,0.0,0.0,0.0,0.0,0.0,0.0,0.0,0.0,0.0,0.0,0.0,0.0,0.0,0.0,0.0,0.0,0.0,0.0,0.0,0.0,0.0,0.0,0.0,3.2784,3.2656,3.2391,3.2169,0.0,0.0,3.132,3.1953,3.0926,0.0,0.0,0.0,0.0,0.0,0.0,0.0,0.0,0.0,0.0,0.0,0.0,0.0,0.0,0.0,0.0,0.0,0.0,0.0,0.0,0.0,0.0,0.0,0.0,0.0,0.0,0.0,0.0,0.0,0.0,0.0,0.0,0.0,0.0,0.0,0.0,0.0,0.0,0.0,0.0,0.0,0.0,0.0,0.0,0.0,0.0,0.0,0.0,0.0,0.0,0.0,0.0,0.0,0.0,0.0,4.3711,4.5643,5.0318,5.3381,5.4612,5.4662,5.4235,5.3381,5.2904,4.9715,0.0,0.0,0.0,0.0,0.0,0.0,0.0,0.0,0.0,0.0,0.0,0.0,0.0,0.0,0.0,0.0,0.0,0.0,0.0,0.0,0.0,0.0,0.0,0.0,0.0,0.0,0.0,0.0,0.0,0.0,0.0,0.0,0.0,0.0,0.0,0.0,0.0,0.0,0.0,0.0,0.0,0.0,3.4714,3.3934,0.0,0.0,0.0,3.2613,3.2996,0.0,0.0,0.0,0.0,0.0,0.0,0.0,0.0,0.0,0.0,0.0,0.0,0.0,0.0,0.0,0.0,0.0,0.0,0.0,0.0,0.0,0.0,0.0,0.0,0.0,0.0,0.0,0.0,0.0,0.0,0.0,0.0,0.0,0.0,0.0,0.0,0.0,0.0,0.0,0.0,0.0,0.0,0.0,0.0,0.0,0.0,0.0,0.0,0.0,0.0,0.0,0.0,0.0,0.0,0.0,0.0,0.0,4.6376,5.1749,5.4798,5.52,5.5315,5.4913,5.3959,5.3658,0.0,0.0,0.0,0.0,0.0,0.0,0.0,0.0,0.0,0.0,0.0,0.0,0.0,0.0,0.0,0.0,0.0,0.0,0.0,0.0,0.0,0.0,0.0,0.0,0.0,0.0,0.0,2.0526,0.0,0.0,0.0,0.0,0.0,0.0,0.0,0.0,0.0,0.0,0.0,0.0,0.0,0.0,3.5041,3.6859,3.5995,3.5734,0.0,0.0,3.4442,3.4792,3.4434,3.319,0.0,0.0,0.0,0.0,0.0,0.0,0.0,0.0,0.0,0.0,0.0,0.0,0.0,0.0,0.0,0.0,0.0,0.0,0.0,0.0,0.0,0.0,0.0,0.0,0.0,0.0,0.0,0.0,0.0,0.0,0.0,0.0,0.0,0.0,0.0,0.0,0.0,0.0,0.0,0.0,0.0,0.0,0.0,0.0,0.0,0.0,0.0,0.0,0.0,0.0,0.0,0.0,0.0,0.0,4.5723,4.6476,5.1808,5.4647,5.4672,5.5139,5.5114,5.4547,5.3507,5.0594,0.0,0.0,0.0,0.0,0.0,0.0,0.0,0.0,0.0,0.0,0.0,0.0,0.0,0.0,0.0,0.0,0.0,0.0,0.0,0.0,0.0,0.0,0.0,0.0,0.0,0.0,0.0,0.0,0.0,0.0,0.0,0.0,0.0,0.0,0.0,0.0,0.0,0.0,0.0,0.0,0.0,3.5209,3.862,3.8785,3.8969,0.0,3.8793,3.7864,3.8466,3.7611,3.5454,3.126,0.0,0.0,0.0,0.0,0.0,0.0,0.0,0.0,0.0,0.0,0.0,0.0,0.0,0.0,0.0,0.0,0.0,0.0,0.0,0.0,0.0,0.0,0.0,0.0,0.0,0.0,0.0,0.0,0.0,0.0,0.0,0.0,0.0,0.0,0.0,0.0,0.0,0.0,0.0,0.0,0.0,0.0,0.0,0.0,0.0,0.0,0.0,0.0,0.0,0.0,0.0,0.0,0.0,4.6602,4.7883,5.3281,5.6244,5.6595,5.647,5.6143,5.5591,5.4511,5.1749,0.0,0.0,0.0,0.0,0.0,0.0,0.0,0.0,0.0,0.0,0.0,0.0,0.0,0.0,0.0,0.0,0.0,0.0,0.0,0.0,0.0,0.0,0.0,0.0,0.0,0.0,0.0,0.0,2.6096,2.6104,2.4666,0.0,0.0,0.0,0.0,0.0,0.0,0.0,0.0,0.0,0.0,3.885,4.0338,4.0458,0.0,0.0,4.0902,4.0098,4.0324,3.8868,3.701,3.4977,3.2893,0.0,0.0,0.0,0.0,0.0,0.0,0.0,0.0,0.0,0.0,0.0,0.0,0.0,0.0,0.0,0.0,0.0,0.0,0.0,0.0,0.0,0.0,0.0,0.0,0.0,0.0,0.0,0.0,0.0,0.0,0.0,0.0,0.0,0.0,0.0,0.0,0.0,0.0,0.0,0.0,0.0,0.0,0.0,0.0,0.0,0.0,0.0,0.0,0.0,0.0,0.0,0.0,4.7456,4.9296,5.4561,5.7474,5.7901,5.7499,5.7085,5.6696,5.5351,5.2813,0.0,0.0,0.0,0.0,0.0,0.0,0.0,0.0,0.0,0.0,0.0,0.0,0.0,0.0,0.0,0.0,0.0,0.0,0.0,0.0,0.0,0.0,0.0,0.0,0.0,0.0,0.0,0.0,2.7645,2.7225,2.4816,0.0,0.0,0.0,0.0,0.0,0.0,0.0,0.0,0.0,0.0,4.131,4.2391,4.213,4.2181,4.3313,4.2108,4.1127,4.1302,3.9847,3.8442,3.7563,0.0,0.0,0.0,0.0,0.0,0.0,0.0,0.0,0.0,0.0,0.0,0.0,0.0,0.0,0.0,0.0,0.0,0.0,0.0,0.0,0.0,0.0,0.0,0.0,0.0,0.0,0.0,3.2053,0.0,0.0,3.1335,0.0,0.0,0.0,0.0,0.0,0.0,0.0,0.0,0.0,0.0,0.0,0.0,0.0,0.0,0.0,0.0,0.0,0.0,0.0,0.0,0.0,0.0,4.8178,5.0386,5.5365,5.7926,5.7951,5.7901,5.7901,5.7826,5.5778,5.3542,5.1139,0.0,0.0,0.0,0.0,0.0,0.0,0.0,0.0,0.0,0.0,0.0,0.0,0.0,0.0,0.0,0.0,0.0,0.0,0.0,0.0,0.0,0.0,0.0,0.0,0.0,0.0,2.4356,2.5619,2.5971,0.0,0.0,0.0,0.0,0.0,0.0,0.0,0.0,0.0,3.7964,3.9798,4.1733,4.4895,4.4044,4.3438,4.4439,4.2331,4.0775,4.1352,4.0826,3.9872,0.0,0.0,0.0,0.0,0.0,0.0,0.0,0.0,0.0,0.0,0.0,0.0,0.0,0.0,0.0,0.0,0.0,0.0,0.0,0.0,0.0,0.0,0.0,0.0,0.0,0.0,0.0,3.3286,3.3032,0.0,0.0,0.0,0.0,0.0,0.0,0.0,0.0,0.0,0.0,0.0,4.4421,4.5121,0.0,0.0,0.0,0.0,0.0,0.0,0.0,0.0,0.0,0.0,0.0,0.0,4.949,5.2142,5.6997,5.9709,6.006,5.9332,5.8956,5.893,5.6821,5.3321,4.8409,0.0,0.0,0.0,0.0,0.0,0.0,0.0,0.0,0.0,0.0,0.0,0.0,0.0,0.0,0.0,0.0,0.0,0.0,0.0,0.0,0.0,0.0,0.0,0.0,0.0,2.7075,0.0,0.0,0.0,0.0,0.0,0.0,0.0,0.0,0.0,0.0,3.3345,3.7186,4.0098,4.2707,4.4865,4.6346,4.6401,4.6276,0.0,0.0,0.0,0.0,0.0,0.0,0.0,0.0,0.0,0.0,0.0,0.0,0.0,0.0,3.8608,3.4706,3.334,3.2705,3.2403,0.0,0.0,0.0,0.0,0.0,0.0,0.0,0.0,0.0,0.0,0.0,0.0,0.0,0.0,3.5647,3.5051,3.5626,0.0,0.0,0.0,0.0,0.0,0.0,0.0,0.0,4.555,4.7003,4.8077,4.8061,4.834,4.883,4.8335,4.6502,0.0,0.0,0.0,0.0,0.0,0.0,0.0,0.0,5.1197,5.4325,5.8478,6.0788,6.114,6.0462,5.9548,5.8437,5.5581,5.1834,4.7121,4.3759,4.1601,0.0,0.0,0.0,0.0,0.0,0.0,0.0,0.0,0.0,0.0,0.0,0.0,0.0,0.0,0.0,0.0,0.0,0.0,0.0,0.0,0.0,0.0,0.0,2.981,0.0,0.0,0.0,0.0,0.0,0.0,0.0,0.0,0.0,3.3323,3.7185,4.0929,4.3285,4.5468,4.7205,4.8127,0.0,0.0,0.0,0.0,0.0,0.0,0.0,4.148,4.2587,4.0979,3.9773,4.0451,4.1605,4.2155,4.1254,0.0,0.0,3.8036,3.6796,3.6302,3.5999,3.6383,3.6786,3.701,3.8492,3.9848,0.0,0.0,0.0,0.0,3.6904,0.0,0.0,0.0,3.8308,3.8006,0.0,3.7453,0.0,0.0,0.0,0.0,4.0031,4.3634,0.0,0.0,4.9655,5.0941,5.261,5.0811,5.1172,5.3453,5.2894,5.2429,5.1831,4.8239,0.0,0.0,0.0,0.0,0.0,0.0,5.3306,5.6985,5.9834,6.124,6.1121,6.1071,5.9558,5.6335,5.2209,4.9205,4.7462,4.486,4.2958,4.1837,3.7643,0.0,0.0,0.0,0.0,0.0,0.0,0.0,0.0,0.0,0.0,0.0,0.0,0.0,0.0,0.0,0.0,0.0,0.0,0.0,0.0,3.2014,0.0,0.0,0.0,0.0,0.0,0.0,0.0,0.0,0.0,3.9998,3.8467,4.0703,4.3743,4.7355,0.0,0.0,0.0,0.0,4.841,4.9439,4.6451,4.4267,4.4715,4.4267,4.389,4.394,0.0,0.0,4.2688,4.3614,4.4192,4.2663,4.3714,4.4392,4.3291,4.1685,4.0803,4.1252,4.0976,4.1254,4.2685,4.3614,4.489,3.9902,0.0,0.0,0.0,0.0,4.0431,4.1022,4.1278,4.1116,4.057,3.9804,3.9678,0.0,0.0,0.0,0.0,0.0,0.0,4.6551,4.9582,5.0461,5.1593,5.2849,5.2308,5.1798,5.1332,5.1178,5.2108,5.3715,5.1175,4.8151,4.489,0.0,0.0,0.0,0.0,5.6118,5.8755,6.114,6.1522,5.9861,5.9457,5.7519,5.3847,5.0515,4.8238,4.7029,4.4556,4.2546,4.1018,3.9039,0.0,0.0,0.0,0.0,0.0,0.0,0.0,0.0,0.0,0.0,0.0,0.0,0.0,0.0,0.0,0.0,0.0,0.0,0.0,3.1311,3.4773,3.6155,0.0,0.0,0.0,0.0,0.0,0.0,0.0,0.0,0.0,4.3915,4.5296,4.6652,0.0,0.0,4.959,4.9289,4.9866,5.0293,5.0193,4.9238,0.0,4.7657,4.6451,4.5849,4.6602,4.6702,4.6271,4.5296,4.5819,4.6245,4.5744,4.6371,4.6853,4.6502,4.5171,4.4317,4.4719,4.4744,4.4769,4.5296,4.62,4.7048,4.2724,4.2011,4.0371,4.0164,4.0963,4.1856,4.246,4.2841,4.2841,4.2461,4.1842,4.1804,4.1579,4.1132,4.1291,0.0,0.0,0.0,4.7514,5.0256,5.0094,5.0839,5.2148,5.137,5.1052,5.1063,5.0605,5.1628,5.3896,5.2166,4.9897,4.727,0.0,4.9827,5.0494,5.3997,5.6882,5.9057,6.0646,6.0278,5.7968,5.6175,5.4103,5.1596,4.8609,4.6698,4.6085,4.4312,4.2861,4.1885,4.0254,3.859,0.0,0.0,0.0,0.0,0.0,0.0,0.0,0.0,0.0,0.0,0.0,3.1009,2.9402,0.0,0.0,0.0,3.4849,3.568,3.6558,3.917,0.0,0.0,0.0,0.0,0.0,0.0,0.0,4.374,4.5773,4.7224,4.8159,4.9038,4.9565,4.9565,5.0645,5.1322,5.113,0.0,5.2486,5.2126,5.1523,5.087,5.0193,4.8686,4.7757,4.8184,4.8184,4.7877,4.7405,4.7732,4.8052,4.8102,4.8184,4.8309,4.8535,4.7581,4.6778,4.6928,4.6928,4.7004,4.723,4.7807,4.8127,4.5172,4.4941,4.1836,4.1113,4.2031,4.2051,4.2715,4.3789,4.3808,4.3808,4.3808,4.3808,4.3183,4.2111,4.2449,0.0,4.5718,4.7242,4.9038,5.1094,4.9141,4.9286,5.1057,4.9203,4.9501,5.1684,5.0656,5.1083,5.2613,5.1526,5.0538,4.9715,4.9465,5.0501,5.272,5.4391,5.6263,5.8254,5.8751,5.7836,5.5461,5.1959,4.9948,4.953,4.6663,4.5117,4.5058,4.4297,4.3828,4.3693,4.1387,3.9569,3.8589,0.0,0.0,0.0,0.0,0.0,0.0,0.0,0.0,0.0,0.0,0.0,0.0,0.0,0.0,3.8291,4.2032,0.0,4.4564,4.4263,0.0,0.0,0.0,4.0592,4.2637,4.3848,4.532,4.7224,0.0,0.0,5.1047,5.1462,5.1802,5.2038,5.2601,5.3296,5.4346,5.4421,5.4597,5.4446,5.329,5.2302,5.2101,5.0795,4.959,4.9195,4.9364,4.9389,4.8969,4.9238,4.9615,4.959,4.9264,4.917,4.964,4.9135,4.8596,4.797,4.7802,4.7933,4.8294,4.8252,4.7734,4.6973,4.6914,4.6094,4.5176,4.4216,4.4258,4.4392,4.4707,4.4707,4.4707,4.4707,4.4707,4.4726,4.4788,4.5188,4.5639,4.6163,4.6866,4.818,4.9933,4.9807,4.9975,5.0422,4.9933,4.9326,4.8689,4.8376,4.9332,5.1186,4.9435,4.9209,5.0464,4.9527,4.9865,5.1565,5.4225,5.585,5.6521,5.6635,5.5238,5.2235,4.9246,4.7674,4.7575,4.6555,4.5859,4.5547,4.5332,4.4902,4.4238,4.2663,4.1382,4.0512,3.7837,0.0,0.0,0.0,0.0,0.0,0.0,0.0,0.0,0.0,3.7865,3.4931,0.0,3.917,0.0,4.62,4.7255,4.484,4.5618,0.0,0.0,4.2891,4.2699,4.7796,4.5991,4.5823,4.9862,4.9441,4.8998,4.9562,4.8803,4.909,5.1369,5.2745,5.3482,5.3381,5.4059,5.4597,5.4597,5.4295,5.3868,5.3331,5.2302,5.1322,5.0803,5.0444,5.0042,4.949,4.9866,5.0185,5.0243,5.0494,5.0753,5.0812,4.9575,4.844,4.8204,4.7636,4.7082,4.7226,4.6257,4.5173,4.7623,4.7623,4.7623,4.7031,4.6172,4.6172,4.6152,4.6152,4.6152,4.6152,4.6172,4.6172,4.6289,4.6587,4.6758,4.6875,4.6894,4.7109,4.778,4.8705,4.8929,4.903,4.903,4.903,4.853,4.7623,4.7623,4.8231,4.9283,4.8186,4.8211,4.9392,4.8904,4.9107,5.0204,5.3228,5.4626,5.4301,5.309,5.1493,4.9569,4.7839,4.6616,4.607,4.623,4.6016,4.541,4.5566,4.5098,4.3848,4.2578,4.1484,4.0662,3.9048,3.8381,0.0,0.0,0.0,0.0,0.0,0.0,0.0,0.0,0.0,0.0,0.0,4.3237,4.4895,4.7651,4.833,4.5708,4.6166,4.668,4.6884,4.4877,4.4956,4.8714,4.7072,4.6784,4.9604,4.8989,4.8413,4.8677,4.8053,4.8336,5.0501,5.1477,5.2635,5.4395,5.529,5.5666,5.5666,5.5239,5.4773,5.416,5.3607,5.3005,5.2477,5.2302,5.2026,5.1247,5.1523,5.1791,5.1532,5.0875,5.0332,5.0206,4.85,4.7051,4.6819,4.5894,4.5357,4.5989,4.5403,4.4521,4.791,4.791,4.7955,4.7955,4.791,4.791,4.7793,4.7623,4.7623,4.7623,4.7623,4.7623,4.7623,4.7623,4.7623,4.7623,4.7623,4.7637,4.7656,4.7656,4.7715,4.7773,4.7832,4.7832,4.7851,4.791,4.7955,4.7955,4.791,4.791,4.791,4.793,4.834,4.8711,4.9182,5.1825,5.2803,5.1958,4.9432,4.791,4.7545,4.7129,4.6323,4.5293,4.5957,4.6016,4.5254,4.5547,4.5058,4.3555,4.2285,4.125,4.0526,4.0927,4.025,0.0,3.9387,0.0,0.0,0.0,0.0,0.0,0.0,0.0,0.0,4.6359,4.668,4.5519,4.7604,4.8368,4.688,4.6459,4.6446,4.6869,4.6677,4.6817,4.7492,4.7372,4.749,4.8214,4.8091,4.7939,4.7873,4.7749,4.7888,4.9007,4.949,5.1153,5.5116,5.5891,5.5853,5.6277,5.5448,5.4254,5.4295,5.4022,5.3533,5.347,5.3151,5.3523,5.266,5.2614,5.2682,5.2087,5.0407,4.9062,4.8944,4.6978,4.5398,4.5304,4.385,4.3145,4.4479,4.4557,4.4142,4.9734,4.9734,4.9687,4.9687,4.9687,4.9687,4.8933,4.7623,4.7623,4.7623,4.7623,4.7623,4.7623,4.7623,4.7623,4.7623,4.7643,4.793,4.8086,4.8086,4.8503,4.8808,4.9094,4.916,4.9355,4.9668,4.9687,4.9687,4.9687,4.9687,4.9687,4.9734,5.0117,5.0195,5.0008,0.0,0.0,0.0,4.8358,4.748,4.707,4.6928,4.6616,4.6094,4.6543,0.0,4.6094,4.6133,4.6035,4.5683,4.4473,0.0,0.0,0.0,0.0,0.0,0.0,0.0,0.0,0.0,0.0,0.0,4.3118,4.3174,4.3151,4.573,4.6767,4.5333,4.7137,4.8305,4.7998,4.7902,4.7879,4.7931,4.6593,4.6292,4.7822,4.6761,4.642,4.8069,4.693,4.5969,4.5934,4.4564,4.4474,4.6596,4.7589,4.9213,5.1996,5.2563,5.2484,5.2336,5.2184,5.2241,5.3798,5.1944,5.1142,5.1821,5.069,5.0258,5.1305,5.033,4.9437,4.9313,4.8784,4.8312,4.7973,4.6258,4.4654,4.4411,4.2809,4.1811,4.2842,4.1945,4.0818,5.0371,5.0223,5.0223,5.0293,0.0,5.0273,4.9805,4.916,4.8945,4.8913,4.8867,4.8867,4.8867,4.8913,4.8867,4.8913,4.8867,4.9082,4.918,4.9199,4.9414,4.9629,4.9844,4.9844,4.9961,5.0223,5.0223,5.0223,5.0223,5.0223,5.0223,5.0195,5.0391,5.0488,5.0488,5.0703,5.0273,4.9199,4.834,4.7793,4.7558,4.7363,4.6953,4.6348,4.6914,0.0,0.0,0.0,0.0,0.0,0.0,0.0,0.0,4.1416,0.0,4.1338,4.076,4.0484,4.0797,4.0766,4.1759,4.4123,4.4419,4.5019,4.6256,4.7973,4.8717,4.8173,4.8024,4.7999,4.8115,4.7114,4.6434,4.6624,4.5799,4.5637,4.6384,4.5799,4.5616,4.6363,4.5839,4.5149,4.4927,4.4114,4.3908,4.5067,4.5738,4.6742,4.842,5.0401,5.1635,5.1349,5.1126,5.1323,5.2163,5.1223,5.008,5.1002,5.0138,4.9562,5.0099,4.9397,4.8624,4.8309,4.7558,4.6805,4.6495,4.4931,4.3489,4.3268,4.2466,4.1857,4.2167,4.1314,4.0527,5.0937,5.0625,5.0625,5.082,5.1113,5.0781,5.082,5.1113,5.0527,0.0,0.0,5.0371,5.041,5.0391,5.041,5.041,5.0391,5.0391,5.0449,5.0527,5.0508,5.0547,5.0673,5.0625,5.0625,5.0625,5.0594,5.0508,5.0508,5.043,5.0391,5.041,5.0391,5.0527,5.0781,5.0801,5.043,4.9648,4.8769,4.8281,4.8203,4.7871,4.7324,4.6562,4.7285,4.7285,4.6465,4.6816,4.6328,4.4805,4.3711,4.291,4.248,4.168,4.1719,4.2773,4.2694,4.2832,4.3281,4.3342,4.3691,4.457,4.5,4.6439,4.9245,4.9442,4.9657,5.0131,4.8304,4.7196,4.7506,4.576,4.4648,4.4957,4.5039,4.5,4.5062,4.5039,4.5069,4.5039,4.5069,4.4883,4.4596,4.4495,4.4512,4.4492,4.4722,4.4766,4.5898,4.8671,5.073,5.0835,5.0292,5.0224,5.0686,4.989,4.9763,4.9844,4.936,4.8947,4.8741,4.8393,4.8007,4.7298,4.6124,4.5263,4.4925,4.3738,4.256,4.2441,4.2382,4.2284,4.1992,4.1641,4.1348,5.2402,5.2344,5.2344,5.2383,5.2441,5.2383,5.2383,5.2344,5.1211,5.0723,5.0742,5.1094,5.125,5.125,5.1201,5.1201,5.1201,5.1201,5.1465,5.1816,5.1816,5.2012,5.2344,5.2344,5.2344,5.2324,5.1973,5.1816,5.1777,5.1426,5.1201,5.125,5.125,5.1113,5.084,5.0801,5.0566,5.0078,4.9265,4.8574,4.8223,4.8144,4.7891,4.7461,4.7871,4.7715,4.685,4.7266,4.7051,4.6094,4.5859,4.5566,4.5179,4.4277,4.4082,4.4528,4.3945,4.373,4.418,4.4219,4.457,4.541,4.5879,4.604,4.5785,4.5728,4.581,4.587,4.5681,4.5365,4.5424,4.515,4.5,4.4996,4.5039,4.5039,4.5078,4.5078,4.5098,4.5098,4.5039,4.5016,4.4961,4.4941,4.4941,4.4879,4.4922,4.5117,4.5656,4.6434,4.7867,4.9067,4.7907,4.7491,4.8589,4.7273,4.6843,4.7723,4.6558,4.6065,4.7027,4.5979,4.4967,4.4499,4.4297,4.3954,4.3615,4.3252,4.2871,4.2557,4.2499,4.2421,4.2363,4.2206,4.1992,5.293,5.2715,5.2715,5.2851,5.3066,5.3066,5.293,5.2695,5.2344,5.2051,5.1855,5.2031,5.2129,5.2129,5.2129,5.2129,5.2129,5.2129,5.2226,5.2422,5.2422,5.2519,5.2695,5.2715,5.2715,5.2695,5.2519,5.2422,5.2402,5.2207,5.208,5.2109,5.1914,5.168,5.1504,5.1269,5.0937,5.0508,4.9902,4.9473,4.9277,4.9277,4.9062,4.8652,4.8613,4.8262,4.7637,4.7363,4.7051,4.666,4.6211,4.5879,4.5727,4.5078,4.4824,4.4957,4.4648,4.4512,4.4726,4.4961,4.5351,4.5957,4.6191,4.6152,4.5762,4.5723,4.5679,4.5723,4.5723,4.5723,4.5723,4.5723,4.5723,4.5723,4.5723,4.5723,4.5723,4.5723,4.5723,4.5723,4.5723,4.5625,4.541,4.5391,4.5273,4.5055,4.5195,4.5391,4.5371,4.5703,4.6304,4.715,4.665,4.6418,4.708,4.6302,4.5828,4.6436,4.552,4.5013,4.5509,4.4561,4.4089,4.375,4.3691,4.3633,4.3418,4.3418,4.332,4.3223,4.3125,4.3066,4.2851,4.2598,4.2207,5.332,5.3008,5.3008,5.3203,5.3546,5.3566,5.332,5.3047,5.3359,5.332,5.3027,5.3008,5.3008,5.3008,5.2958,5.3008,5.3008,5.3008,5.3008,5.3008,5.3008,5.3008,5.3008,5.3008,5.3008,5.2988,5.291,5.2851,5.2851,5.2773,5.2715,5.2676,5.2383,5.2226,5.2207,5.1797,5.1426,5.1074,5.0586,5.0273,5.0176,5.0098,4.9863,4.9531,4.9082,4.8698,4.8203,4.7656,4.7285,4.707,4.6543,4.6152,4.5976,4.5644,4.5367,4.5332,4.5215,4.5215,4.5332,4.582,4.625,4.6562,4.6601,4.6582,4.6582,4.6582,4.6504,4.6348,4.6269,4.6269,4.625,4.6269,4.6308,4.6308,4.6308,4.625,4.6289,4.6308,4.6308,4.6308,4.6308,4.6152,4.5898,4.582,4.5644,4.5351,4.5547,4.5625,4.5312,4.5547,4.5805,4.5644,4.5898,4.6098,4.582,4.5863,4.5805,4.5723,4.5433,4.5104,4.4817,4.4557,4.4297,4.3945,4.3769,4.3711,4.3691,4.3691,4.3672,4.3613,4.3594,4.3555,4.3281,4.3008,4.2499,5.3945,5.3855,5.3906,5.3926,5.3984,5.3984,5.3894,5.3906,5.3945,5.3894,5.3816,5.3855,5.3836,5.3855,5.3887,5.3816,5.3816,5.3855,5.3836,5.3816,5.3855,5.3855,5.3816,5.3836,5.3855,5.3828,5.3476,5.3351,5.3331,5.293,5.2734,5.2715,5.2656,5.2656,5.2598,5.2226,5.1992,5.1953,5.1152,5.0566,5.0223,4.9785,4.9523,4.9531,4.9082,4.8698,4.8242,4.8561,4.8346,4.7637,4.7773,4.7598,4.6914,4.6733,4.6601,4.623,4.5859,4.5781,4.6191,4.6953,4.7363,4.7461,4.7422,4.7422,4.7422,4.7441,4.7109,4.6543,4.6328,4.6328,4.6308,4.6308,4.6308,4.6308,4.6308,4.6308,4.6308,4.6308,4.6308,4.6308,4.6308,4.6269,4.6211,4.6191,4.6055,4.5683,4.5918,4.6016,4.5664,4.584,4.5879,4.541,4.5488,4.5859,4.6035,4.623,4.6074,4.5781,4.5664,4.541,4.5078,4.4707,4.4375,4.4355,4.3984,4.3789,4.375,4.3691,4.3691,4.3691,4.3691,4.3672,4.3652,4.3535,4.3203,5.457,5.4785,5.4785,5.4785,5.4785,5.4785,5.4648,5.4414,5.4414,5.4277,5.3992,5.3972,5.3972,5.3972,5.3972,5.3972,5.3972,5.3972,5.3972,5.3972,5.3972,5.3972,5.3972,5.3972,5.3972,5.3972,5.3848,5.375,5.373,5.3574,5.3496,5.3457,5.3242,5.3105,5.3047,5.2422,5.209,5.2051,5.1484,5.0976,5.0547,5.0137,4.9785,4.9512,4.9082,4.8698,4.8242,4.8164,4.7975,4.7637,4.7969,4.8047,4.7715,4.793,4.8008,4.7838,4.7168,4.6875,4.7051,4.7148,4.7305,4.7603,4.7623,4.7623,4.7623,4.7623,4.7402,4.7109,4.6816,4.6635,4.666,4.6465,4.6308,4.6308,4.6308,4.6308,4.6308,4.6308,4.6308,4.6308,4.6308,4.6308,4.6308,4.6308,4.623,4.6074,4.6211,4.6133,4.5781,4.584,4.5762,4.5566,4.5762,4.582,4.5742,4.6016,4.6152,4.6113,4.6035,4.5898,4.5508,4.5312,4.5098,4.4824,4.4394,4.4141,4.4141,4.3848,4.3691,4.3691,4.3691,4.3691,4.3691,4.3691,4.3496,5.4922,5.5293,5.543,5.5488,5.5488,5.5605,5.5351,5.4883,5.4844,5.4551,5.3992,5.3972,5.3972,5.3972,5.3972,5.3972,5.3972,5.3972,5.3972,5.3972,5.3972,5.3972,5.3972,5.3972,5.3972,5.3972,5.3972,5.3972,5.3972,5.3972,5.3972,5.3914,5.3711,5.3555,5.3476,5.2793,5.2363,5.2226,5.1836,5.1406,5.0996,5.0683,5.0215,4.957,4.9101,4.8757,4.8398,4.8086,4.7975,4.7949,4.834,4.8516,4.8418,4.8906,4.9206,4.9023,4.8457,4.8105,4.8105,4.793,4.791,4.8086,4.8105,4.8066,4.7969,4.793,4.793,4.791,4.7539,4.7266,4.707,4.6836,4.666,4.6641,4.6562,4.6484,4.6484,4.6387,4.6308,4.6308,4.6308,4.6308,4.6308,4.6308,4.6289,4.6289,4.6289,4.6211,4.5937,4.5879,4.5859,4.5859,4.6211,4.6152,4.5586,4.6035,4.6387,4.6308,4.6269,4.6172,4.5879,4.5801,4.5644,4.5195,4.4824,4.459,4.4531,4.4219,4.3808,4.373,4.3711,4.3711,4.3691,4.3691,4.3691,5.4922,5.5371,5.5742,5.5957,5.5885,5.6367,5.6055,5.5332,5.5312,5.4844,5.4141,5.4031,5.3992,5.4031,5.407,5.3992,5.3972,5.3972,5.3972,5.3972,5.3972,5.3972,5.3972,5.3972,5.3972,5.3972,5.3972,5.3972,5.3972,5.3972,5.3972,5.3972,5.3933,5.3933,5.3887,5.3457,5.3136,5.2676,5.2266,5.1836,5.1416,5.1319,5.0733,4.9726,4.9187,4.8972,4.8894,4.8874,4.8855,4.8855,4.9219,4.9297,4.9031,4.9668,4.9941,4.957,4.9453,4.9367,4.9453,4.9668,4.9726,4.9473,4.9289,4.9238,4.8894,4.8815,4.8796,4.8815,4.8359,4.7969,4.7701,4.7461,4.7422,4.7402,4.7109,4.6889,4.6894,4.6562,4.6348,4.6328,4.6328,4.6308,4.6308,4.6308,4.6308,4.6308,4.6308,4.6269,4.623,4.623,4.623,4.6308,4.6543,4.6694,4.6367,4.6484,4.6557,4.6504,4.6387,4.6289,4.6152,4.5996,4.5781,4.5586,4.5234,4.5019,4.4941,4.4629,4.418,4.3945,4.3769,4.373,4.3691,4.3691,4.3691,5.6308,5.6953,5.7109,5.7168,5.7187,5.7344,5.6914,5.6133,5.6133,5.5644,5.4941,5.4844,5.4844,5.4844,5.4844,5.4551,5.4011,5.3972,5.3972,5.3972,5.3972,5.3972,5.3972,5.3972,5.3972,5.3972,5.3972,5.3972,5.3972,5.3972,5.3972,5.3972,5.3972,5.3972,5.3894,5.3594,5.3312,5.3105,5.2695,5.2285,5.1894,5.1855,5.1484,5.0781,5.0332,4.998,4.9754,4.9754,4.957,4.9297,4.9961,5.0273,5.0176,5.0644,5.0781,5.041,5.0351,5.0234,5.0,5.0078,5.0164,4.998,4.9941,4.9836,4.9687,4.9453,4.9297,4.9106,4.884,4.86,4.8385,4.793,4.7578,4.7603,4.7461,4.7344,4.7266,4.6973,4.6655,4.666,4.6484,4.6308,4.6308,4.6308,4.6308,4.6308,4.6308,4.6308,4.6308,4.6308,4.6308,4.6426,4.6875,4.7187,4.6777,4.6797,4.6836,4.6699,4.6562,4.6387,4.623,4.6191,4.6035,4.5957,4.5664,4.543,4.5312,4.4902,4.4473,4.4258,4.4062,4.3292,4.3691,4.2965,4.3154,5.7378,5.7906,5.8008,5.8086,5.8086,5.8223,5.7793,5.7051,5.6992,5.6523,5.5801,5.5586,5.5508,5.5488,5.5371,5.5019,5.4402,5.4265,5.4238,5.4219,5.4101,5.3972,5.3972,5.3972,5.3972,5.3972,5.3972,5.3972,5.3972,5.3972,5.3972,5.3972,5.3972,5.3972,5.3914,5.3711,5.3516,5.3359,5.3203,5.293,5.2558,5.2637,5.2578,5.2266,5.1855,5.1289,5.0625,5.0449,5.0254,5.0058,5.0488,5.0859,5.1016,5.1289,5.126,5.1006,5.0996,5.0898,5.0644,5.0586,5.0527,5.0343,4.9521,4.9034,4.8833,4.7787,4.719,4.7002,4.6835,4.666,4.6484,4.5918,4.6303,4.7534,4.7871,4.7793,4.7754,4.7266,4.685,4.668,4.6465,4.6328,4.6308,4.6308,4.6308,4.6308,4.6308,4.6308,4.6308,4.6308,4.6465,4.6699,4.7187,4.7578,4.7558,4.7637,4.7187,4.6953,4.6738,4.6543,4.6308,4.6308,4.6289,4.625,4.6113,4.5879,4.5547,4.5156,4.4778,4.4502,4.327,4.2228,4.2115,4.163,4.1653,5.7926,5.7988,5.8359,5.8535,5.8574,5.8906,5.8633,5.789,5.7887,5.7344,5.6601,5.6191,5.6074,5.5898,5.5683,5.5371,5.5254,5.4922,5.4726,5.4648,5.4277,5.4031,5.4031,5.3992,5.3972,5.3972,5.3972,5.3972,5.3972,5.3972,5.3972,5.3972,5.3972,5.3972,5.3972,5.3914,5.3789,5.3555,5.373,5.373,5.3507,5.3672,5.3777,5.3758,5.3437,5.2695,5.1562,5.1113,5.0898,5.082,5.0879,5.1035,5.1387,5.1445,5.1377,5.1338,5.1358,5.1358,5.1124,5.0988,5.0581,4.9683,4.8046,4.6546,4.602,4.4183,4.2837,4.2985,4.277,4.2342,4.2303,4.2233,4.3874,4.7782,4.794,4.7747,4.7975,4.748,4.6797,4.6504,4.6387,4.6328,4.6308,4.6308,4.6308,4.6308,4.6308,4.6308,4.6308,4.6308,4.666,4.7226,4.7519,4.7676,4.8125,4.8457,4.7793,4.7226,4.6992,4.6758,4.6426,4.6308,4.6308,4.6269,4.6269,4.6055,4.5662,4.5187,4.4458,4.389,4.2486,4.0921,4.0332,3.9848,3.9458,5.8496,5.8825,5.8926,5.8984,5.8984,5.914,5.8848,5.834,5.832,5.7988,5.75,5.7324,5.7109,5.6836,5.666,5.6445,5.6152,5.5742,5.539,5.5045,5.4687,5.4473,5.4433,5.418,5.3972,5.3972,5.3972,5.3972,5.3972,5.3972,5.3972,5.3972,5.3972,5.3972,5.3972,5.3972,5.3926,5.3867,5.3894,5.3945,5.3828,5.3945,5.3972,5.3953,5.3887,5.3594,5.3223,5.2519,5.1992,5.1719,5.1953,5.2051,5.1875,5.1582,5.1397,5.1397,5.1397,5.0413,4.8903,4.8589,4.7775,4.6094,4.4812,4.436,4.4174,4.304,4.2276,4.2293,4.2195,4.1932,4.1867,4.1702,4.2845,4.5857,4.6066,4.669,4.7807,4.7832,4.7519,4.6894,4.6738,4.6621,4.6343,4.6201,4.6114,4.6308,4.6308,4.6308,4.6308,4.6308,4.6484,4.7031,4.7344,4.7567,4.7648,4.7761,4.7499,4.7063,4.6894,4.687,4.6582,4.6265,4.6308,4.5744,4.5851,4.5554,4.525,4.4622,4.3503,4.2302,4.0579,3.939,3.8593,3.7825,3.7095,5.8926,5.918,5.9199,5.9199,5.9199,5.9199,5.9023,5.8789,5.8769,5.8613,5.8414,5.8164,5.7969,5.7676,5.7363,5.707,5.6777,5.6367,5.5432,5.4431,5.4824,5.487,5.4844,5.4473,5.416,5.3992,5.3972,5.3972,5.3972,5.3972,5.3972,5.3972,5.3972,5.3972,5.3972,5.3972,5.3972,5.3972,5.3972,5.3972,5.3972,5.3972,5.3972,5.3972,5.3972,5.3442,5.2596,5.1878,5.1946,5.2219,5.1789,5.1055,5.0709,4.94,4.8563,4.8576,4.8366,4.7514,4.6103,4.5853,4.5251,4.3571,4.2404,4.1793,4.1557,4.0857,3.9928,3.9882,3.949,3.9394,3.9271,3.9154,4.0077,4.2015,4.3075,4.4158,4.5553,4.5519,4.4893,4.4042,4.3894,4.4357,4.4781,4.4914,4.5392,4.5939,4.6308,4.6308,4.6308,4.6308,4.6229,4.64,4.6915,4.7016,4.6898,4.6939,4.7004,4.6877,4.6722,4.6778,4.6758,4.6382,4.6201,4.4233,4.3638,4.2461,4.2005,4.1666,4.0837,3.962,3.8646,3.7419,3.6313,3.4811,3.4184,5.9031,5.9219,5.9014,5.8997,5.9258,5.9258,5.9219,5.916,5.8749,5.8523,5.8557,5.7873,5.7624,5.7506,5.6519,5.6244,5.6403,5.5478,5.3883,5.2724,5.33,5.4283,5.4974,5.4746,5.4394,5.4031,5.3972,5.3819,5.3269,5.3269,5.3595,5.2858,5.2634,5.3288,5.2685,5.3288,5.2839,5.2634,5.2961,5.291,5.2961,5.3115,5.3064,5.3012,5.2839,5.1824,4.9866,4.9464,5.0425,5.2075,4.9694,4.8322,4.7789,4.5431,4.4409,4.4546,4.3702,4.362,4.3266,4.3132,4.2709,4.1946,4.0183,3.9063,3.8804,3.7401,3.6213,3.6108,3.5885,3.5555,3.5442,3.5371,3.6172,3.748,4.0141,4.1424,4.0805,4.0993,4.1228,4.0393,3.971,4.0204,4.2317,4.2407,4.3415,4.4693,4.5392,4.5612,4.5612,4.5249,4.5064,4.5288,4.5619,4.5068,4.4548,4.4634,4.4663,4.4598,4.4572,4.4604,4.4942,4.4686,4.4454,4.2577,4.1079,3.9857,3.9204,3.9167,3.8877,3.8159,3.6936,3.541,3.4026,3.2794,3.2373,5.7457,5.9329,5.7434,5.774,5.9499,5.9648,5.9341,5.8863,5.6591,5.5722,5.5611,5.5261,5.375,5.1648,5.3289,5.2597,5.0988,5.0316,4.9768,4.9015,4.9265,5.1798,5.4232,5.4694,5.4247,5.3775,5.3339,5.291,5.0959,5.0837,4.9884,4.7773,4.8193,4.7983,4.772,4.8036,4.7703,4.7756,4.7826,4.7931,4.7983,4.7983,4.7703,4.772,4.7931,4.7562,4.6701,4.6631,4.6773,4.739,4.6506,4.578,4.5695,4.4457,4.3585,4.3588,4.3466,4.2603,4.1023,4.0476,3.9492,3.7534,3.7092,3.6268,3.6268,3.5651,3.5204,3.5204,3.5191,3.5164,3.5057,3.4883,3.4999,3.5304,3.8393,4.0689,4.0671,4.0991,4.0809,4.0302,3.9785,3.9782,4.0021,4.0146,4.0356,4.1321,4.255,4.3593,4.3593,4.3615,4.318,4.315,4.3175,4.2508,4.208,4.2141,4.2127,4.2039,4.1638,4.0969,4.1086,4.0877,4.0627,3.9812,3.8885,3.7757,3.7712,3.7725,3.7206,3.6282,3.4845,3.3205,3.2524,3.1519,3.1386,5.4155,5.5877,5.4193,5.4468,5.5859,5.5974,5.5813,5.5198,5.3614,5.2626,5.2453,5.2261,5.096,4.9274,5.0452,4.9963,4.8059,4.7654,4.699,4.5772,4.5797,4.7931,5.0598,5.1375,5.1046,5.0644,5.0514,4.9467,4.8176,4.7913,4.6948,4.6012,4.5534,4.5534,4.58,4.5534,4.5481,4.5587,4.5534,4.5534,4.5534,4.5534,4.5587,4.5534,4.5481,4.5145,4.3933,4.2535,4.2804,4.4473,4.4205,4.331,4.3119,4.172,4.1036,4.0952,4.0717,3.9709,3.861,3.7919,3.7027,3.5761,3.5284,3.5204,3.5243,3.5204,3.5204,3.5204,3.5204,3.5204,3.5151,3.4937,3.4563,3.4595,3.6535,3.8086,3.7983,3.7708,3.7703,3.7399,3.7128,3.7363,3.771,3.7658,3.8081,3.8993,4.0356,4.0898,4.1096,4.1127,4.1023,4.0752,4.0859,4.0468,3.9708,3.9497,3.945,3.9339,3.8352,3.7695,3.8155,3.7881,3.7528,3.7298,3.656,3.5974,3.5742,3.5338,3.442,3.337,3.2138,3.186,3.1497,3.1289,3.1022,5.0233,5.0766,5.0441,5.0501,5.1005,5.0826,5.1281,5.0568,5.0105,4.9673,4.9412,4.9298,4.8464,4.8388,4.7753,4.7779,4.6985,4.6058,4.48,4.3405,4.2889,4.4091,4.586,4.7386,4.7255,4.6798,4.5769,4.553,4.5231,4.5055,4.4735,4.3879,4.3986,4.4361,4.3611,4.404,4.4505,4.3933,4.3611,4.3557,4.3557,4.3557,4.345,4.3503,4.3557,4.2643,4.0739,3.902,3.9349,4.4307,4.2119,4.0858,4.0354,3.7934,3.7046,3.7074,3.7182,3.6747,3.6275,3.6221,3.5765,3.5551,3.5338,3.5204,3.5204,3.5204,3.5204,3.5204,3.5204,3.5204,3.5164,3.4963,3.471,3.4492,3.4452,3.3953,3.3547,3.3427,3.3307,3.3053,3.2969,3.3699,3.4655,3.5388,3.5694,3.6159,3.759,3.851,3.8729,3.883,3.8381,3.7707,3.8018,3.8571,3.7688,3.6869,3.6726,3.6485,3.5124,3.4617,3.6011,3.5941,3.5228,3.4686,3.4327,3.3685,3.3008,3.2361,3.2043,3.1995,3.1853,3.1772,3.1684,3.1476,3.1249,4.8788,5.0981,4.8783,4.9163,5.0997,5.1145,5.0871,5.0245,4.7868,4.6781,4.6476,4.6141,4.4447,4.2079,4.4073,4.3704,4.1845,4.1699,4.0719,4.0165,3.9757,3.9892,4.1574,4.4405,4.6216,4.5688,4.5744,4.4457,4.2736,4.1972,4.0942,3.924,3.9554,3.8856,3.913,3.9499,3.876,3.8815,3.8966,3.924,3.9349,3.9294,3.9294,3.924,3.9185,3.8705,3.8059,3.7259,3.7522,3.828,3.8376,3.817,3.7936,3.7302,3.6821,3.6699,3.6567,3.6406,3.6326,3.5979,3.5645,3.5658,3.5431,3.5204,3.5204,3.5204,3.5204,3.5204,3.5204,3.5204,3.5191,3.5151,3.4937,3.4656,3.4376,3.4082,3.3814,3.3547,3.3374,3.3267,3.3089,3.3004,3.3326,3.3236,3.3462,3.3723,3.4712,3.6017,3.6403,3.6524,3.6193,3.5614,3.5588,3.6148,3.5901,3.5217,3.514,3.4942,3.3598,3.2683,3.4078,3.4186,3.361,3.2955,3.2266,3.1772,3.1724,3.1724,3.1853,3.1772,3.1724,3.1724,3.1698,3.1557,3.149,4.5372,4.6802,4.5394,4.5662,4.6925,4.7019,4.6839,4.6278,4.4854,4.3837,4.3539,4.3167,4.1823,4.018,4.142,4.102,3.9753,3.9359,3.9225,3.9017,3.8843,3.8731,3.8994,4.1231,4.2817,4.2377,4.1921,4.0793,3.9742,3.927,3.8486,3.7038,3.6885,3.7259,3.6885,3.6885,3.7093,3.7149,3.6885,3.6885,3.6885,3.6885,3.6885,3.6885,3.6885,3.6885,3.6941,3.6941,3.6885,3.6885,3.6885,3.6885,3.6885,3.6885,3.6885,3.6845,3.6821,3.67,3.6525,3.6326,3.6059,3.6019,3.5658,3.5458,3.5351,3.5284,3.5204,3.5204,3.5204,3.5204,3.5204,3.5191,3.5057,3.4842,3.4496,3.4215,3.3921,3.3601,3.3414,3.336,3.3133,3.2902,3.2621,3.2353,3.2155,3.2808,3.296,3.406,3.4088,3.4273,3.4551,3.4192,3.3759,3.3724,3.3783,3.3737,3.386,3.3796,3.3422,3.2853,3.3344,3.2872,3.2076,3.1831,3.1764,3.1724,3.1724,3.1724,3.1724,3.1724,3.1724,3.1724,3.1711,3.1657,3.1583,4.1991,4.2218,4.2218,4.2218,4.2218,4.2394,4.2436,4.2122,4.1857,4.2004,4.135,4.1069,4.0966,4.0448,4.0308,4.0007,3.972,3.9386,3.9185,3.9012,3.874,3.8731,3.8936,3.9229,3.9395,3.8334,3.8502,3.7935,3.7706,3.7141,3.7395,3.6899,3.6885,3.6885,3.6885,3.6885,3.6885,3.6885,3.6885,3.6885,3.6885,3.6885,3.6885,3.6885,3.6885,3.6885,3.6885,3.6885,3.6885,3.6885,3.6885,3.6885,3.6885,3.6885,3.6885,3.6885,3.6845,3.6832,3.6779,3.6633,3.6446,3.6487,3.5952,3.5658,3.5551,3.5364,3.5231,3.5204,3.5204,3.5204,3.5204,3.5204,3.5084,3.4843,3.4549,3.4229,3.3961,3.3641,3.344,3.3387,3.324,3.3,3.2714,3.2407,3.2099,3.1851,3.2011,3.2185,3.2358,3.2594,3.3268,3.3633,3.3426,3.3343,3.3387,3.3414,3.3374,3.332,3.3173,3.3066,3.2919,3.2519,3.2118,3.1851,3.1757,3.1751,3.1724,3.1724,3.1724,3.1724,3.1724,3.1724,3.1724,3.1724,3.1698,4.2178,4.2218,4.2218,4.2218,4.2218,4.2218,4.2178,4.2151,4.2098,4.1831,4.1301,4.1208,4.0741,4.0348,4.0361,4.0348,4.008,3.9693,3.9426,3.9239,3.8945,3.8718,3.8718,3.8718,3.8678,3.8584,3.8237,3.7933,3.7489,3.7328,3.7141,3.6939,3.6885,3.6885,3.6885,3.6885,3.6885,3.6885,3.6885,3.6885,3.6885,3.6885,3.6885,3.6885,3.6885,3.6885,3.6885,3.6885,3.6885,3.6885,3.6885,3.6885,3.6885,3.6885,3.6885,3.6885,3.6885,3.6885,3.6845,3.6687,3.654,3.638,3.6019,3.5631,3.5591,3.5391,3.5257,3.5204,3.5204,3.5204,3.5204,3.5204,3.5191,3.5004,3.4656,3.4309,3.4148,3.3774,3.3427,3.34,3.3293,3.316,3.2848,3.2567,3.238,3.2171,3.2225,3.2452,3.2692,3.2839,3.3175,3.3363,3.341,3.3387,3.3414,3.3414,3.34,3.34,3.3293,3.3213,3.3013,3.2768,3.2447,3.2131,3.1851,3.1738,3.1724,3.1724,3.1724,3.1724,3.1724,3.1724,3.1724,3.1724,3.1724,4.2218,4.2218,4.2218,4.2218,4.2218,4.2218,4.2124,4.2004,4.1978,4.175,4.1341,4.1114,4.0909,4.0561,4.0441,4.0334,4.0,3.9773,3.9439,3.9145,3.8851,3.8718,3.8718,3.8718,3.8718,3.8678,3.8531,3.8183,3.7635,3.7435,3.7235,3.6952,3.6885,3.6885,3.6885,3.6885,3.6885,3.6885,3.6885,3.6885,3.6885,3.6885,3.6885,3.6885,3.6885,3.6885,3.6885,3.6885,3.6885,3.6885,3.6885,3.6885,3.6885,3.6885,3.6885,3.6885,3.6885,3.6885,3.6885,3.6794,3.6754,3.6645,3.6313,3.6019,3.5832,3.5618,3.5351,3.5231,3.5204,3.5204,3.5204,3.5204,3.5204,3.5097,3.467,3.4376,3.4189,3.3748,3.3534,3.3427,3.3387,3.3227,3.2946,3.2768,3.2599,3.2532,3.2492,3.2692,3.2973,3.3106,3.3227,3.3293,3.3414,3.3414,3.3414,3.3414,3.3414,3.3414,3.34,3.3307,3.3146,3.2902,3.2661,3.2433,3.2152,3.1805,3.1724,3.1724,3.1724,3.1724,3.1724,3.1724,3.1724,3.1724,3.1724,4.2218,4.2218,4.2218,4.2218,4.2205,4.2151,4.2004,4.1804,4.1724,4.1523,4.1243,4.1016,4.0882,4.0762,4.0535,4.0201,3.9693,3.9653,3.9332,3.89,3.8713,3.8718,3.8718,3.8718,3.8718,3.8718,3.8691,3.8437,3.7956,3.7635,3.7328,3.7114,3.6952,3.6885,3.6885,3.6885,3.6885,3.6885,3.6885,3.6885,3.6885,3.6885,3.6885,3.6885,3.6885,3.6885,3.6885,3.6885,3.6885,3.6885,3.6885,3.6885,3.6885,3.6885,3.6885,3.6885,3.6885,3.6885,3.6885,3.6885,3.6845,3.6819,3.6647,3.6366,3.6032,3.5698,3.5418,3.5257,3.5204,3.5204,3.5204,3.5204,3.5204,3.5084,3.471,3.4282,3.4162,3.3868,3.3574,3.3494,3.348,3.3374,3.3173,3.3053,3.2959,3.2866,3.2826,3.2879,3.3133,3.3253,3.3347,3.3374,3.3414,3.3414,3.3414,3.3414,3.3414,3.3414,3.3414,3.336,3.32,3.3036,3.2822,3.2581,3.2158,3.1851,3.1805,3.1724,3.1724,3.1724,3.1724,3.1724,3.1724,3.1724,3.1724,4.2218,4.2218,4.2218,4.2218,4.2178,4.1964,4.1831,4.175,4.1497,4.1229,4.0962,4.0909,4.0748,4.0588,4.0521,4.0281,3.996,3.9693,3.9386,3.8953,3.8753,3.8718,3.8718,3.8718,3.8718,3.8704,3.8691,3.8531,3.817,3.7863,3.7595,3.7315,3.7048,3.6885,3.6885,3.6885,3.6885,3.6885,3.6885,3.6885,3.6885,3.6885,3.6885,3.6885,3.6885,3.6885,3.6885,3.6885,3.6885,3.6885,3.6885,3.6885,3.6885,3.6885,3.6885,3.6885,3.6885,3.6885,3.6885,3.6885,3.6885,3.6845,3.67,3.638,3.6046,3.5605,3.5271,3.5231,3.5204,3.5204,3.5204,3.5204,3.5204,3.5004,3.4683,3.4416,3.4255,3.3948,3.3654,3.3801,3.3868,3.3721,3.3521,3.3427,3.3334,3.324,3.3173,3.3213,3.3253,3.336,3.3414,3.3414,3.3414,3.3414,3.3414,3.3414,3.3414,3.3414,3.3414,3.34,3.3267,3.3093,3.2915,3.2634,3.2225,3.1944,3.1837,3.1757,3.1751,3.1724,3.1724,3.1724,3.1724,3.1724,3.1724,4.1911,4.2218,4.2218,4.2218,4.2178,4.1911,4.1684,4.1497,4.1229,4.0935,4.0695,4.0655,4.0588,4.0495,4.0481,4.0214,3.9853,3.9653,3.9332,3.8998,3.8798,3.8718,3.8718,3.8718,3.8718,3.8678,3.8544,3.841,3.8183,3.7956,3.7662,3.7382,3.7101,3.6885,3.6885,3.6885,3.6885,3.6885,3.6885,3.6885,3.6885,3.6885,3.6885,3.6885,3.6885,3.6885,3.6885,3.6885,3.6885,3.6885,3.6885,3.6885,3.6885,3.6885,3.6885,3.6885,3.6885,3.6885,3.6885,3.6885,3.6885,3.6872,3.678,3.6567,3.6099,3.5565,3.5204,3.5204,3.5204,3.5204,3.5204,3.5204,3.5204,3.5044,3.4696,3.4603,3.4389,3.4002,3.3801,3.4042,3.4242,3.4135,3.3975,3.3788,3.3694,3.3601,3.3427,3.3307,3.3334,3.3374,3.3414,3.3414,3.3414,3.3414,3.3414,3.3414,3.3414,3.3414,3.3414,3.3387,3.3347,3.3173,3.3009,3.2755,3.2372,3.2131,3.1944,3.1784,3.1738,3.1724,3.1724,3.1724,3.1724,3.1724,3.1724,4.1817,4.2205,4.2058,4.2084,4.2178,4.1831,4.155,4.1261,4.1042,4.0748,4.0535,4.0495,4.0495,4.0481,4.0441,4.0214,3.9733,3.9626,3.9292,3.8958,3.8758,3.8718,3.8718,3.8718,3.8718,3.8718,3.8424,3.8361,3.8214,3.7889,3.7569,3.7382,3.7088,3.6899,3.6885,3.6885,3.6885,3.6885,3.6885,3.6885,3.6885,3.6885,3.6885,3.6885,3.6885,3.6885,3.6885,3.6885,3.6885,3.6885,3.6885,3.6885,3.6885,3.6885,3.6885,3.6885,3.6885,3.6885,3.6885,3.6885,3.6885,3.6845,3.6727,3.6433,3.6112,3.5551,3.5204,3.5204,3.5204,3.5204,3.5204,3.5204,3.5204,3.5044,3.4776,3.4736,3.4681,3.4255,3.4095,3.4336,3.4549,3.471,3.4509,3.4202,3.4042,3.3948,3.3748,3.3467,3.3414,3.3414,3.3414,3.3414,3.3414,3.3414,3.3414,3.3414,3.3414,3.3414,3.3414,3.34,3.336,3.3267,3.3106,3.2826,3.2545,3.2398,3.2265,3.2005,3.1724,3.1724,3.1724,3.1724,3.1724,3.1724,3.1724,4.2178,4.2165,4.1617,4.1724,4.2165,4.1554,4.1301,4.1221,4.1016,4.0735,4.0495,4.0481,4.0481,4.0481,4.0441,4.0281,3.99,3.972,3.9372,3.902,3.882,3.8713,3.8713,3.8726,3.8758,3.8731,3.845,3.8334,3.816,3.7662,3.7462,3.7342,3.7088,3.6925,3.6885,3.6885,3.6885,3.6885,3.6885,3.6885,3.6885,3.6885,3.6885,3.6885,3.6885,3.6885,3.6885,3.6885,3.6885,3.6885,3.6885,3.6885,3.6885,3.6885,3.6885,3.6885,3.6885,3.6885,3.6885,3.6885,3.6885,3.6794,3.6527,3.6219,3.6059,3.5538,3.5244,3.5204,3.5204,3.5204,3.5204,3.5204,3.5204,3.5151,3.4977,3.4883,3.4763,3.4536,3.4429,3.4656,3.4817,3.4937,3.4817,3.4456,3.4229,3.4122,3.3694,3.3414,3.3414,3.3414,3.3414,3.3414,3.3414,3.3414,3.3414,3.3414,3.3414,3.3414,3.3414,3.3414,3.34,3.3293,3.3213,3.3066,3.2839,3.2768,3.2594,3.2273,3.1979,3.1805,3.1724,3.1724,3.1724,3.1724,3.1724,4.1256,4.1363,4.0976,4.1243,4.1924,4.151,4.1181,4.1042,4.0775,4.0601,4.0481,4.0481,4.0481,4.0481,4.0441,4.0201,3.98,3.968,3.9332,3.894,3.8713,3.8766,3.8846,3.8926,3.9078,3.9038,3.8638,3.8384,3.845,3.7649,3.7355,3.7221,3.7101,3.6925,3.6885,3.6885,3.6885,3.6885,3.6885,3.6885,3.6885,3.6885,3.6885,3.6885,3.6885,3.6885,3.6885,3.6885,3.6885,3.6885,3.6885,3.6885,3.6885,3.6885,3.6885,3.6885,3.6885,3.6885,3.6885,3.6885,3.6885,3.6765,3.6446,3.6126,3.6086,3.5525,3.5257,3.5204,3.5204,3.5204,3.5204,3.5204,3.5231,3.5271,3.5217,3.5084,3.495,3.4711,3.4644,3.4897,3.499,3.5097,3.4897,3.4643,3.4456,3.4255,3.3788,3.3414,3.3414,3.3414,3.3414,3.3414,3.3414,3.3414,3.3414,3.3414,3.3414,3.3414,3.3414,3.3414,3.3414,3.34,3.332,3.32,3.3106,3.2946,3.2781,3.25,3.2246,3.2005,3.1831,3.1724,3.1724,3.1724,3.1724,4.0855,4.1016,4.0815,4.1082,4.1577,4.1336,4.1096,4.0895,4.0708,4.0548,4.0481,4.0481,4.0481,4.0481,4.0468,4.0321,3.9974,3.9773,3.9439,3.9159,3.8926,3.8886,3.8953,3.9033,3.9132,3.9185,3.8851,3.8517,3.8464,3.7622,3.7462,3.7422,3.7235,3.7032,3.6885,3.6885,3.6885,3.6885,3.6885,3.6885,3.6885,3.6885,3.6885,3.6885,3.6885,3.6885,3.6885,3.6885,3.6885,3.6885,3.6885,3.6885,3.6885,3.6885,3.6885,3.6885,3.6885,3.6885,3.6885,3.6885,3.6885,3.6819,3.6406,3.6139,3.5993,3.5551,3.5231,3.5204,3.5204,3.5204,3.5217,3.5284,3.5391,3.5471,3.5378,3.5257,3.5271,3.5151,3.5097,3.511,3.5164,3.5164,3.495,3.467,3.4242,3.4042,3.3694,3.3414,3.3414,3.3414,3.3414,3.3414,3.3414,3.3414,3.3414,3.3414,3.3414,3.3414,3.3414,3.3414,3.3414,3.3414,3.3414,3.3334,3.3227,3.3133,3.2973,3.2772,3.2465,3.2144,3.1979,3.1751,3.1724,3.1724,3.1724,4.1221,4.1274,4.1208,4.1221,4.1234,4.1042,4.0922,4.0869,4.0829,4.0695,4.0495,4.0481,4.0481,4.0481,4.0481,4.0374,4.0241,4.0054,3.9786,3.9466,3.9167,3.8966,3.898,3.9073,3.9273,3.8865,3.8718,3.8611,3.8495,3.7889,3.7769,3.7716,3.7515,3.7221,3.6912,3.6885,3.6885,3.6885,3.6885,3.6925,3.6885,3.6885,3.6885,3.6885,3.6885,3.6885,3.6885,3.6885,3.6885,3.6885,3.6885,3.6885,3.6885,3.6885,3.6885,3.6885,3.6885,3.6885,3.6885,3.6885,3.6885,3.6805,3.6406,3.6153,3.6006,3.5591,3.5204,3.5204,3.5204,3.5217,3.5297,3.5431,3.5551,3.5685,3.5605,3.5498,3.5511,3.5338,3.5231,3.5177,3.5177,3.5151,3.4963,3.467,3.4082,3.3734,3.3507,3.3414,3.3414,3.3414,3.3414,3.3414,3.3414,3.3414,3.3414,3.3414,3.3414,3.3414,3.3414,3.3414,3.3414,3.3414,3.3414,3.3414,3.336,3.3267,3.3213,3.3133,3.2772,3.2398,3.2019,3.1791,3.1751,3.1724,3.1724,4.0762,4.0762,4.0762,4.0762,4.0788,4.0882,4.0815,4.0642,4.0615,4.0561,4.0495,4.0481,4.0481,4.0481,4.0454,4.0388,4.0201,4.0134,3.988,3.9613,3.9479,3.9573,3.95,3.9586,3.972,3.968,3.9439,3.9092,3.9185,3.8357,3.8036,3.7983,3.7756,3.7408,3.7072,3.7061,3.7168,3.6965,3.7088,3.7155,3.6912,3.6885,3.6885,3.6885,3.6885,3.6885,3.6912,3.6925,3.6925,3.6925,3.6925,3.6912,3.6899,3.6885,3.6885,3.6899,3.6899,3.6885,3.6885,3.6885,3.6885,3.6754,3.6433,3.614,3.606,3.5525,3.5284,3.5217,3.5231,3.5297,3.5471,3.5498,3.5658,3.6046,3.6019,3.5832,3.5712,3.5391,3.5191,3.5191,3.5191,3.4937,3.4723,3.4603,3.4135,3.3774,3.3574,3.344,3.3414,3.3414,3.3414,3.3414,3.3414,3.3414,3.3414,3.3414,3.3414,3.3414,3.3414,3.3414,3.3414,3.3414,3.3414,3.3414,3.3414,3.34,3.332,3.3213,3.3,3.2701,3.2326,3.1979,3.1872,3.1805,3.1724,4.0481,4.0481,4.0481,4.0481,4.0508,4.0682,4.0642,4.0495,4.0481,4.0481,4.0481,4.0481,4.0481,4.0481,4.0454,4.0414,4.0187,4.0187,4.0027,3.9786,3.9746,3.976,3.984,4.0,3.992,4.0014,3.972,3.9372,3.9306,3.8544,3.8237,3.8157,3.7969,3.7555,3.7288,3.7248,3.7221,3.7005,3.7061,3.7088,3.6925,3.6885,3.6885,3.6885,3.6899,3.6925,3.7061,3.7088,3.7088,3.7088,3.7088,3.6979,3.6939,3.6899,3.6939,3.7048,3.7208,3.7126,3.7141,3.6912,3.6914,3.6727,3.6313,3.6059,3.5885,3.5458,3.5364,3.5311,3.5338,3.5511,3.5698,3.5752,3.5979,3.6313,3.6166,3.5965,3.5725,3.5391,3.5204,3.5204,3.5164,3.4843,3.4369,3.4402,3.4137,3.3921,3.3668,3.3359,3.3166,3.343,3.343,3.3467,3.3454,3.3454,3.344,3.3414,3.3414,3.3414,3.3414,3.3414,3.3414,3.3414,3.3414,3.3414,3.3414,3.34,3.3374,3.3253,3.3106,3.2933,3.2679,3.2393,3.2072,3.1952,3.1885,4.0481,4.0481,4.0481,4.0481,4.0481,4.0508,4.0555,4.0481,4.0481,4.0481,4.0481,4.0481,4.0481,4.0481,4.0481,4.0454,4.0441,4.0441,4.0267,4.0107,4.0054,3.9933,3.9893,3.9987,4.0014,3.9786,3.9546,3.9386,3.9113,3.87,3.8477,3.776,3.711,3.633,3.6011,3.5507,3.5966,3.6479,3.7061,3.7048,3.6912,3.6885,3.6885,3.6899,3.6994,3.7128,3.7248,3.7355,3.7382,3.7395,3.7395,3.7235,3.7032,3.6801,3.6987,3.6851,3.6719,3.6909,3.6778,3.6374,3.6887,3.6645,3.5823,3.5763,3.5752,3.5565,3.5538,3.5591,3.5645,3.5819,3.5965,3.6126,3.6286,3.6259,3.6112,3.5899,3.5658,3.5378,3.5257,3.5204,3.5204,3.4794,3.3889,3.3746,3.2852,3.2557,3.1918,3.1117,3.1412,3.3428,3.3452,3.3561,3.3547,3.3507,3.3507,3.3534,3.344,3.3454,3.3414,3.3414,3.3414,3.3414,3.3414,3.3414,3.3414,3.34,3.3387,3.3347,3.328,3.3106,3.2959,3.2741,3.2407,3.2286,3.2206,4.0481,4.0481,4.0481,4.0481,4.0481,4.0481,4.0481,4.0481,4.0481,4.0481,4.0481,4.0481,4.0481,4.0481,4.0481,4.0481,4.0481,4.0468,4.0428,4.0361,4.0294,4.0267,4.0254,4.0241,4.0147,3.9847,3.9561,3.8999,3.891,3.8618,3.6792,3.5452,3.4925,3.3634,3.2264,3.1088,3.3525,3.5433,3.618,3.6145,3.6246,3.6109,3.6165,3.6148,3.6262,3.6406,3.6566,3.6862,3.6971,3.7224,3.7463,3.7496,3.7539,3.5484,3.3773,3.1416,3.2654,3.4383,3.4639,3.609,3.6685,3.5527,3.4363,3.4683,3.5182,3.5469,3.5268,3.4836,3.505,3.518,3.5012,3.51,3.4991,3.4673,3.4695,3.4784,3.439,3.3744,3.3644,3.3642,3.3695,3.3098,3.2368,3.1595,3.0848,3.066,3.0164,2.9238,2.9629,3.1714,3.2889,3.295,3.3801,3.3814,3.3774,3.3788,3.3614,3.3494,3.348,3.3454,3.3414,3.3414,3.3414,3.3414,3.3414,3.3414,3.34,3.3374,3.3334,3.336,3.3227,3.3009,3.2768,3.2621,3.2433,4.0588,4.0481,4.0481,4.0481,4.0481,4.0481,4.0481,4.0481,4.0481,4.0481,4.0481,4.0481,4.0481,4.0481,4.0481,4.0481,4.0481,4.0481,4.0454,4.0454,4.0299,4.0441,4.0454,4.0166,4.0174,3.9634,3.8364,3.6996,3.6984,3.5407,3.3454,3.229,3.1855,3.0559,2.9389,2.926,3.0309,3.2113,3.3275,3.3517,3.3637,3.3637,3.3449,3.3734,3.3997,3.4098,3.422,3.4472,3.4406,3.4245,3.4188,3.4128,3.3931,3.201,3.1025,2.9303,3.0293,3.1348,3.1528,3.2434,3.3171,3.2884,3.1491,3.1275,3.2182,3.2816,3.2513,3.2287,3.3376,3.4107,3.3866,3.3641,3.3084,3.2543,3.2887,3.3281,3.2574,3.1712,3.154,3.1546,3.1165,3.0554,2.989,2.9194,2.8763,2.8572,2.8175,2.7461,2.812,3.0024,3.1155,3.1544,3.3071,3.4175,3.4019,3.3811,3.3868,3.3734,3.3681,3.3627,3.3494,3.3414,3.3414,3.3414,3.3414,3.3414,3.3414,3.3414,3.34,3.3414,3.3414,3.3227,3.2986,3.2875,3.2661,4.0748,4.0521,4.0481,4.0481,4.0481,4.0481,4.0286,4.0104,3.9787,4.0225,4.0407,4.0481,4.0481,4.0481,4.0481,4.0481,4.0481,4.0481,4.0481,4.0286,3.9409,3.9335,3.9192,3.9304,3.747,3.7197,3.6278,3.3978,3.315,3.1914,3.0541,2.893,2.8543,2.759,2.6542,2.6248,2.6632,2.699,2.768,2.7817,2.874,2.8449,2.8102,2.8592,2.8882,2.9019,2.9114,2.8972,2.8757,2.8874,2.903,2.93,2.8577,2.848,2.8208,2.7844,2.7942,2.8385,2.8624,2.9297,2.902,2.8502,2.728,2.7402,2.8404,3.0299,3.0388,3.0099,3.0922,3.0999,3.0766,3.0976,3.0729,3.0217,3.0178,3.0117,2.9482,2.877,2.8501,2.8565,2.8673,2.8018,2.7089,2.637,2.6221,2.6241,2.5189,2.4519,2.5535,2.7293,2.8629,2.9503,3.1681,3.3045,3.3395,3.3343,3.3982,3.4028,3.3908,3.3681,3.348,3.3427,3.3414,3.3414,3.3414,3.3414,3.3414,3.3414,3.3414,3.3414,3.3414,3.3414,3.3267,3.3053,3.2866,4.0869,4.0788,4.0561,4.0481,4.0481,4.0481,3.891,3.6784,3.6723,3.8031,4.0104,4.0286,4.0164,3.9665,3.9605,3.9605,3.9787,3.9044,4.0286,3.8957,3.7774,3.6687,3.603,3.4661,3.3292,3.1967,3.1091,3.0486,2.9657,2.8802,2.769,2.577,2.5261,2.4529,2.2691,2.2362,2.241,2.2646,2.2625,2.4441,2.6942,2.7869,2.8276,2.8104,2.8068,2.7835,2.809,2.8484,2.883,2.9107,2.9107,2.7891,2.5612,2.546,2.4178,2.2829,2.44,2.5161,2.5716,2.6442,2.6981,2.6664,2.5929,2.4837,2.522,2.744,2.8388,2.8035,2.7922,2.7814,2.7621,2.7968,2.8046,2.7622,2.7331,2.682,2.6225,2.5702,2.5271,2.5496,2.5767,2.517,2.4191,2.3829,2.3705,2.2599,2.0787,2.0094,2.1029,2.2592,2.4898,2.6408,2.9793,3.131,3.2007,3.2875,3.3434,3.3997,3.4042,3.3774,3.3444,3.3494,3.3521,3.344,3.3414,3.3414,3.3414,3.3414,3.3414,3.3414,3.3414,3.3414,3.3347,3.316,3.3026,4.0259,3.8544,3.6771,3.605,3.605,3.605,3.4921,3.3494,3.3309,3.4295,3.5866,3.605,3.6111,3.6111,3.605,3.6417,3.6356,3.5927,3.5424,3.4921,3.4706,3.3534,3.2031,3.078,3.0797,2.9633,2.768,2.6778,2.5755,2.4726,2.3411,2.2567,2.2173,2.1481,1.9515,1.944,1.9393,1.9593,1.9393,2.1511,2.4789,2.4695,2.4416,2.4459,2.4621,2.4835,2.4777,2.4914,2.488,2.4906,2.4537,2.4125,2.2559,2.2326,2.1502,2.0851,2.1381,2.225,2.2778,2.3656,2.4829,2.3923,2.3116,2.1429,2.1306,2.3095,2.321,2.3121,2.5047,2.5239,2.3858,2.3688,2.3346,2.2916,2.3588,2.3828,2.2748,2.1691,2.1486,2.1574,2.1767,2.1775,2.1059,2.0971,2.0855,2.0638,1.8509,1.8253,1.8752,1.9115,2.1107,2.3069,2.6317,2.9571,3.1224,3.213,3.2896,3.3447,3.3522,3.3682,3.3332,3.3529,3.3614,3.3179,3.31,3.3414,3.3414,3.3414,3.3414,3.3414,3.3414,3.3414,3.3334,3.328,3.32,3.8236,3.4907,3.1941,3.0605,3.0512,3.0574,3.0326,2.9891,2.9829,2.9527,2.9206,2.9216,2.9465,3.0398,3.0522,3.0522,3.1009,3.2258,3.1453,3.103,3.0227,2.9848,2.932,2.8494,2.7498,2.6491,2.4932,2.2766,2.0979,2.0858,2.0858,1.9908,1.9725,1.9718,1.9725,1.9718,1.9677,1.9664,1.9657,1.9691,1.9839,1.9542,2.0076,1.993,1.9583,1.9718,1.9779,1.9779,1.984,2.0144,2.0737,2.0676,2.0562,2.044,2.0258,1.9961,2.0022,2.0242,2.0048,2.0245,2.0081,1.9411,1.885,1.8885,1.8994,1.9103,1.9219,2.0074,2.2005,2.2253,2.0839,2.0041,1.9668,1.9517,2.0495,2.1261,1.9886,1.8698,1.8723,1.869,1.8852,1.9023,1.8901,1.8765,1.8605,1.8348,1.8199,1.8043,1.8087,1.8323,1.936,2.0529,2.2449,2.5698,2.8661,3.0273,3.0817,3.0956,3.1018,3.2221,3.293,3.2137,3.1997,3.255,3.2535,3.305,3.3364,3.3414,3.3414,3.3414,3.3414,3.3414,3.34,3.336,3.3374,3.2764,3.1651,3.0911,3.0487,3.0346,3.0326,2.8957,2.6663,2.6412,2.5039,2.3416,2.3108,2.4913,3.0388,3.0522,3.0015,2.8904,2.9331,3.0139,3.043,2.7331,2.646,2.5692,2.4545,2.2352,2.1788,2.1683,2.0522,1.9725,1.9725,1.9725,1.9725,1.9725,1.9725,1.9725,1.9725,1.9725,1.9725,1.9725,1.9725,1.9725,1.9684,1.9691,1.9698,1.9644,1.9725,1.9725,1.9725,1.9725,1.9725,1.9725,1.9725,1.9725,1.9725,1.9725,1.9725,1.9725,1.9576,1.944,1.9291,1.9142,1.9,1.8864,1.882,1.8878,1.8878,1.8922,1.8909,2.0131,1.9964,1.9078,1.8874,1.8552,1.8566,1.9165,1.9315,1.8712,1.856,1.8626,1.865,1.8762,1.8854,1.8888,1.8718,1.8623,1.843,1.8301,1.8138,1.7963,1.7936,1.7915,1.8729,1.9658,2.0795,2.3339,2.6563,2.762,2.7856,2.83,2.9198,2.9723,2.9702,2.9782,3.016,3.1756,3.2849,3.31,3.2849,3.3414,3.3414,3.3414,3.3414,3.3364,3.325,3.31]},{"header":{"parameterUnit":"m.s-1","parameterCategory":1,"la1":31.0,"la2":29.5877,"lo1":-88.7671,"lo2":-86.6584,"dx":0.0162,"dy":0.0185,"nx":115,"ny":88,"refTime":"2022-12-18T06:00:00:Z","depth":0,"parameterNumber":3,"parameterNumberName":"V-component_of_WINDS"},"data":[0.0,0.0,0.0,0.0,0.0,0.0,0.0,0.0,0.0,0.0,0.0,0.0,0.0,0.0,0.0,0.0,0.0,0.0,0.0,0.0,0.0,0.0,0.0,0.0,0.0,0.0,0.0,0.0,0.0,0.0,0.0,0.0,0.0,0.0,0.0,0.0,0.0,0.0,0.0,0.0,0.0,0.0,0.0,0.0,0.0,0.0,0.0,0.0,0.0,0.0,0.0,0.0,0.0,0.0,0.0,0.0,0.0,0.0,0.0,0.0,0.0,0.0,0.0,0.0,0.0,0.0,0.0,0.0,0.0,0.0,0.0,0.0,0.0,0.0,0.0,0.0,0.0,0.0,0.0,0.0,0.0,0.0,0.0,0.0,0.0,0.0,0.0,0.0,0.0,0.0,0.0,0.0,0.0,0.0,0.0,0.0,0.0,0.0,0.0,0.0,0.0,0.0,0.0,0.0,0.0,0.0,0.0,0.0,0.0,0.0,0.0,0.0,0.0,0.0,0.0,0.0,0.0,0.0,0.0,0.0,0.0,0.0,0.0,0.0,0.0,0.0,0.0,0.0,0.0,0.0,0.0,0.0,0.0,0.0,0.0,0.0,0.0,0.0,0.0,0.0,0.0,0.0,0.0,0.0,0.0,0.0,0.0,0.0,0.0,0.0,0.0,0.0,0.0,0.0,0.0,0.0,0.0,0.0,0.0,0.0,0.0,0.0,0.0,0.0,0.0,0.0,0.0,0.0,0.0,0.0,0.0,0.0,0.0,0.0,0.0,0.0,0.0,0.0,0.0,0.0,0.0,0.0,0.0,0.0,0.0,0.0,0.0,0.0,0.0,0.0,0.0,0.0,0.0,0.0,0.0,0.0,0.0,0.0,0.0,0.0,0.0,0.0,0.0,0.0,0.0,0.0,0.0,0.0,0.0,0.0,0.0,0.0,0.0,0.0,0.0,0.0,0.0,0.0,0.0,0.0,0.0,0.0,0.0,0.0,0.0,0.0,0.0,0.0,0.0,0.0,0.0,0.0,0.0,0.0,0.0,0.0,0.0,0.0,0.0,0.0,0.0,0.0,0.0,0.0,0.0,0.0,0.0,0.0,0.0,0.0,0.0,0.0,0.0,0.0,0.0,0.0,0.0,0.0,0.0,0.0,0.0,0.0,0.0,0.0,0.0,0.0,0.0,0.0,0.0,0.0,0.0,0.0,0.0,0.0,0.0,0.0,0.0,0.0,0.0,0.0,0.0,0.0,0.0,0.0,0.0,0.0,0.0,0.0,0.0,0.0,0.0,0.0,0.0,0.0,0.0,0.0,0.0,0.0,0.0,0.0,0.0,0.0,0.0,0.0,0.0,0.0,0.0,0.0,0.0,0.0,0.0,0.0,0.0,0.0,0.0,0.0,0.0,0.0,0.0,0.0,0.0,0.0,0.0,0.0,0.0,0.0,0.0,0.0,0.0,0.0,0.0,0.0,0.0,0.0,0.0,0.0,0.0,0.0,0.0,0.0,0.0,0.0,0.0,0.0,0.0,0.0,0.0,0.0,0.0,0.0,0.0,0.0,0.0,0.0,0.0,0.0,0.0,0.0,0.0,0.0,0.0,0.0,0.0,0.0,0.0,0.0,0.0,0.0,0.0,0.0,0.0,0.0,0.0,0.0,0.0,0.0,0.0,0.0,0.0,0.0,0.0,0.0,0.0,0.0,0.0,0.0,0.0,0.0,0.0,0.0,0.0,0.0,0.0,0.0,0.0,0.0,0.0,0.0,0.0,0.0,0.0,0.0,0.0,0.0,0.0,0.0,0.0,0.0,0.0,0.0,0.0,0.0,0.0,0.0,0.0,0.0,0.0,0.0,0.0,0.0,0.0,0.0,0.0,0.0,0.0,0.0,0.0,0.0,0.0,0.0,0.0,0.0,0.0,0.0,0.0,0.0,0.0,0.0,0.0,0.0,0.0,0.0,0.0,0.0,0.0,0.0,0.0,0.0,0.0,0.0,0.0,0.0,0.0,0.0,0.0,0.0,0.0,0.0,0.0,0.0,0.0,0.0,0.0,0.0,0.0,0.0,0.0,0.0,0.0,0.0,0.0,0.0,0.0,0.0,0.0,0.0,0.0,0.0,0.0,0.0,0.0,0.0,0.0,0.0,0.0,0.0,0.0,0.0,0.0,0.0,0.0,0.0,0.0,0.0,0.0,0.0,0.0,0.0,0.0,0.0,0.0,0.0,0.0,0.0,0.0,0.0,0.0,0.0,0.0,0.0,0.0,0.0,0.0,0.0,0.0,0.0,0.0,0.0,0.0,0.0,0.0,0.0,0.0,0.0,0.0,0.0,0.0,0.0,0.0,0.0,0.0,0.0,0.0,0.0,0.0,0.0,0.0,0.0,0.0,0.0,0.0,0.0,0.0,0.0,0.0,0.0,0.0,0.0,0.0,0.0,0.0,0.0,0.0,0.0,0.0,0.0,0.0,0.0,0.0,0.0,0.0,0.0,0.0,0.0,0.0,0.0,0.0,0.0,0.0,0.0,0.0,0.0,0.0,0.0,0.0,0.0,0.0,0.0,0.0,0.0,0.0,0.0,0.0,0.0,0.0,0.0,0.0,0.0,0.0,0.0,0.0,0.0,0.0,0.0,0.0,0.0,0.0,0.0,0.0,0.0,0.0,0.0,0.0,0.0,0.0,0.0,0.0,0.0,0.0,0.0,0.0,0.0,0.0,0.0,0.0,0.0,0.0,0.0,0.0,0.0,0.0,0.0,0.0,0.0,0.0,0.0,0.0,0.0,0.0,0.0,0.0,0.0,0.0,0.0,0.0,0.0,0.0,0.0,0.0,0.0,0.0,0.0,0.0,0.0,0.0,0.0,0.0,0.0,0.0,0.0,0.0,0.0,0.0,0.0,0.0,0.0,0.0,0.0,0.0,0.0,0.0,0.0,0.0,0.0,0.0,0.0,0.0,0.0,0.0,0.0,0.0,0.0,0.0,0.0,0.0,0.0,0.0,0.0,0.0,0.0,0.0,0.0,0.0,0.0,0.0,0.0,0.0,0.0,0.0,0.0,0.0,0.0,0.0,0.0,0.0,0.0,0.0,0.0,0.0,0.0,0.0,0.0,0.0,0.0,0.0,0.0,0.0,0.0,0.0,0.0,0.0,0.0,0.0,0.0,0.0,0.0,0.0,0.0,0.0,0.0,0.0,0.0,0.0,0.0,0.0,0.0,0.0,0.0,0.0,0.0,0.0,0.0,0.0,0.0,0.0,0.0,0.0,0.0,0.0,0.0,0.0,0.0,0.0,0.0,0.0,0.0,0.0,0.0,0.0,0.0,0.0,0.0,0.0,0.0,0.0,0.0,0.0,0.0,0.0,0.0,0.0,0.0,0.0,0.0,0.0,0.0,0.0,0.0,0.0,0.0,0.0,0.0,0.0,0.0,0.0,0.0,0.0,0.0,0.0,0.0,0.0,0.0,0.0,0.0,0.0,0.0,0.0,0.0,0.0,0.0,0.0,0.0,0.0,0.0,0.0,0.0,0.0,0.0,0.0,0.0,0.0,0.0,0.0,0.0,0.0,0.0,0.0,0.0,0.0,0.0,0.0,0.0,0.0,0.0,0.0,0.0,0.0,0.0,0.0,0.0,0.0,0.0,0.0,0.0,0.0,0.0,0.0,0.0,0.0,0.0,0.0,0.0,0.0,0.0,0.0,0.0,0.0,0.0,0.0,0.0,0.0,0.0,0.0,0.0,0.0,0.0,0.0,0.0,0.0,0.0,0.0,0.0,0.0,0.0,0.0,0.0,0.0,0.0,0.0,0.0,0.0,0.0,0.0,0.0,0.0,0.0,0.0,0.0,0.0,0.0,0.0,0.0,0.0,0.0,0.0,0.0,0.0,0.0,0.0,0.0,0.0,0.0,0.0,0.0,0.0,0.0,0.0,0.0,0.0,0.0,0.0,0.0,0.0,0.0,0.0,0.0,0.0,0.0,0.0,0.0,0.0,0.0,0.0,0.0,0.0,0.0,0.0,0.0,0.0,0.0,0.0,0.0,0.0,0.0,0.0,0.0,0.0,0.0,0.0,0.0,0.0,0.0,0.0,0.0,0.0,0.0,0.0,0.0,0.0,0.0,0.0,0.0,0.0,0.0,0.0,0.0,0.0,0.0,0.0,0.0,0.0,0.0,0.0,0.0,0.0,0.0,0.0,0.0,0.0,0.0,0.0,0.0,0.0,0.0,0.0,0.0,0.0,0.0,0.0,0.0,0.0,0.0,3.0223,0.0,0.0,0.0,2.7974,0.0,0.0,0.0,0.0,0.0,0.0,0.0,0.0,0.0,0.0,0.0,0.0,0.0,0.0,0.0,0.0,0.0,0.0,0.0,0.0,0.0,0.0,0.0,0.0,0.0,0.0,0.0,0.0,0.0,0.0,0.0,0.0,0.0,0.0,0.0,0.0,0.0,0.0,0.0,0.0,0.0,0.0,0.0,0.0,0.0,0.0,0.0,0.0,0.0,0.0,0.0,0.0,0.0,0.0,0.0,0.0,0.0,0.0,0.0,0.0,0.0,0.0,0.0,0.0,0.0,0.0,0.0,0.0,0.0,0.0,0.0,0.0,0.0,0.0,0.0,0.0,0.0,0.0,0.0,0.0,0.0,0.0,0.0,0.0,0.0,0.0,0.0,0.0,0.0,0.0,0.0,0.0,0.0,0.0,0.0,0.0,0.0,0.0,0.0,0.0,0.0,0.0,0.0,0.0,0.0,0.0,0.0,0.0,0.0,0.0,3.0927,2.9681,3.0881,3.0851,2.9292,0.0,0.0,0.0,0.0,0.0,0.0,0.0,0.0,0.0,0.0,0.0,0.0,0.0,0.0,0.0,0.0,0.0,0.0,0.0,0.0,0.0,0.0,0.0,0.0,0.0,0.0,0.0,0.0,0.0,0.0,0.0,0.0,0.0,0.0,0.0,0.0,0.0,0.0,0.0,0.0,0.0,0.0,0.0,0.0,0.0,0.0,0.0,0.0,0.0,0.0,0.0,0.0,0.0,0.0,0.0,0.0,0.0,0.0,0.0,0.0,0.0,0.0,0.0,0.0,0.0,0.0,0.0,0.0,0.0,0.0,0.0,0.0,0.0,0.0,0.0,0.0,0.0,0.0,0.0,0.0,0.0,0.0,0.0,0.0,0.0,0.0,0.0,0.0,0.0,0.0,0.0,0.0,0.0,0.0,0.0,0.0,0.0,0.0,0.0,0.0,0.0,0.0,0.0,0.0,0.0,0.0,0.0,0.0,0.0,0.0,0.0,0.0,3.1719,3.1944,3.0835,0.0,0.0,0.0,0.0,0.0,0.0,0.0,0.0,0.0,0.0,0.0,0.0,0.0,0.0,0.0,0.0,0.0,0.0,0.0,0.0,0.0,0.0,0.0,0.0,0.0,0.0,0.0,0.0,0.0,0.0,0.0,0.0,0.0,0.0,0.0,0.0,0.0,0.0,0.0,0.0,0.0,0.0,0.0,0.0,0.0,0.0,0.0,0.0,0.0,0.0,0.0,0.0,0.0,0.0,0.0,0.0,0.0,0.0,0.0,0.0,0.0,0.0,0.0,0.0,0.0,0.0,0.0,0.0,0.0,0.0,0.0,0.0,0.0,0.0,0.0,0.0,0.0,0.0,0.0,0.0,0.0,0.0,0.0,0.0,0.0,0.0,0.0,0.0,0.0,0.0,0.0,0.0,0.0,0.0,0.0,0.0,0.0,0.0,0.0,0.0,0.0,0.0,0.0,0.0,0.0,0.0,0.0,0.0,0.0,0.0,3.1166,3.2213,3.2392,0.0,3.1524,0.0,0.0,0.0,0.0,0.0,0.0,0.0,0.0,0.0,0.0,0.0,0.0,0.0,0.0,0.0,0.0,0.0,0.0,0.0,0.0,0.0,0.0,0.0,0.0,0.0,0.0,0.0,0.0,0.0,0.0,0.0,0.0,0.0,0.0,0.0,0.0,0.0,0.0,0.0,0.0,0.0,0.0,0.0,0.0,0.0,0.0,0.0,0.0,0.0,0.0,0.0,0.0,0.0,0.0,0.0,0.0,0.0,0.0,0.0,0.0,0.0,0.0,0.0,0.0,0.0,0.0,0.0,0.0,0.0,0.0,0.0,0.0,0.0,0.0,0.0,0.0,0.0,0.0,0.0,0.0,0.0,0.0,0.0,0.0,0.0,0.0,0.0,0.0,0.0,0.0,0.0,0.0,0.0,0.0,0.0,0.0,0.0,0.0,0.0,0.0,0.0,0.0,0.0,0.0,0.0,0.0,0.0,0.0,0.0,0.0,3.2557,3.3095,3.2691,3.2362,0.0,0.0,0.0,0.0,0.0,0.0,0.0,0.0,0.0,0.0,0.0,0.0,0.0,0.0,0.0,0.0,0.0,0.0,0.0,0.0,0.0,0.0,0.0,0.0,0.0,0.0,0.0,0.0,0.0,0.0,0.0,0.0,0.0,0.0,0.0,0.0,0.0,0.0,0.0,0.0,0.0,0.0,0.0,0.0,0.0,0.0,0.0,0.0,0.0,0.0,0.0,0.0,0.0,0.0,0.0,0.0,0.0,0.0,0.0,0.0,0.0,0.0,0.0,0.0,0.0,0.0,0.0,0.0,0.0,0.0,0.0,0.0,0.0,0.0,0.0,0.0,0.0,0.0,0.0,0.0,0.0,0.0,0.0,0.0,0.0,0.0,0.0,0.0,0.0,0.0,0.0,0.0,0.0,0.0,0.0,0.0,0.0,0.0,0.0,0.0,0.0,0.0,0.0,0.0,0.0,0.0,0.0,0.0,0.0,0.0,3.3215,3.3664,3.4039,3.3754,3.317,3.2243,0.0,0.0,0.0,0.0,0.0,0.0,0.0,0.0,0.0,0.0,0.0,0.0,0.0,0.0,0.0,0.0,0.0,0.0,0.0,0.0,0.0,0.0,0.0,0.0,0.0,0.0,0.0,0.0,0.0,0.0,0.0,0.0,0.0,0.0,0.0,0.0,0.0,0.0,0.0,0.0,0.0,0.0,0.0,0.0,0.0,0.0,0.0,0.0,0.0,0.0,0.0,0.0,0.0,0.0,0.0,0.0,0.0,0.0,0.0,0.0,0.0,0.0,0.0,0.0,0.0,0.0,0.0,0.0,0.0,0.0,0.0,0.0,0.0,0.0,0.0,0.0,0.0,0.0,0.0,0.0,0.0,0.0,0.0,0.0,0.0,0.0,0.0,0.0,0.0,0.0,0.0,0.0,0.0,0.0,0.0,0.0,0.0,0.0,0.0,0.0,0.0,0.0,0.0,0.0,0.0,0.0,0.0,0.0,3.51,3.4113,3.4113,3.54,3.5968,3.4831,0.0,0.0,0.0,0.0,0.0,0.0,0.0,0.0,0.0,0.0,0.0,0.0,0.0,0.0,0.0,0.0,0.0,0.0,0.0,0.0,0.0,0.0,0.0,0.0,0.0,0.0,0.0,0.0,0.0,0.0,0.0,0.0,0.0,0.0,0.0,0.0,0.0,0.0,0.0,0.0,0.0,0.0,0.0,0.0,0.0,0.0,0.0,0.0,0.0,0.0,0.0,0.0,0.0,0.0,0.0,0.0,0.0,0.0,0.0,0.0,0.0,0.0,0.0,0.0,0.0,0.0,0.0,0.0,0.0,0.0,0.0,0.0,0.0,0.0,0.0,0.0,0.0,0.0,0.0,0.0,0.0,0.0,0.0,0.0,0.0,0.0,0.0,0.0,0.0,0.0,0.0,0.0,0.0,0.0,0.0,0.0,0.0,0.0,0.0,0.0,0.0,0.0,0.0,0.0,0.0,0.0,0.0,0.0,0.0,3.2886,3.3305,3.4757,3.7135,3.4755,3.332,0.0,0.0,0.0,0.0,0.0,0.0,0.0,0.0,0.0,0.0,0.0,0.0,0.0,0.0,0.0,0.0,0.0,0.0,0.0,0.0,0.0,0.0,0.0,0.0,0.0,0.0,0.0,0.0,0.0,0.0,0.0,0.0,0.0,0.0,0.0,0.0,0.0,0.0,0.0,0.0,0.0,0.0,0.0,0.0,0.0,0.0,0.0,0.0,0.0,0.0,0.0,0.0,0.0,0.0,0.0,0.0,0.0,0.0,0.0,0.0,0.0,0.0,0.0,0.0,0.0,0.0,0.0,0.0,0.0,0.0,0.0,0.0,0.0,0.0,0.0,0.0,0.0,0.0,0.0,0.0,0.0,0.0,0.0,0.0,0.0,0.0,0.0,0.0,0.0,0.0,0.0,0.0,0.0,0.0,0.0,0.0,0.0,0.0,0.0,0.0,0.0,0.0,0.0,0.0,0.0,0.0,0.0,0.0,0.0,3.3394,3.537,3.7062,3.8182,3.5383,3.3559,0.0,0.0,0.0,0.0,0.0,0.0,0.0,0.0,0.0,0.0,0.0,0.0,0.0,0.0,0.0,0.0,0.0,0.0,0.0,0.0,0.0,0.0,0.0,0.0,0.0,0.0,0.0,0.0,0.0,0.0,0.0,0.0,0.0,0.0,0.0,0.0,0.0,0.0,0.0,0.0,0.0,0.0,0.0,0.0,0.0,0.0,0.0,0.0,0.0,0.0,0.0,0.0,0.0,0.0,0.0,0.0,0.0,0.0,0.0,0.0,0.0,0.0,0.0,0.0,0.0,0.0,0.0,0.0,0.0,0.0,0.0,0.0,0.0,0.0,0.0,0.0,0.0,0.0,0.0,0.0,0.0,0.0,0.0,0.0,0.0,0.0,0.0,0.0,0.0,0.0,0.0,0.0,0.0,0.0,0.0,0.0,0.0,0.0,0.0,0.0,0.0,0.0,0.0,0.0,0.0,0.0,0.0,0.0,3.3514,3.7225,4.0415,4.0823,3.8559,3.823,3.5818,0.0,0.0,0.0,0.0,0.0,0.0,0.0,0.0,0.0,0.0,0.0,0.0,0.0,0.0,0.0,0.0,0.0,0.0,0.0,0.0,0.0,0.0,0.0,0.0,0.0,0.0,0.0,0.0,0.0,0.0,0.0,0.0,0.0,0.0,0.0,0.0,0.0,0.0,0.0,0.0,0.0,0.0,0.0,0.0,0.0,0.0,0.0,0.0,0.0,0.0,0.0,0.0,0.0,0.0,0.0,0.0,0.0,0.0,0.0,0.0,0.0,0.0,0.0,0.0,0.0,0.0,0.0,0.0,0.0,0.0,0.0,0.0,0.0,0.0,0.0,0.0,0.0,0.0,0.0,0.0,0.0,0.0,0.0,0.0,0.0,0.0,0.0,0.0,0.0,0.0,0.0,0.0,0.0,0.0,0.0,0.0,0.0,0.0,0.0,0.0,0.0,0.0,0.0,0.0,0.0,0.0,0.0,0.0,0.0,3.6207,3.8871,4.0385,4.0385,3.7823,3.6058,0.0,0.0,0.0,0.0,0.0,0.0,0.0,0.0,0.0,0.0,0.0,0.0,0.0,0.0,0.0,0.0,0.0,0.0,0.0,0.0,0.0,0.0,0.0,0.0,0.0,0.0,0.0,0.0,0.0,0.0,0.0,0.0,0.0,0.0,0.0,0.0,0.0,0.0,0.0,0.0,0.0,0.0,0.0,0.0,0.0,0.0,0.0,0.0,0.0,0.0,0.0,0.0,0.0,0.0,0.0,0.0,0.0,0.0,0.0,0.0,0.0,0.0,0.0,0.0,0.0,0.0,0.0,0.0,0.0,0.0,0.0,0.0,0.0,0.0,0.0,0.0,0.0,0.0,0.0,0.0,0.0,0.0,0.0,0.0,0.0,0.0,0.0,0.0,0.0,0.0,0.0,0.0,0.0,0.0,0.0,0.0,0.0,0.0,0.0,0.0,0.0,0.0,0.0,0.0,0.0,0.0,0.0,0.0,0.0,3.975,4.1863,4.3,4.287,3.9757,3.7751,3.6985,0.0,0.0,0.0,0.0,0.0,0.0,0.0,0.0,0.0,0.0,0.0,0.0,0.0,0.0,0.0,0.0,0.0,0.0,0.0,0.0,0.0,0.0,0.0,0.0,0.0,0.0,0.0,0.0,0.0,0.0,0.0,0.0,0.0,0.0,0.0,0.0,0.0,0.0,0.0,0.0,0.0,0.0,0.0,0.0,0.0,0.0,0.0,0.0,0.0,0.0,0.0,0.0,0.0,0.0,0.0,0.0,0.0,0.0,0.0,0.0,0.0,0.0,0.0,0.0,0.0,0.0,0.0,0.0,0.0,0.0,0.0,0.0,0.0,0.0,0.0,0.0,0.0,0.0,0.0,0.0,0.0,0.0,0.0,0.0,0.0,0.0,0.0,0.0,0.0,0.0,0.0,0.0,0.0,0.0,0.0,0.0,0.0,0.0,0.0,0.0,0.0,0.0,0.0,0.0,0.0,0.0,0.0,0.0,4.6629,4.8588,4.8289,4.5574,4.3549,4.0685,0.0,0.0,0.0,0.0,0.0,0.0,0.0,0.0,0.0,0.0,0.0,0.0,0.0,0.0,0.0,0.0,0.0,0.0,0.0,0.0,0.0,0.0,0.0,0.0,0.0,0.0,0.0,0.0,0.0,0.0,0.0,0.0,0.0,0.0,0.0,0.0,0.0,0.0,0.0,0.0,0.0,0.0,0.0,0.0,0.0,0.0,0.0,0.0,0.0,0.0,0.0,0.0,0.0,0.0,0.0,0.0,0.0,0.0,0.0,0.0,0.0,0.0,0.0,0.0,0.0,0.0,0.0,0.0,0.0,0.0,0.0,0.0,0.0,0.0,0.0,0.0,0.0,0.0,0.0,0.0,0.0,0.0,0.0,0.0,0.0,0.0,0.0,0.0,0.0,0.0,0.0,0.0,0.0,0.0,0.0,0.0,0.0,0.0,0.0,0.0,0.0,0.0,0.0,0.0,0.0,0.0,0.0,0.0,0.0,5.0601,5.2606,5.1941,4.8349,4.5364,4.2641,0.0,0.0,0.0,0.0,0.0,0.0,0.0,0.0,0.0,0.0,0.0,0.0,0.0,0.0,0.0,0.0,0.0,0.0,0.0,0.0,0.0,0.0,0.0,0.0,0.0,0.0,0.0,0.0,0.0,0.0,0.0,0.0,0.0,0.0,0.0,0.0,0.0,0.0,0.0,0.0,0.0,0.0,0.0,0.0,0.0,0.0,0.0,0.0,0.0,0.0,0.0,0.0,0.0,0.0,0.0,0.0,0.0,0.0,0.0,0.0,0.0,0.0,0.0,0.0,0.0,0.0,0.0,0.0,0.0,0.0,0.0,0.0,0.0,0.0,0.0,0.0,0.0,0.0,0.0,0.0,0.0,0.0,0.0,0.0,0.0,0.0,0.0,0.0,0.0,0.0,0.0,0.0,0.0,0.0,0.0,0.0,0.0,0.0,0.0,0.0,0.0,0.0,0.0,0.0,0.0,0.0,0.0,0.0,5.0541,5.3803,5.4999,5.4396,5.1851,4.8536,4.5364,0.0,0.0,0.0,0.0,0.0,0.0,0.0,0.0,0.0,0.0,0.0,0.0,0.0,0.0,0.0,0.0,0.0,0.0,0.0,0.0,0.0,0.0,0.0,0.0,0.0,0.0,0.0,0.0,0.0,0.0,0.0,0.0,0.0,0.0,0.0,0.0,0.0,0.0,0.0,0.0,0.0,0.0,0.0,0.0,0.0,0.0,0.0,0.0,0.0,0.0,0.0,0.0,0.0,0.0,0.0,0.0,0.0,0.0,0.0,0.0,0.0,0.0,0.0,0.0,0.0,0.0,0.0,0.0,0.0,0.0,0.0,0.0,0.0,0.0,0.0,0.0,0.0,0.0,0.0,0.0,0.0,0.0,0.0,0.0,0.0,0.0,0.0,0.0,0.0,0.0,0.0,0.0,0.0,0.0,0.0,0.0,0.0,0.0,0.0,0.0,0.0,0.0,0.0,0.0,0.0,0.0,0.0,0.0,5.3114,5.6312,5.6492,5.6162,5.5329,5.2103,4.8185,0.0,0.0,0.0,0.0,0.0,0.0,0.0,0.0,0.0,0.0,0.0,0.0,0.0,0.0,0.0,0.0,0.0,0.0,0.0,0.0,0.0,0.0,0.0,0.0,0.0,0.0,0.0,0.0,0.0,0.0,0.0,0.0,0.0,0.0,0.0,0.0,0.0,0.0,0.0,0.0,0.0,0.0,0.0,0.0,0.0,0.0,0.0,0.0,0.0,0.0,0.0,0.0,0.0,0.0,0.0,0.0,0.0,0.0,0.0,0.0,0.0,0.0,0.0,0.0,0.0,0.0,0.0,0.0,0.0,0.0,0.0,0.0,0.0,0.0,0.0,0.0,0.0,0.0,0.0,0.0,0.0,0.0,0.0,0.0,0.0,0.0,0.0,0.0,0.0,0.0,0.0,0.0,0.0,0.0,0.0,0.0,0.0,0.0,0.0,0.0,0.0,0.0,0.0,0.0,0.0,0.0,0.0,0.0,5.4885,5.7633,5.8201,5.7902,5.6705,5.2995,4.9075,0.0,0.0,0.0,0.0,0.0,0.0,0.0,0.0,0.0,0.0,0.0,0.0,0.0,0.0,0.0,0.0,0.0,0.0,0.0,0.0,0.0,0.0,0.0,0.0,0.0,0.0,0.0,0.0,0.0,0.0,0.0,0.0,0.0,0.0,0.0,0.0,0.0,0.0,0.0,0.0,0.0,0.0,0.0,0.0,0.0,0.0,0.0,0.0,2.2655,0.0,0.0,0.0,0.0,0.0,0.0,0.0,0.0,0.0,0.0,0.0,0.0,0.0,0.0,0.0,0.0,0.0,0.0,0.0,0.0,0.0,0.0,0.0,0.0,0.0,0.0,0.0,0.0,0.0,0.0,0.0,0.0,0.0,0.0,0.0,0.0,0.0,0.0,0.0,0.0,0.0,0.0,0.0,0.0,0.0,0.0,0.0,0.0,0.0,0.0,0.0,0.0,0.0,0.0,0.0,0.0,0.0,0.0,0.0,5.5957,5.8471,5.8919,5.862,5.7543,5.5239,5.1678,0.0,0.0,0.0,0.0,0.0,0.0,0.0,0.0,0.0,0.0,0.0,0.0,0.0,0.0,0.0,0.0,0.0,0.0,0.0,0.0,0.0,0.0,0.0,0.0,0.0,0.0,0.0,0.0,0.0,0.0,0.0,0.0,0.0,0.0,0.0,0.0,0.0,0.0,0.0,0.0,0.0,0.0,0.0,0.0,0.0,0.0,0.0,0.0,0.0,0.0,0.0,0.0,0.0,0.0,0.0,0.0,0.0,0.0,0.0,0.0,0.0,0.0,0.0,0.0,0.0,0.0,0.0,0.0,0.0,0.0,0.0,0.0,0.0,0.0,0.0,0.0,0.0,0.0,0.0,0.0,0.0,0.0,0.0,0.0,0.0,0.0,0.0,0.0,0.0,0.0,0.0,0.0,0.0,0.0,0.0,0.0,0.0,0.0,0.0,0.0,0.0,0.0,0.0,0.0,0.0,0.0,0.0,5.3952,5.6795,5.9428,5.9458,5.9159,5.8563,5.7723,5.4581,4.8955,0.0,0.0,0.0,0.0,0.0,0.0,0.0,0.0,0.0,0.0,0.0,0.0,0.0,0.0,0.0,0.0,0.0,0.0,0.0,0.0,0.0,0.0,0.0,0.0,0.0,0.0,0.0,0.0,0.0,0.0,0.0,0.0,0.0,0.0,0.0,0.0,0.0,0.0,2.38,2.5869,0.0,0.0,0.0,0.0,0.0,0.0,0.0,0.0,2.5591,0.0,0.0,0.0,0.0,0.0,0.0,0.0,0.0,0.0,0.0,0.0,0.0,0.0,0.0,0.0,0.0,0.0,0.0,0.0,0.0,0.0,0.0,0.0,0.0,0.0,0.0,0.0,0.0,0.0,0.0,0.0,0.0,0.0,0.0,0.0,0.0,0.0,0.0,0.0,0.0,0.0,0.0,0.0,0.0,0.0,0.0,0.0,0.0,0.0,0.0,0.0,0.0,0.0,0.0,0.0,0.0,5.4281,5.5957,5.8351,6.1493,6.1074,6.0717,6.0567,5.8863,5.5662,5.0907,0.0,0.0,0.0,0.0,0.0,0.0,0.0,0.0,0.0,0.0,0.0,0.0,0.0,0.0,0.0,0.0,0.0,0.0,0.0,0.0,0.0,0.0,0.0,0.0,0.0,0.0,0.0,0.0,0.0,0.0,0.0,0.0,0.0,0.0,0.0,0.0,0.0,0.0,0.0,3.0355,3.0853,0.0,0.0,0.0,0.0,0.0,0.0,0.0,0.0,2.6176,0.0,0.0,0.0,0.0,0.0,0.0,0.0,0.0,0.0,0.0,0.0,0.0,0.0,0.0,0.0,0.0,0.0,0.0,0.0,0.0,0.0,0.0,0.0,0.0,0.0,0.0,0.0,0.0,0.0,0.0,0.0,0.0,0.0,0.0,0.0,0.0,0.0,0.0,0.0,0.0,0.0,0.0,0.0,0.0,0.0,0.0,0.0,0.0,0.0,0.0,0.0,0.0,0.0,0.0,0.0,5.3593,5.7304,6.0116,6.2002,6.1792,6.1435,6.1104,6.0149,5.7008,0.0,0.0,0.0,0.0,0.0,0.0,0.0,0.0,0.0,0.0,0.0,0.0,0.0,0.0,0.0,0.0,0.0,0.0,0.0,0.0,0.0,0.0,0.0,0.0,0.0,0.0,0.0,0.0,0.0,0.0,0.0,0.0,0.0,0.0,0.0,0.0,0.0,0.0,0.0,0.0,3.2528,3.3544,3.5318,0.0,0.0,0.0,0.0,0.0,0.0,2.8164,2.7526,0.0,0.0,0.0,0.0,0.0,0.0,0.0,0.0,0.0,0.0,0.0,0.0,0.0,0.0,0.0,0.0,0.0,0.0,0.0,0.0,0.0,0.0,0.0,0.0,0.0,0.0,0.0,0.0,0.0,0.0,0.0,0.0,0.0,0.0,0.0,0.0,0.0,0.0,0.0,0.0,0.0,0.0,0.0,0.0,0.0,0.0,0.0,0.0,0.0,0.0,0.0,0.0,0.0,0.0,0.0,5.2516,5.8022,6.1433,6.2421,6.248,6.2181,6.1523,6.1253,5.8052,0.0,0.0,0.0,0.0,0.0,0.0,0.0,0.0,0.0,0.0,0.0,0.0,0.0,0.0,0.0,0.0,0.0,0.0,0.0,0.0,0.0,0.0,0.0,0.0,0.0,0.0,0.0,0.0,0.0,0.0,0.0,0.0,0.0,0.0,0.0,0.0,0.0,0.0,0.0,0.0,0.0,3.6023,3.7693,3.5734,0.0,0.0,0.0,0.0,3.0736,3.044,0.0,0.0,0.0,0.0,0.0,0.0,0.0,0.0,0.0,0.0,0.0,0.0,0.0,0.0,0.0,0.0,0.0,0.0,0.0,0.0,0.0,0.0,0.0,0.0,0.0,0.0,0.0,0.0,0.0,0.0,0.0,0.0,0.0,0.0,0.0,0.0,0.0,0.0,0.0,0.0,0.0,0.0,0.0,0.0,0.0,0.0,0.0,0.0,0.0,0.0,0.0,0.0,0.0,0.0,0.0,0.0,5.3139,5.7782,6.1373,6.3647,6.3767,6.3468,6.2898,6.1732,5.8261,0.0,0.0,0.0,0.0,0.0,0.0,0.0,0.0,0.0,0.0,0.0,0.0,0.0,0.0,0.0,0.0,0.0,0.0,0.0,0.0,0.0,0.0,0.0,0.0,0.0,0.0,0.0,0.0,0.0,0.0,0.0,0.0,0.0,0.0,0.0,0.0,0.0,0.0,0.0,0.0,0.0,3.8216,3.6668,3.6172,3.5845,0.0,0.0,3.4823,3.541,3.5537,0.0,0.0,0.0,0.0,0.0,0.0,0.0,0.0,0.0,0.0,0.0,0.0,0.0,0.0,0.0,0.0,0.0,0.0,0.0,0.0,0.0,0.0,0.0,0.0,0.0,0.0,0.0,0.0,0.0,0.0,0.0,0.0,0.0,0.0,0.0,0.0,0.0,0.0,0.0,0.0,0.0,0.0,0.0,0.0,0.0,0.0,0.0,0.0,0.0,0.0,0.0,0.0,0.0,0.0,0.0,5.2151,5.4456,5.9967,6.3617,6.5084,6.5144,6.4635,6.3617,6.3049,5.9249,0.0,0.0,0.0,0.0,0.0,0.0,0.0,0.0,0.0,0.0,0.0,0.0,0.0,0.0,0.0,0.0,0.0,0.0,0.0,0.0,0.0,0.0,0.0,0.0,0.0,0.0,0.0,0.0,0.0,0.0,0.0,0.0,0.0,0.0,0.0,0.0,0.0,0.0,0.0,0.0,0.0,0.0,4.0111,3.9339,0.0,0.0,0.0,3.7435,3.6888,0.0,0.0,0.0,0.0,0.0,0.0,0.0,0.0,0.0,0.0,0.0,0.0,0.0,0.0,0.0,0.0,0.0,0.0,0.0,0.0,0.0,0.0,0.0,0.0,0.0,0.0,0.0,0.0,0.0,0.0,0.0,0.0,0.0,0.0,0.0,0.0,0.0,0.0,0.0,0.0,0.0,0.0,0.0,0.0,0.0,0.0,0.0,0.0,0.0,0.0,0.0,0.0,0.0,0.0,0.0,0.0,0.0,5.5269,6.1672,6.5233,6.5712,6.5922,6.5443,6.4306,6.3947,0.0,0.0,0.0,0.0,0.0,0.0,0.0,0.0,0.0,0.0,0.0,0.0,0.0,0.0,0.0,0.0,0.0,0.0,0.0,0.0,0.0,0.0,0.0,0.0,0.0,0.0,0.0,2.4489,0.0,0.0,0.0,0.0,0.0,0.0,0.0,0.0,0.0,0.0,0.0,0.0,0.0,0.0,3.9825,4.3109,4.2613,4.2118,0.0,0.0,4.055,3.9629,4.0095,3.9511,0.0,0.0,0.0,0.0,0.0,0.0,0.0,0.0,0.0,0.0,0.0,0.0,0.0,0.0,0.0,0.0,0.0,0.0,0.0,0.0,0.0,0.0,0.0,0.0,0.0,0.0,0.0,0.0,0.0,0.0,0.0,0.0,0.0,0.0,0.0,0.0,0.0,0.0,0.0,0.0,0.0,0.0,0.0,0.0,0.0,0.0,0.0,0.0,0.0,0.0,0.0,0.0,0.0,0.0,5.4491,5.5388,6.1674,6.5054,6.5084,6.5712,6.5682,6.4934,6.3767,6.0296,0.0,0.0,0.0,0.0,0.0,0.0,0.0,0.0,0.0,0.0,0.0,0.0,0.0,0.0,0.0,0.0,0.0,0.0,0.0,0.0,0.0,0.0,0.0,0.0,0.0,0.0,0.0,0.0,0.0,0.0,0.0,0.0,0.0,0.0,0.0,0.0,0.0,0.0,0.0,0.0,0.0,4.1179,4.37,4.5111,4.6339,0.0,4.6181,4.5074,4.5589,4.4674,4.2252,3.7255,0.0,0.0,0.0,0.0,0.0,0.0,0.0,0.0,0.0,0.0,0.0,0.0,0.0,0.0,0.0,0.0,0.0,0.0,0.0,0.0,0.0,0.0,0.0,0.0,0.0,0.0,0.0,0.0,0.0,0.0,0.0,0.0,0.0,0.0,0.0,0.0,0.0,0.0,0.0,0.0,0.0,0.0,0.0,0.0,0.0,0.0,0.0,0.0,0.0,0.0,0.0,0.0,0.0,5.5538,5.7064,6.3498,6.7029,6.7448,6.7298,6.6909,6.6251,6.4964,6.1672,0.0,0.0,0.0,0.0,0.0,0.0,0.0,0.0,0.0,0.0,0.0,0.0,0.0,0.0,0.0,0.0,0.0,0.0,0.0,0.0,0.0,0.0,0.0,0.0,0.0,0.0,0.0,0.0,3.1135,3.1179,2.9428,0.0,0.0,0.0,0.0,0.0,0.0,0.0,0.0,0.0,0.0,4.4642,4.697,4.7791,0.0,0.0,4.8745,4.784,4.8109,4.6322,4.4107,4.1683,3.92,0.0,0.0,0.0,0.0,0.0,0.0,0.0,0.0,0.0,0.0,0.0,0.0,0.0,0.0,0.0,0.0,0.0,0.0,0.0,0.0,0.0,0.0,0.0,0.0,0.0,0.0,0.0,0.0,0.0,0.0,0.0,0.0,0.0,0.0,0.0,0.0,0.0,0.0,0.0,0.0,0.0,0.0,0.0,0.0,0.0,0.0,0.0,0.0,0.0,0.0,0.0,0.0,5.6555,5.8683,6.5024,6.8495,6.9004,6.8525,6.8107,6.7567,6.5891,6.287,0.0,0.0,0.0,0.0,0.0,0.0,0.0,0.0,0.0,0.0,0.0,0.0,0.0,0.0,0.0,0.0,0.0,0.0,0.0,0.0,0.0,0.0,0.0,0.0,0.0,0.0,0.0,0.0,3.2946,3.2482,2.9608,0.0,0.0,0.0,0.0,0.0,0.0,0.0,0.0,0.0,0.0,4.7627,5.0352,5.0265,5.0324,5.1618,5.0182,4.9067,4.9277,4.754,4.5813,4.4766,0.0,0.0,0.0,0.0,0.0,0.0,0.0,0.0,0.0,0.0,0.0,0.0,0.0,0.0,0.0,0.0,0.0,0.0,0.0,0.0,0.0,0.0,0.0,0.0,0.0,0.0,0.0,4.1678,0.0,0.0,4.0653,0.0,0.0,0.0,0.0,0.0,0.0,0.0,0.0,0.0,0.0,0.0,0.0,0.0,0.0,0.0,0.0,0.0,0.0,0.0,0.0,0.0,0.0,5.7479,6.0114,6.5981,6.9034,6.9064,6.9004,6.9004,6.8914,6.64,6.3738,6.1012,0.0,0.0,0.0,0.0,0.0,0.0,0.0,0.0,0.0,0.0,0.0,0.0,0.0,0.0,0.0,0.0,0.0,0.0,0.0,0.0,0.0,0.0,0.0,0.0,0.0,0.0,2.9026,3.0464,3.0883,0.0,0.0,0.0,0.0,0.0,0.0,0.0,0.0,0.0,4.5194,4.7377,4.968,5.3503,5.2432,5.1768,5.3019,5.0504,4.8648,4.9337,4.8708,4.757,0.0,0.0,0.0,0.0,0.0,0.0,0.0,0.0,0.0,0.0,0.0,0.0,0.0,0.0,0.0,0.0,0.0,0.0,0.0,0.0,0.0,0.0,0.0,0.0,0.0,0.0,0.0,4.7317,4.6203,0.0,0.0,0.0,0.0,0.0,0.0,0.0,0.0,0.0,0.0,0.0,5.2881,5.3773,0.0,0.0,0.0,0.0,0.0,0.0,0.0,0.0,0.0,0.0,0.0,0.0,5.8979,6.221,6.7926,7.1158,7.1577,7.0709,7.026,7.0231,6.7717,6.4684,6.1269,0.0,0.0,0.0,0.0,0.0,0.0,0.0,0.0,0.0,0.0,0.0,0.0,0.0,0.0,0.0,0.0,0.0,0.0,0.0,0.0,0.0,0.0,0.0,0.0,0.0,3.2302,0.0,0.0,0.0,0.0,0.0,0.0,0.0,0.0,0.0,0.0,3.9738,4.4317,4.784,5.0953,5.3528,5.5294,5.5299,5.5149,0.0,0.0,0.0,0.0,0.0,0.0,0.0,0.0,0.0,0.0,0.0,0.0,0.0,0.0,4.4024,3.8292,3.6947,3.6885,3.7565,0.0,0.0,0.0,0.0,0.0,0.0,0.0,0.0,0.0,0.0,0.0,0.0,0.0,0.0,5.2049,5.1179,5.0351,0.0,0.0,0.0,0.0,0.0,0.0,0.0,0.0,5.575,5.7337,5.736,5.8692,5.8968,5.8258,5.7603,5.5418,0.0,0.0,0.0,0.0,0.0,0.0,0.0,0.0,6.1014,6.4814,6.9692,7.2445,7.2864,7.2056,7.1598,7.1603,6.9641,6.7021,6.3826,6.2205,5.9758,0.0,0.0,0.0,0.0,0.0,0.0,0.0,0.0,0.0,0.0,0.0,0.0,0.0,0.0,0.0,0.0,0.0,0.0,0.0,0.0,0.0,0.0,0.0,3.5565,0.0,0.0,0.0,0.0,0.0,0.0,0.0,0.0,0.0,3.9757,4.4267,4.8723,5.1642,5.4246,5.6256,5.742,0.0,0.0,0.0,0.0,0.0,0.0,0.0,4.9434,5.0697,4.8783,4.7347,4.8155,4.9583,5.0295,4.9164,0.0,0.0,4.39,4.2235,4.1991,4.2712,4.3359,4.3888,4.4107,4.5873,4.7489,0.0,0.0,0.0,0.0,5.4265,0.0,0.0,0.0,5.6994,5.6679,0.0,5.5921,0.0,0.0,0.0,0.0,5.2346,5.3884,0.0,0.0,6.3271,6.4546,6.3397,6.4599,6.4911,6.427,6.3668,6.3039,6.2113,5.7937,0.0,0.0,0.0,0.0,0.0,0.0,6.3528,6.7987,7.1308,7.2984,7.3084,7.3024,7.3057,7.3169,7.2107,7.0599,6.8576,6.5577,6.3092,6.1445,5.2895,0.0,0.0,0.0,0.0,0.0,0.0,0.0,0.0,0.0,0.0,0.0,0.0,0.0,0.0,0.0,0.0,0.0,0.0,0.0,0.0,3.8153,0.0,0.0,0.0,0.0,0.0,0.0,0.0,0.0,0.0,4.7668,4.5843,4.8454,5.2073,5.6436,0.0,0.0,0.0,0.0,5.7693,5.8919,5.5359,5.2755,5.3348,5.2755,5.2306,5.2366,0.0,0.0,5.0817,5.1977,5.2665,5.0787,5.2097,5.2905,5.1535,4.9568,4.8574,4.9217,4.8887,4.9164,5.087,5.1977,5.3558,6.5114,0.0,0.0,0.0,0.0,6.0367,6.1758,6.4482,6.4307,6.3682,6.2781,6.2583,0.0,0.0,0.0,0.0,0.0,0.0,6.2839,6.3676,6.5761,6.701,6.7568,6.7938,6.8817,7.0088,6.9958,6.9464,6.8675,6.8454,6.325,5.3558,0.0,0.0,0.0,0.0,6.6879,7.0021,7.2864,7.4882,7.6018,7.559,7.5215,7.4971,7.4628,7.375,7.216,7.1651,6.9174,6.4463,6.0767,0.0,0.0,0.0,0.0,0.0,0.0,0.0,0.0,0.0,0.0,0.0,0.0,0.0,0.0,0.0,0.0,0.0,0.0,0.0,3.7315,4.1395,4.304,0.0,0.0,0.0,0.0,0.0,0.0,0.0,0.0,0.0,5.2336,5.3982,5.5598,0.0,0.0,5.9099,5.874,5.9428,5.9937,5.9817,5.868,0.0,5.6795,5.5359,5.464,5.5538,5.5658,5.5204,5.3982,5.4665,5.5174,5.4576,5.5324,5.5837,5.5418,5.3832,5.2815,5.3294,5.3324,5.3354,5.3982,5.5059,5.6132,7.2622,6.9317,6.6611,6.6189,6.7257,6.6659,6.8032,7.0687,7.0687,7.0232,6.9465,6.9488,6.7934,6.5269,6.3963,0.0,0.0,0.0,6.7778,6.8697,7.0067,7.0783,7.1039,7.1604,7.2405,7.3351,7.2861,7.2715,7.3002,7.3387,6.9391,6.1464,0.0,6.3633,6.2704,6.6905,7.04,7.3011,7.4891,7.6634,7.825,7.7674,7.7088,7.6584,7.6578,7.6205,7.5389,7.5133,7.3312,6.9622,6.5768,6.1607,0.0,0.0,0.0,0.0,0.0,0.0,0.0,0.0,0.0,0.0,0.0,3.6956,3.504,0.0,0.0,0.0,4.1485,4.2521,4.3569,4.6681,0.0,0.0,0.0,0.0,0.0,0.0,0.0,5.2127,5.4551,5.6342,5.7393,5.8441,5.9069,5.9069,6.0356,6.1164,6.0867,0.0,6.2482,6.2121,6.1403,6.0625,5.9817,5.8022,5.6915,5.7423,5.7423,5.712,5.6496,5.6885,5.733,5.739,5.7423,5.7573,5.7842,5.6705,5.5748,5.5927,5.5927,5.6017,5.6286,5.6974,5.7674,7.8339,7.7841,7.2462,7.121,7.28,7.2834,7.3984,7.5845,7.5879,7.5879,7.5879,7.5879,7.4796,7.2754,6.9783,0.0,7.1936,7.1038,7.1853,7.3996,7.54,7.5352,7.4116,7.5406,7.5771,7.5201,7.3964,7.424,7.5842,7.4884,7.3619,7.2336,7.2649,7.179,6.9883,7.1852,7.4158,7.6521,7.7174,7.825,7.9761,7.9345,7.8782,7.8122,7.8143,7.8145,7.8044,7.6724,7.5912,7.5584,6.8964,6.4492,6.2894,0.0,0.0,0.0,0.0,0.0,0.0,0.0,0.0,0.0,0.0,0.0,0.0,0.0,0.0,4.5633,5.0092,0.0,5.3169,5.2809,0.0,0.0,0.0,4.8699,5.0757,5.2546,5.437,5.6342,0.0,0.0,6.1241,6.2014,6.2493,6.25,6.2896,6.3587,6.4695,6.4785,6.4994,6.4815,6.3439,6.2331,6.2091,6.0535,5.9099,5.8563,5.883,5.886,5.8294,5.868,5.9129,5.9099,5.871,5.8534,5.9159,5.8817,5.8301,5.7805,5.7539,5.7633,5.8196,5.8535,5.921,8.1359,8.1257,7.9837,7.8247,7.6681,7.6657,7.6985,7.7435,7.7435,7.7435,7.7435,7.7435,7.7468,7.7478,7.7291,7.7479,7.8077,7.8386,7.7953,7.6982,7.7806,7.8069,7.7735,7.8097,7.9034,8.0435,8.0213,7.972,7.9102,7.9886,7.9521,7.8267,8.0426,7.8556,7.3047,7.6285,7.8389,7.8966,7.9125,7.944,7.9957,8.0461,8.0632,8.0464,7.993,7.9431,7.8889,7.8517,7.7773,7.6623,7.3247,7.0692,6.912,5.8753,0.0,0.0,0.0,0.0,0.0,0.0,0.0,0.0,0.0,4.5226,4.1722,0.0,4.6681,0.0,5.5059,5.6316,5.3498,5.4426,0.0,0.0,5.368,5.3982,5.7341,5.7303,5.7737,5.9687,6.1396,6.2645,6.3295,6.4911,6.5965,6.5898,6.4701,6.3737,6.3617,6.4425,6.4994,6.4994,6.4635,6.4127,6.3558,6.2331,6.1164,6.0478,6.0116,5.9638,5.8979,5.9428,5.9874,5.9877,6.0176,6.0418,6.0623,6.1288,6.1792,6.1629,6.0834,6.0127,6.0311,6.1107,6.1961,8.2382,8.2382,8.2382,8.146,7.9972,7.9972,7.9938,7.9938,7.9938,7.9938,7.9972,7.9972,8.0175,8.0589,8.0987,8.119,8.1224,8.1596,8.1114,7.9968,8.0335,8.0502,8.0502,8.0502,8.1168,8.2382,8.2382,8.1982,8.1216,8.2008,8.1948,8.1196,8.3127,8.2235,7.8804,8.0801,8.1561,8.0885,8.1265,8.1317,8.1088,8.1215,8.0843,7.9895,8.0073,7.9701,7.8653,7.8923,7.8111,7.5946,7.3747,7.1853,7.0252,6.2794,5.868,0.0,0.0,0.0,0.0,0.0,0.0,0.0,0.0,0.0,0.0,0.0,5.1528,5.3503,5.8321,6.0084,5.7079,5.9157,6.0834,6.1169,6.0579,6.1103,6.3557,6.3181,6.3298,6.4646,6.5455,6.6027,6.6464,6.7445,6.8394,6.8953,6.808,6.6842,6.5621,6.5892,6.634,6.634,6.5832,6.5203,6.4545,6.3887,6.3169,6.254,6.2331,6.2002,6.1074,6.1403,6.179,6.1549,6.1992,6.2433,6.2485,6.3278,6.4023,6.3999,6.3898,6.3514,6.3009,6.3433,6.4103,8.2983,8.2983,8.2956,8.2956,8.2983,8.2983,8.278,8.2382,8.2382,8.2382,8.2382,8.2382,8.2382,8.2382,8.2382,8.2382,8.2382,8.2509,8.2543,8.2543,8.2644,8.2746,8.2847,8.2847,8.2881,8.2983,8.2956,8.2956,8.2983,8.2983,8.2983,8.3016,8.3727,8.437,8.4864,8.4882,8.4093,8.2548,8.3087,8.2983,8.2246,8.1629,8.0335,7.845,7.96,7.9701,7.8382,7.8889,7.8044,7.5439,7.324,7.1447,7.0106,6.6868,6.4024,0.0,6.0075,0.0,0.0,0.0,0.0,0.0,0.0,0.0,0.0,5.6804,5.7197,5.5775,6.1205,6.4114,6.2496,6.4983,6.6951,6.7561,6.7836,6.8119,6.846,6.8685,6.8936,6.9338,6.9566,6.967,6.9574,6.9801,7.0415,7.1306,7.159,7.0893,6.9212,6.8789,6.882,6.8726,6.7638,6.6998,6.6159,6.5827,6.5521,6.4865,6.5126,6.5074,6.3811,6.4253,6.4551,6.4179,6.4518,6.4813,6.4658,6.5332,6.5824,6.5841,6.6724,6.6997,6.5789,6.5594,6.6063,8.6034,8.6034,8.6061,8.6061,8.6061,8.6061,8.4647,8.2382,8.2382,8.2382,8.2382,8.2382,8.2382,8.2382,8.2382,8.2382,8.2415,8.3016,8.3287,8.3287,8.3903,8.4539,8.5141,8.5148,8.5486,8.6027,8.6061,8.6061,8.6061,8.6061,8.6061,8.6034,8.6805,8.6941,8.6507,0.0,0.0,0.0,8.3129,8.2238,8.1528,8.1384,8.0843,7.9837,8.0615,0.0,7.9837,7.9904,7.9735,7.9126,7.7029,0.0,0.0,0.0,0.0,0.0,0.0,0.0,0.0,0.0,0.0,0.0,6.1938,6.1231,6.1057,6.4111,6.5339,6.3627,6.6466,6.8272,6.7915,6.8412,6.8857,6.9011,7.0062,7.0355,6.9419,7.0232,7.0551,6.9533,7.0401,7.1125,7.1241,7.2014,7.2574,7.2441,7.3194,7.3479,7.2645,7.2429,7.2487,7.2449,7.1497,7.068,6.9403,6.9245,6.8722,6.7917,6.8037,6.7919,6.6787,6.7477,6.8278,6.803,6.8314,6.8123,6.7645,6.85,6.9091,6.8551,6.9517,6.9757,6.733,6.7617,6.8439,8.7245,8.6879,8.6879,8.711,0.0,8.7076,8.6264,8.5148,8.4776,8.4614,8.464,8.464,8.464,8.4614,8.464,8.4614,8.464,8.5012,8.5182,8.5215,8.5587,8.596,8.6332,8.6332,8.6535,8.6879,8.6879,8.6879,8.6879,8.6879,8.6879,8.6941,8.7279,8.7448,8.7448,8.782,8.7076,8.5215,8.3727,8.278,8.2374,8.2035,8.1325,8.0276,8.1257,0.0,0.0,0.0,0.0,0.0,0.0,0.0,0.0,7.031,0.0,6.9312,6.6924,6.5581,6.5847,6.5958,6.7318,7.0355,7.1,7.0157,6.7698,6.9314,7.0225,6.9604,7.1031,7.2176,7.2522,7.2897,7.3239,7.3628,7.4281,7.4381,7.3871,7.4281,7.4439,7.3838,7.4256,7.4587,7.4219,7.4705,7.5008,7.4727,7.5189,7.5811,7.6004,7.4987,7.4,7.3676,7.3355,7.2788,7.2044,7.1565,7.1274,7.0521,7.0372,6.9966,6.8956,6.9413,6.9766,6.9557,6.9931,7.0297,7.008,7.0954,7.1756,7.1479,7.1913,7.1863,7.009,6.9962,7.0195,8.8226,8.7685,8.7685,8.8023,8.8531,8.7955,8.8023,8.8531,8.7516,0.0,0.0,8.7245,8.7313,8.7279,8.7313,8.7313,8.7279,8.7279,8.738,8.7516,8.7482,8.755,8.7657,8.7685,8.7685,8.7685,8.7522,8.7482,8.7482,8.7347,8.7279,8.7313,8.7279,8.7516,8.7955,8.7989,8.7347,8.5993,8.4471,8.3625,8.349,8.2915,8.1968,8.0648,8.19,8.19,8.0479,8.1088,8.0242,7.7604,7.5709,7.4322,7.3578,7.2191,7.2259,7.4086,7.4041,7.4187,7.4965,7.4975,7.5676,7.7198,7.7942,7.7002,7.3787,7.3561,7.3793,7.4322,7.4918,7.5529,7.6118,7.6726,7.7333,7.7967,7.801,7.7942,7.7951,7.801,7.7767,7.801,7.7767,7.7739,7.7048,7.6971,7.7096,7.7063,7.6975,7.7536,7.8505,7.7139,7.5566,7.4836,7.4825,7.4636,7.4181,7.3966,7.3344,7.2864,7.2579,7.2057,7.1252,7.1158,7.109,7.0954,7.1536,7.2085,7.2158,7.2883,7.3623,7.351,7.35,7.3331,7.2732,7.2124,7.1616,9.0763,9.0662,9.0662,9.0729,9.0831,9.0729,9.0729,9.0662,8.87,8.7854,8.7888,8.8497,8.8767,8.8767,8.8795,8.8795,8.8795,8.8795,8.914,8.9748,8.9748,9.0087,9.0662,9.0662,9.0662,9.0628,9.0019,8.9748,8.9681,8.9072,8.8795,8.8767,8.8767,8.8531,8.8057,8.7989,8.7583,8.6738,8.5222,8.4133,8.3524,8.3389,8.2949,8.2205,8.2915,8.2644,8.1249,8.1866,8.1494,7.9837,7.9431,7.8923,7.8154,7.669,7.6352,7.7222,7.6115,7.5743,7.6521,7.6589,7.7198,7.8653,7.9464,7.9145,7.7438,7.7245,7.7287,7.7388,7.7454,7.7594,7.7696,7.781,7.7942,7.8034,7.801,7.801,7.8077,7.8077,7.8111,7.8111,7.801,7.8068,7.7874,7.7841,7.7841,7.7831,7.7807,7.8145,7.8781,7.9323,7.8786,7.7767,7.7891,7.7689,7.6637,7.686,7.6253,7.4641,7.5328,7.5172,7.3464,7.394,7.4469,7.4704,7.4642,7.4618,7.4228,7.4259,7.4255,7.3804,7.3703,7.3567,7.3375,7.3195,7.2732,9.1677,9.1305,9.1305,9.1541,9.1913,9.1913,9.1677,9.1271,9.0662,9.0154,8.9816,9.0121,9.029,9.029,9.029,9.029,9.029,9.029,9.0459,9.0797,9.0797,9.0966,9.1271,9.1305,9.1305,9.1271,9.0966,9.0797,9.0763,9.0425,9.0318,9.0256,8.9918,8.9512,8.9207,8.8801,8.8226,8.7482,8.6433,8.5689,8.5351,8.5351,8.4979,8.4268,8.42,8.3592,8.2509,8.2035,8.1494,8.0818,8.004,7.9464,7.9101,7.8077,7.7638,7.7967,7.7333,7.7096,7.7468,7.7874,7.8551,7.96,8.0006,7.9938,7.9261,7.9194,7.9219,7.9194,7.9194,7.9194,7.9194,7.9194,7.9194,7.9194,7.9194,7.9194,7.9194,7.9194,7.9194,7.9194,7.9194,7.9025,7.8653,7.8619,7.8416,7.8136,7.828,7.8619,7.8585,7.916,7.9398,7.8762,7.9196,7.9196,7.8258,7.8312,7.8093,7.7187,7.7277,7.6895,7.5647,7.6028,7.6077,7.5777,7.5676,7.5574,7.5202,7.5202,7.5033,7.4864,7.4695,7.4593,7.4221,7.3781,7.3105,9.2353,9.1812,9.1812,9.215,9.2629,9.2662,9.2353,9.188,9.2421,9.2353,9.1846,9.1812,9.1812,9.1812,9.1841,9.1812,9.1812,9.1812,9.1812,9.1812,9.1812,9.1812,9.1812,9.1812,9.1812,9.1778,9.1643,9.1541,9.1541,9.1406,9.1305,9.1237,9.0729,9.0459,9.0425,8.9715,8.9072,8.8463,8.7617,8.7076,8.6907,8.6771,8.6366,8.579,8.5012,8.4242,8.349,8.2543,8.19,8.1528,8.0615,7.9938,7.9634,7.9058,7.8677,7.8517,7.8314,7.8314,7.8517,7.9363,8.0107,8.0648,8.0716,8.0682,8.0682,8.0682,8.0547,8.0276,8.0141,8.0141,8.0107,8.0141,8.0209,8.0209,8.0209,8.0107,8.0175,8.0209,8.0209,8.0209,8.0209,7.9938,7.9498,7.9363,7.9058,7.8551,7.8889,7.9025,7.8483,7.8889,7.9236,7.9058,7.9498,7.9744,7.9363,7.9338,7.9236,7.9194,7.8594,7.7927,7.7236,7.698,7.6724,7.6115,7.5811,7.5709,7.5676,7.5676,7.5642,7.554,7.5506,7.5439,7.4965,7.4492,7.3703,9.3436,9.3398,9.3368,9.3402,9.3503,9.3503,9.3465,9.3368,9.3436,9.3465,9.333,9.3398,9.3364,9.3398,9.3334,9.333,9.333,9.3398,9.3364,9.333,9.3398,9.3398,9.333,9.3364,9.3398,9.3233,9.2624,9.229,9.2257,9.1677,9.1338,9.1305,9.1203,9.1203,9.1102,9.0459,9.0053,8.9985,8.8598,8.7583,8.6879,8.623,8.5885,8.579,8.5012,8.4242,8.3558,8.4005,8.3633,8.2509,8.2746,8.2441,8.1257,8.1046,8.0716,8.0073,7.9431,7.9295,8.0006,8.1325,8.2035,8.2205,8.2137,8.2137,8.2137,8.2171,8.1596,8.0615,8.0242,8.0242,8.0209,8.0209,8.0209,8.0209,8.0209,8.0209,8.0209,8.0209,8.0209,8.0209,8.0209,8.0141,8.004,8.0006,7.9769,7.9126,7.9532,7.9701,7.9092,7.9397,7.9464,7.8653,7.8788,7.9431,7.9735,8.0073,7.9803,7.9295,7.9092,7.8653,7.8077,7.7435,7.686,7.6826,7.6183,7.5845,7.5777,7.5676,7.5676,7.5676,7.5676,7.5642,7.5608,7.5405,7.483,9.4518,9.489,9.489,9.489,9.489,9.489,9.4654,9.4248,9.4248,9.4011,9.3634,9.3601,9.3601,9.3601,9.3601,9.3601,9.3601,9.3601,9.3601,9.3601,9.3601,9.3601,9.3601,9.3601,9.3601,9.3601,9.3267,9.3098,9.3064,9.2793,9.2658,9.259,9.2218,9.1981,9.188,9.0797,9.0222,9.0154,8.9173,8.8294,8.755,8.6839,8.623,8.5757,8.5012,8.4242,8.3558,8.3422,8.299,8.2509,8.3084,8.3219,8.2644,8.3016,8.3152,8.2754,8.1697,8.119,8.1494,8.1663,8.1934,8.2348,8.2382,8.2382,8.2382,8.2382,8.2103,8.1596,8.1088,8.0877,8.0818,8.0479,8.0209,8.0209,8.0209,8.0209,8.0209,8.0209,8.0209,8.0209,8.0209,8.0209,8.0209,8.0209,8.0073,7.9803,8.004,7.9904,7.9295,7.9397,7.9261,7.8923,7.9261,7.9363,7.9228,7.9701,7.9938,7.987,7.9735,7.9498,7.8822,7.8483,7.8111,7.7638,7.6893,7.6454,7.6454,7.5946,7.5676,7.5676,7.5676,7.5676,7.5676,7.5676,7.5337,9.5127,9.577,9.6007,9.6108,9.6108,9.6311,9.5872,9.506,9.4992,9.4485,9.3634,9.3601,9.3601,9.3601,9.3601,9.3601,9.3601,9.3601,9.3601,9.3601,9.3601,9.3601,9.3601,9.3601,9.3601,9.3601,9.3601,9.3601,9.3601,9.3601,9.3601,9.3499,9.303,9.2759,9.2624,9.144,9.0696,9.0459,8.9782,8.9038,8.8328,8.7786,8.6974,8.5858,8.5046,8.4343,8.3828,8.3287,8.299,8.305,8.3727,8.4031,8.3862,8.4708,8.5121,8.4911,8.393,8.3321,8.3321,8.3016,8.2983,8.3287,8.3321,8.3253,8.3084,8.3016,8.3016,8.2983,8.234,8.1866,8.1528,8.1122,8.0818,8.0784,8.0648,8.0513,8.0513,8.0344,8.0209,8.0209,8.0209,8.0209,8.0209,8.0209,8.0175,8.0175,8.0175,8.004,7.9566,7.9464,7.9431,7.9431,8.004,7.9938,7.8957,7.9735,8.0344,8.0209,8.0141,7.9972,7.9464,7.9329,7.9058,7.828,7.7638,7.7232,7.713,7.6589,7.5879,7.5743,7.5709,7.5709,7.5676,7.5676,7.5676,9.5127,9.5905,9.6548,9.692,9.6917,9.7631,9.7089,9.5838,9.5804,9.4992,9.3774,9.3702,9.3634,9.3702,9.377,9.3634,9.3601,9.3601,9.3601,9.3601,9.3601,9.3601,9.3601,9.3601,9.3601,9.3601,9.3601,9.3601,9.3601,9.3601,9.3601,9.3601,9.3533,9.3533,9.3334,9.259,9.1918,9.1237,9.0527,8.9782,8.9168,8.8998,8.7983,8.6129,8.5087,8.4715,8.458,8.4546,8.4512,8.4512,8.5249,8.5384,8.4817,8.6027,8.6501,8.5858,8.5655,8.5614,8.5655,8.6027,8.6129,8.5689,8.5479,8.5283,8.458,8.4444,8.4411,8.4444,8.3761,8.3084,8.2517,8.2205,8.2137,8.2103,8.1596,8.1317,8.1224,8.0648,8.0276,8.0242,8.0242,8.0209,8.0209,8.0209,8.0209,8.0209,8.0209,8.0141,8.0073,8.0073,8.0073,8.0209,8.0615,8.0978,8.031,8.0513,8.0741,8.0547,8.0344,8.0175,7.9938,7.9667,7.9295,7.8957,7.8348,7.7976,7.7841,7.7299,7.6521,7.6115,7.5811,7.5743,7.5676,7.5676,7.5676,9.7529,9.8645,9.8916,9.9018,9.9051,9.9322,9.8578,9.7225,9.7225,9.6379,9.5161,9.4992,9.4992,9.4992,9.4992,9.4485,9.3668,9.3601,9.3601,9.3601,9.3601,9.3601,9.3601,9.3601,9.3601,9.3601,9.3601,9.3601,9.3601,9.3601,9.3601,9.3601,9.3601,9.3601,9.3465,9.2827,9.2223,9.1981,9.1271,9.056,8.9884,8.9816,8.9173,8.7955,8.7177,8.6569,8.6068,8.6068,8.5858,8.5384,8.6535,8.7076,8.6907,8.7719,8.7955,8.7313,8.7211,8.7008,8.6602,8.6738,8.6778,8.6569,8.6501,8.6427,8.6061,8.5655,8.5384,8.5269,8.4701,8.4072,8.37,8.3016,8.2408,8.2348,8.2205,8.2002,8.1866,8.1359,8.0911,8.0818,8.0513,8.0209,8.0209,8.0209,8.0209,8.0209,8.0209,8.0209,8.0209,8.0209,8.0209,8.0412,8.119,8.1731,8.1021,8.1054,8.1122,8.0885,8.0648,8.0344,8.0073,8.0006,7.9735,7.96,7.9092,7.8686,7.8483,7.7773,7.7029,7.6657,7.6318,7.613,7.5676,7.6135,7.5983,9.9257,10.017,10.0472,10.0608,10.0608,10.0844,10.01,9.8815,9.8713,9.7901,9.665,9.6277,9.6142,9.6108,9.5905,9.5296,9.4345,9.4108,9.3943,9.3909,9.3706,9.3601,9.3601,9.3601,9.3601,9.3601,9.3601,9.3601,9.3601,9.3601,9.3601,9.3601,9.3601,9.3601,9.3499,9.303,9.2692,9.2421,9.215,9.1677,9.1034,9.1169,9.1068,9.0527,8.9816,8.8835,8.7685,8.738,8.7042,8.6704,8.7448,8.8091,8.8361,8.8835,8.8897,8.8457,8.8328,8.8158,8.7719,8.7617,8.7516,8.7306,8.764,8.778,8.7534,8.7443,8.7367,8.7246,8.6937,8.6499,8.6061,8.5345,8.4291,8.3378,8.2915,8.278,8.2712,8.1866,8.1249,8.0851,8.0479,8.0242,8.0209,8.0209,8.0209,8.0209,8.0209,8.0209,8.0209,8.0209,8.0479,8.0885,8.1731,8.2408,8.2374,8.2509,8.1731,8.1325,8.0953,8.0615,8.0209,8.0209,8.0175,8.0107,7.987,7.9464,7.8889,7.8213,7.7754,7.7372,7.7263,7.717,7.6965,7.6873,7.6816,10.0204,10.0438,10.1081,10.1386,10.1453,10.2028,10.1555,10.0269,10.0136,9.9322,9.8037,9.7326,9.7123,9.6819,9.6447,9.5905,9.5702,9.5127,9.4789,9.4654,9.4011,9.3702,9.3702,9.3634,9.3601,9.3601,9.3601,9.3601,9.3601,9.3601,9.3601,9.3601,9.3601,9.3601,9.3601,9.3499,9.3165,9.2759,9.3064,9.3064,9.2561,9.2962,9.3262,9.3228,9.2556,9.1271,8.9309,8.8531,8.8158,8.8023,8.8125,8.8395,8.9004,8.9106,8.91,8.9032,8.9066,8.9066,8.911,8.9098,8.8836,8.8715,8.9301,8.9653,8.9353,8.984,9.0317,9.0247,9.0176,9.0032,8.9316,8.8917,8.7639,8.5213,8.4091,8.3752,8.3306,8.2238,8.1054,8.0547,8.0344,8.0242,8.0209,8.0209,8.0209,8.0209,8.0209,8.0209,8.0209,8.0209,8.0818,8.1799,8.2306,8.2577,8.3355,8.393,8.278,8.1799,8.1393,8.0987,8.0412,8.0209,8.0209,8.0141,8.0141,7.9769,7.9589,7.8961,7.8881,7.8572,7.8453,7.84,7.831,7.8207,7.7966,10.1318,10.176,10.2062,10.2164,10.2164,10.2434,10.1927,10.1047,10.1014,10.0438,9.9593,9.9288,9.8916,9.8442,9.8138,9.7766,9.7258,9.6548,9.5939,9.5462,9.4721,9.4349,9.4282,9.3842,9.3601,9.3601,9.3601,9.3601,9.3601,9.3601,9.3601,9.3601,9.3601,9.3601,9.3601,9.3601,9.3402,9.33,9.3465,9.3436,9.3233,9.3436,9.3601,9.3567,9.3334,9.2827,9.2184,9.0966,9.0053,8.9579,8.9985,9.0154,8.985,8.9342,8.9134,8.9134,8.9134,8.9559,9.0304,9.0429,9.0685,9.1201,9.1751,9.184,9.1582,9.1517,9.1571,9.1478,9.1006,9.0568,9.0297,8.9814,8.858,8.6131,8.5621,8.5104,8.4391,8.3478,8.2306,8.1224,8.0953,8.075,8.0369,8.0225,8.0276,8.0209,8.0209,8.0209,8.0209,8.0209,8.0513,8.146,8.2002,8.291,8.3898,8.4418,8.3848,8.2658,8.1944,8.1283,8.0682,8.0234,8.0209,8.0442,8.0426,8.0415,8.0183,8.0088,8.0123,8.019,8.0289,8.0096,7.9789,7.9637,7.955,10.2062,10.2502,10.2536,10.2536,10.2536,10.2536,10.2231,10.1825,10.1792,10.1521,10.1049,10.0743,10.0405,9.9897,9.9356,9.8848,9.8341,9.7631,9.7356,9.7069,9.5679,9.5157,9.4992,9.4349,9.3808,9.3634,9.3601,9.3601,9.3601,9.3601,9.3601,9.3601,9.3601,9.3601,9.3601,9.3601,9.3601,9.3601,9.3601,9.3601,9.3601,9.3601,9.3601,9.3601,9.3601,9.386,9.4157,9.335,9.2283,9.1364,9.1653,9.1751,9.1363,9.1101,9.0974,9.0879,9.0725,9.091,9.159,9.1716,9.2014,9.2778,9.3317,9.3593,9.3612,9.3408,9.3639,9.3531,9.3316,9.2805,9.2518,9.2101,9.0679,8.8459,8.7468,8.6664,8.5673,8.516,8.421,8.3159,8.2662,8.2015,8.1205,8.0819,8.0641,8.0376,8.0209,8.0209,8.0209,8.0209,8.0885,8.1597,8.2293,8.3313,8.4498,8.4788,8.4797,8.3705,8.2582,8.1741,8.0987,8.0437,8.0225,8.1149,8.1427,8.2003,8.1886,8.1884,8.1907,8.2026,8.2058,8.211,8.1922,8.1638,8.1394,10.2633,10.257,10.2732,10.2832,10.2637,10.2637,10.257,10.2468,10.2659,10.2654,10.2454,10.19,10.1592,10.1255,10.0152,9.9411,9.9186,9.8811,9.9112,9.9159,9.7784,9.6436,9.5458,9.4823,9.4214,9.3702,9.3601,9.3689,9.3913,9.3913,9.3772,9.4144,9.4225,9.3947,9.4197,9.3947,9.411,9.4225,9.4087,9.4116,9.4087,9.4,9.4029,9.4058,9.411,9.4584,9.5411,9.54,9.4586,9.3106,9.3338,9.3572,9.3538,9.3925,9.3895,9.3787,9.3321,9.3014,9.305,9.3026,9.3178,9.3524,9.438,9.4891,9.4997,9.5558,9.6057,9.6096,9.6138,9.6052,9.5428,9.5079,9.3773,9.1614,8.9239,8.7831,8.7258,8.7041,8.6194,8.5164,8.4795,8.4172,8.2384,8.2118,8.1545,8.0941,8.0641,8.0517,8.0517,8.0901,8.1718,8.2442,8.3152,8.4427,8.5804,8.62,8.6141,8.5558,8.416,8.2903,8.1919,8.1347,8.1029,8.1898,8.2616,8.3212,8.3479,8.3281,8.3373,8.349,8.3696,8.4057,8.3953,8.3519,8.2845,10.4325,10.3542,10.5096,10.4839,10.3445,10.3314,10.304,10.2729,10.3687,10.4112,10.3905,10.3251,10.3253,10.3448,10.1555,10.0903,10.1158,10.1057,10.1198,10.1478,10.1009,9.8191,9.5612,9.4853,9.4434,9.3849,9.3918,9.4116,9.4964,9.4985,9.5445,9.6476,9.6266,9.6371,9.6502,9.6345,9.6467,9.6441,9.645,9.6397,9.6371,9.6371,9.6467,9.6502,9.6397,9.658,9.6956,9.6946,9.6835,9.6229,9.5748,9.5578,9.5532,9.5339,9.5226,9.5095,9.4421,9.4299,9.4912,9.4637,9.4756,9.559,9.5846,9.6203,9.6203,9.6475,9.6722,9.6722,9.6685,9.6612,9.6318,9.5841,9.455,9.2725,9.0175,8.8389,8.8096,8.7905,8.7515,8.6674,8.6053,8.5192,8.426,8.3464,8.2972,8.2539,8.1956,8.145,8.145,8.1705,8.2509,8.3669,8.4622,8.5962,8.6998,8.7489,8.7582,8.7278,8.6084,8.4584,8.3658,8.289,8.2839,8.3234,8.3628,8.4186,8.4207,8.4115,8.4431,8.4832,8.5306,8.5664,8.5424,8.5009,8.4225,10.6428,10.6064,10.7372,10.7189,10.603,10.5969,10.5524,10.5053,10.5651,10.5841,10.5491,10.5107,10.4919,10.4773,10.3298,10.2581,10.2624,10.2339,10.2517,10.3109,10.3013,10.0914,9.8111,9.7133,9.6511,9.5752,9.5379,9.5662,9.6231,9.6362,9.6793,9.7285,9.7509,9.7509,9.7385,9.7509,9.7534,9.7484,9.7509,9.7509,9.7509,9.7509,9.7484,9.7509,9.7534,9.7647,9.8241,9.8854,9.8738,9.7869,9.7562,9.7706,9.7705,9.7546,9.7412,9.7363,9.6656,9.6611,9.6929,9.6572,9.6458,9.6934,9.6942,9.6722,9.6666,9.6722,9.6722,9.6722,9.6722,9.6722,9.6575,9.5988,9.496,9.3617,9.1575,9.0135,8.9755,8.9786,8.9364,8.8644,8.7868,8.6834,8.5703,8.4829,8.4169,8.3621,8.2972,8.2706,8.2651,8.2941,8.3646,8.5079,8.6024,8.7157,8.8277,8.8842,8.8607,8.8357,8.781,8.6307,8.4949,8.4216,8.4289,8.4391,8.4713,8.5006,8.5104,8.5314,8.5731,8.6229,8.6821,8.6798,8.639,8.5967,8.5233,10.8808,10.9336,10.9572,10.9545,10.9225,10.9308,10.8577,10.8135,10.8221,10.7904,10.7337,10.7088,10.6653,10.5872,10.5088,10.439,10.385,10.3752,10.3961,10.4466,10.451,10.3245,10.1658,10.0048,9.9073,9.8252,9.7874,9.764,9.7693,9.7732,9.7879,9.8265,9.8217,9.8049,9.8384,9.8193,9.794,9.8241,9.8384,9.8408,9.8408,9.8408,9.8456,9.8432,9.8408,9.8808,9.9735,10.0503,10.0375,9.8073,9.9075,9.9559,9.9722,10.0125,10.0249,9.9989,9.9281,9.8943,9.8992,9.818,9.7765,9.7676,9.7089,9.6722,9.6722,9.6722,9.6722,9.6722,9.6722,9.6722,9.6612,9.6061,9.5364,9.4445,9.3545,9.2812,9.217,9.184,9.151,9.0812,8.997,8.8655,8.7278,8.6097,8.5251,8.4927,8.4304,8.4016,8.4131,8.4471,8.5576,8.7111,8.7828,8.8311,8.9328,9.026,8.977,8.932,8.9025,8.7881,8.6007,8.5317,8.5444,8.5582,8.5768,8.6064,8.641,8.6696,8.6856,8.6873,8.6925,8.6997,8.6904,8.6481,8.5857,11.1044,11.0269,11.2026,11.1732,11.0305,11.015,10.9718,10.9146,11.0252,11.0209,10.9489,10.8867,10.8473,10.8031,10.6896,10.6329,10.6571,10.6712,10.7299,10.6715,10.6159,10.5816,10.4536,10.2429,10.025,9.9246,9.8661,9.8691,9.9023,9.918,9.9609,10.0418,10.0253,10.0567,10.0461,10.0274,10.0646,10.0625,10.0524,10.0418,10.0375,10.0396,10.0396,10.0418,10.0439,10.0667,10.0955,10.1336,10.1197,10.0871,10.0793,10.0913,10.0959,10.1112,10.1164,10.1,10.0466,10.0026,9.9805,9.8851,9.7933,9.797,9.7346,9.6722,9.6722,9.6722,9.6722,9.6722,9.6722,9.6722,9.6685,9.6575,9.5988,9.5217,9.4446,9.3639,9.2905,9.217,9.1693,9.14,9.0758,8.9915,8.8838,8.787,8.7031,8.6301,8.5782,8.5369,8.563,8.6045,8.7243,8.8703,8.9345,8.9752,9.0271,9.1001,9.0654,9.0144,8.9862,8.9492,8.763,8.6371,8.6429,8.6556,8.6731,8.6997,8.7014,8.7014,8.6925,8.6997,8.7014,8.7014,8.6941,8.6701,8.6518,11.3367,11.3164,11.4325,11.4092,11.3113,11.299,11.2557,11.2071,11.2606,11.2545,11.1781,11.1003,11.039,10.9834,10.8788,10.8271,10.8118,10.8138,10.7771,10.7015,10.6538,10.6413,10.6233,10.4672,10.2892,10.1679,10.0895,10.0809,10.0892,10.0658,10.0751,10.1417,10.1514,10.1336,10.1514,10.1514,10.1397,10.1376,10.1514,10.1514,10.1514,10.1514,10.1514,10.1514,10.1514,10.1514,10.1494,10.1494,10.1514,10.1514,10.1514,10.1514,10.1514,10.1514,10.1514,10.1404,10.1164,10.0833,10.0523,9.9805,9.9071,9.8961,9.797,9.7419,9.7126,9.6942,9.6722,9.6722,9.6722,9.6722,9.6722,9.6685,9.6318,9.5565,9.4777,9.4006,9.3198,9.2317,9.1803,9.1657,9.1033,9.0244,8.9473,8.8739,8.7897,8.6737,8.7139,8.6883,8.7375,8.7848,8.8704,8.9805,9.0594,9.1107,9.1418,9.1602,9.1473,9.0997,9.0594,9.0262,8.9331,8.8215,8.7385,8.7308,8.7124,8.7014,8.7014,8.7014,8.7014,8.7014,8.7014,8.7014,8.6978,8.6831,8.6775,11.5369,11.5993,11.5993,11.5993,11.5993,11.5887,11.5414,11.4947,11.5002,11.4241,11.3607,11.2836,11.1793,11.0942,11.037,10.9731,10.9129,10.8211,10.7661,10.7183,10.6617,10.6413,10.6254,10.598,10.5543,10.5144,10.3667,10.3002,10.2378,10.2045,10.1535,10.1551,10.1514,10.1514,10.1514,10.1514,10.1514,10.1514,10.1514,10.1514,10.1514,10.1514,10.1514,10.1514,10.1514,10.1514,10.1514,10.1514,10.1514,10.1514,10.1514,10.1514,10.1514,10.1514,10.1514,10.1514,10.1404,10.1367,10.122,10.065,10.0136,10.0246,9.8778,9.797,9.7676,9.7163,9.6795,9.6722,9.6722,9.6722,9.6722,9.6722,9.6392,9.5731,9.4923,9.4042,9.3308,9.2427,9.1877,9.173,9.1326,9.0665,8.973,8.8886,8.8042,8.7509,8.7949,8.8426,8.8904,8.94,9.0026,9.0557,9.1217,9.1455,9.173,9.1803,9.1693,9.1546,9.1143,9.0849,9.0445,8.9344,8.8243,8.7509,8.7252,8.7088,8.7014,8.7014,8.7014,8.7014,8.7014,8.7014,8.7014,8.7014,8.6941,11.5883,11.5993,11.5993,11.5993,11.5993,11.5993,11.5883,11.581,11.5663,11.4929,11.3666,11.3409,11.2124,11.0854,11.0891,11.0854,11.012,10.9055,10.8321,10.7807,10.7,10.6376,10.6376,10.6376,10.6266,10.6009,10.5054,10.4043,10.2999,10.2558,10.2045,10.1661,10.1514,10.1514,10.1514,10.1514,10.1514,10.1514,10.1514,10.1514,10.1514,10.1514,10.1514,10.1514,10.1514,10.1514,10.1514,10.1514,10.1514,10.1514,10.1514,10.1514,10.1514,10.1514,10.1514,10.1514,10.1514,10.1514,10.1404,10.0796,10.0393,9.9952,9.8961,9.8063,9.7787,9.7236,9.6869,9.6722,9.6722,9.6722,9.6722,9.6722,9.6685,9.6171,9.5217,9.4263,9.3822,9.2794,9.184,9.1767,9.1473,9.1106,9.0097,8.9326,8.8812,8.839,8.8536,8.916,8.9821,9.0225,9.0685,9.1198,9.1638,9.173,9.1803,9.1803,9.1767,9.1767,9.1473,9.1253,9.0702,8.9877,8.8996,8.828,8.7509,8.7051,8.7014,8.7014,8.7014,8.7014,8.7014,8.7014,8.7014,8.7014,8.7014,11.5993,11.5993,11.5993,11.5993,11.5993,11.5993,11.5736,11.5406,11.5332,11.4708,11.3776,11.3152,11.2396,11.1441,11.1111,11.0817,10.99,10.9276,10.8358,10.7551,10.6743,10.6376,10.6376,10.6376,10.6376,10.6266,10.5862,10.4908,10.3403,10.2852,10.2301,10.1698,10.1514,10.1514,10.1514,10.1514,10.1514,10.1514,10.1514,10.1514,10.1514,10.1514,10.1514,10.1514,10.1514,10.1514,10.1514,10.1514,10.1514,10.1514,10.1514,10.1514,10.1514,10.1514,10.1514,10.1514,10.1514,10.1514,10.1514,10.109,10.098,10.0853,9.9769,9.8961,9.8447,9.786,9.7126,9.6795,9.6722,9.6722,9.6722,9.6722,9.6722,9.6428,9.5254,9.4446,9.3932,9.2721,9.2134,9.184,9.173,9.1289,9.0519,8.9877,8.9564,8.9381,8.9271,8.9821,9.0592,9.0959,9.1289,9.1473,9.1803,9.1803,9.1803,9.1803,9.1803,9.1803,9.1767,9.151,9.1069,9.0244,8.9583,8.8959,8.8189,8.7234,8.7014,8.7014,8.7014,8.7014,8.7014,8.7014,8.7014,8.7014,8.7014,11.5993,11.5993,11.5993,11.5993,11.5956,11.581,11.5406,11.4855,11.4635,11.4084,11.3313,11.2689,11.2322,11.1992,11.1368,11.045,10.9055,10.8945,10.8064,10.7058,10.6544,10.6376,10.6376,10.6376,10.6376,10.6376,10.6302,10.5605,10.4284,10.3403,10.2558,10.1971,10.1698,10.1514,10.1514,10.1514,10.1514,10.1514,10.1514,10.1514,10.1514,10.1514,10.1514,10.1514,10.1514,10.1514,10.1514,10.1514,10.1514,10.1514,10.1514,10.1514,10.1514,10.1514,10.1514,10.1514,10.1514,10.1514,10.1514,10.1514,10.1404,10.133,10.0686,9.9916,9.8998,9.808,9.7309,9.6869,9.6722,9.6722,9.6722,9.6722,9.6722,9.6392,9.5364,9.4189,9.3859,9.3051,9.2244,9.2024,9.1987,9.1693,9.1143,9.0812,9.0555,9.0298,9.0188,9.0335,9.1033,9.1363,9.162,9.1693,9.1803,9.1803,9.1803,9.1803,9.1803,9.1803,9.1803,9.1657,9.1216,9.0611,9.0024,8.9363,8.8353,8.7509,8.7234,8.7014,8.7014,8.7014,8.7014,8.7014,8.7014,8.7014,8.7014,11.5993,11.5993,11.5993,11.5993,11.5883,11.5296,11.4929,11.4708,11.4011,11.3277,11.2543,11.2396,11.1955,11.1515,11.1331,11.0671,10.979,10.9055,10.8211,10.7205,10.6654,10.6376,10.6376,10.6376,10.6376,10.6339,10.6302,10.5862,10.4871,10.4027,10.3293,10.2522,10.1788,10.1514,10.1514,10.1514,10.1514,10.1514,10.1514,10.1514,10.1514,10.1514,10.1514,10.1514,10.1514,10.1514,10.1514,10.1514,10.1514,10.1514,10.1514,10.1514,10.1514,10.1514,10.1514,10.1514,10.1514,10.1514,10.1514,10.1514,10.1514,10.1404,10.0833,9.9952,9.9035,9.7823,9.6906,9.6795,9.6722,9.6722,9.6722,9.6722,9.6722,9.6171,9.529,9.4556,9.4116,9.3272,9.2464,9.2868,9.3051,9.2648,9.2097,9.184,9.1583,9.1326,9.1143,9.1253,9.1363,9.1657,9.1803,9.1803,9.1803,9.1803,9.1803,9.1803,9.1803,9.1803,9.1803,9.1767,9.14,9.0922,9.028,8.951,8.8536,8.7766,8.7472,8.7252,8.7088,8.7014,8.7014,8.7014,8.7014,8.7014,8.7014,11.5149,11.5993,11.5993,11.5993,11.5883,11.5149,11.4525,11.4011,11.3277,11.2469,11.1808,11.1698,11.1515,11.1258,11.1221,11.0487,10.9496,10.8945,10.8064,10.7147,10.6596,10.6376,10.6376,10.6376,10.6376,10.6266,10.5899,10.5532,10.4908,10.4284,10.3476,10.2705,10.1934,10.1514,10.1514,10.1514,10.1514,10.1514,10.1514,10.1514,10.1514,10.1514,10.1514,10.1514,10.1514,10.1514,10.1514,10.1514,10.1514,10.1514,10.1514,10.1514,10.1514,10.1514,10.1514,10.1514,10.1514,10.1514,10.1514,10.1514,10.1514,10.1477,10.1053,10.0466,9.9181,9.7713,9.6722,9.6722,9.6722,9.6722,9.6722,9.6722,9.6722,9.6282,9.5327,9.507,9.4483,9.3418,9.2868,9.3529,9.4079,9.3786,9.3345,9.2831,9.2574,9.2317,9.184,9.151,9.1583,9.1693,9.1803,9.1803,9.1803,9.1803,9.1803,9.1803,9.1803,9.1803,9.1803,9.173,9.162,9.1143,9.0537,8.984,8.894,8.828,8.7766,8.7325,8.7051,8.7014,8.7014,8.7014,8.7014,8.7014,8.7014,11.4892,11.5956,11.5553,11.5626,11.5883,11.4929,11.4158,11.3556,11.2763,11.1955,11.1368,11.1258,11.1258,11.1221,11.1111,11.0487,10.9166,10.8872,10.7954,10.7037,10.6486,10.6376,10.6376,10.6376,10.6376,10.6376,10.5568,10.5217,10.4813,10.41,10.3219,10.2705,10.1898,10.1551,10.1514,10.1514,10.1514,10.1514,10.1514,10.1514,10.1514,10.1514,10.1514,10.1514,10.1514,10.1514,10.1514,10.1514,10.1514,10.1514,10.1514,10.1514,10.1514,10.1514,10.1514,10.1514,10.1514,10.1514,10.1514,10.1514,10.1514,10.1404,10.0907,10.0099,9.9218,9.7676,9.6722,9.6722,9.6722,9.6722,9.6722,9.6722,9.6722,9.6282,9.5547,9.5437,9.5125,9.4116,9.3675,9.4336,9.4923,9.5364,9.4813,9.3969,9.3529,9.3272,9.2721,9.195,9.1803,9.1803,9.1803,9.1803,9.1803,9.1803,9.1803,9.1803,9.1803,9.1803,9.1803,9.1767,9.1657,9.14,9.0959,9.0188,8.9417,8.9014,8.8647,8.7785,8.7014,8.7014,8.7014,8.7014,8.7014,8.7014,8.7014,11.5883,11.5846,11.4341,11.4635,11.5846,11.4364,11.3666,11.3446,11.2689,11.1919,11.1258,11.1221,11.1221,11.1221,11.1111,11.0671,10.9811,10.9129,10.8175,10.7388,10.6838,10.6544,10.6544,10.6581,10.6486,10.6413,10.5642,10.5144,10.4667,10.3476,10.2925,10.2595,10.1898,10.1624,10.1514,10.1514,10.1514,10.1514,10.1514,10.1514,10.1514,10.1514,10.1514,10.1514,10.1514,10.1514,10.1514,10.1514,10.1514,10.1514,10.1514,10.1514,10.1514,10.1514,10.1514,10.1514,10.1514,10.1514,10.1514,10.1514,10.1514,10.109,10.0356,9.9512,9.9071,9.764,9.6832,9.6722,9.6722,9.6722,9.6722,9.6722,9.6722,9.6575,9.6098,9.5841,9.5511,9.4887,9.4593,9.5217,9.5658,9.5988,9.5658,9.4666,9.4042,9.3749,9.2574,9.1803,9.1803,9.1803,9.1803,9.1803,9.1803,9.1803,9.1803,9.1803,9.1803,9.1803,9.1803,9.1803,9.1767,9.1473,9.1253,9.0849,9.0225,8.9877,8.94,8.8519,8.7711,8.7234,8.7014,8.7014,8.7014,8.7014,8.7014,11.335,11.3644,11.2579,11.3313,11.5185,11.4048,11.3336,11.2763,11.2029,11.1552,11.1221,11.1221,11.1221,11.1221,11.1111,11.045,10.9349,10.9019,10.8064,10.7168,10.6544,10.6691,10.6911,10.7131,10.7367,10.7257,10.6156,10.5458,10.5642,10.3439,10.2632,10.2265,10.1934,10.1624,10.1514,10.1514,10.1514,10.1514,10.1514,10.1514,10.1514,10.1514,10.1514,10.1514,10.1514,10.1514,10.1514,10.1514,10.1514,10.1514,10.1514,10.1514,10.1514,10.1514,10.1514,10.1514,10.1514,10.1514,10.1514,10.1514,10.1514,10.1184,10.0136,9.9088,9.8978,9.7603,9.6869,9.6722,9.6722,9.6722,9.6722,9.6722,9.6795,9.6906,9.6759,9.6392,9.6025,9.553,9.5346,9.5878,9.6135,9.6428,9.5878,9.518,9.4666,9.4116,9.2831,9.1803,9.1803,9.1803,9.1803,9.1803,9.1803,9.1803,9.1803,9.1803,9.1803,9.1803,9.1803,9.1803,9.1803,9.1767,9.1546,9.1216,9.0959,9.0519,8.9913,8.9143,8.8445,8.7785,8.7308,8.7014,8.7014,8.7014,8.7014,11.2249,11.2689,11.2139,11.2873,11.4231,11.357,11.291,11.2359,11.1845,11.1405,11.1221,11.1221,11.1221,11.1221,11.1184,11.0781,10.9826,10.9276,10.8358,10.7587,10.7131,10.7021,10.7205,10.7425,10.7514,10.7661,10.6743,10.5825,10.5678,10.3366,10.2925,10.2815,10.2301,10.1918,10.1514,10.1514,10.1514,10.1514,10.1514,10.1514,10.1514,10.1514,10.1514,10.1514,10.1514,10.1514,10.1514,10.1514,10.1514,10.1514,10.1514,10.1514,10.1514,10.1514,10.1514,10.1514,10.1514,10.1514,10.1514,10.1514,10.1514,10.133,10.0026,9.9292,9.8721,9.7676,9.6795,9.6722,9.6722,9.6722,9.6759,9.6942,9.7236,9.7456,9.7199,9.6869,9.6906,9.6575,9.6428,9.6465,9.6612,9.6612,9.6025,9.5254,9.4079,9.3529,9.2574,9.1803,9.1803,9.1803,9.1803,9.1803,9.1803,9.1803,9.1803,9.1803,9.1803,9.1803,9.1803,9.1803,9.1803,9.1803,9.1803,9.1583,9.1289,9.1033,9.0592,9.0041,8.9197,8.8316,8.7711,8.7088,8.7014,8.7014,8.7014,11.3446,11.3593,11.3409,11.3446,11.3483,11.2763,11.2432,11.2286,11.2176,11.1808,11.1258,11.1221,11.1221,11.1221,11.1221,11.0928,11.056,11.0047,10.9312,10.8431,10.7792,10.7241,10.7278,10.7535,10.8086,10.678,10.6376,10.6082,10.5584,10.41,10.377,10.3623,10.3072,10.2265,10.1587,10.1514,10.1514,10.1514,10.1514,10.1624,10.1514,10.1514,10.1514,10.1514,10.1514,10.1514,10.1514,10.1514,10.1514,10.1514,10.1514,10.1514,10.1514,10.1514,10.1514,10.1514,10.1514,10.1514,10.1514,10.1514,10.1514,10.1294,10.0026,9.9162,9.8758,9.7787,9.6722,9.6722,9.6722,9.6759,9.6979,9.7346,9.7676,9.8043,9.7823,9.753,9.7566,9.7089,9.6795,9.6649,9.6649,9.6575,9.6061,9.5254,9.3639,9.2684,9.206,9.1803,9.1803,9.1803,9.1803,9.1803,9.1803,9.1803,9.1803,9.1803,9.1803,9.1803,9.1803,9.1803,9.1803,9.1803,9.1803,9.1803,9.1657,9.14,9.1253,9.1033,9.0041,8.9014,8.7822,8.7198,8.7088,8.7014,8.7014,11.1992,11.1992,11.1992,11.1992,11.2065,11.2322,11.2139,11.1662,11.1588,11.1441,11.1258,11.1221,11.1221,11.1221,11.1148,11.0964,11.045,11.0267,10.9569,10.8835,10.8468,10.8725,10.871,10.8762,10.9129,10.9019,10.8358,10.7404,10.7661,10.5385,10.4504,10.4357,10.3733,10.2779,10.2028,10.1824,10.2118,10.1734,10.1898,10.2081,10.1587,10.1514,10.1514,10.1514,10.1514,10.1514,10.1587,10.1624,10.1624,10.1624,10.1624,10.1587,10.1551,10.1514,10.1514,10.1551,10.1551,10.1514,10.1514,10.1514,10.1514,10.098,10.0099,9.9125,9.8905,9.7603,9.6942,9.6759,9.6795,9.6979,9.7456,9.7696,9.8136,9.9035,9.8961,9.8447,9.8117,9.7236,9.6685,9.6685,9.6685,9.5988,9.5401,9.507,9.3786,9.2794,9.2244,9.1877,9.1803,9.1803,9.1803,9.1803,9.1803,9.1803,9.1803,9.1803,9.1803,9.1803,9.1803,9.1803,9.1803,9.1803,9.1803,9.1803,9.1803,9.1767,9.1546,9.1253,9.0665,8.9693,8.8666,8.7711,8.7418,8.7234,8.7014,11.1221,11.1221,11.1221,11.1221,11.1295,11.1772,11.1662,11.1258,11.1221,11.1221,11.1221,11.1221,11.1221,11.1221,11.1148,11.1038,11.0414,11.0414,10.9973,10.9312,10.9202,10.9239,10.9459,10.99,10.9679,10.9936,10.9129,10.8175,10.7991,10.5899,10.5054,10.4834,10.432,10.3182,10.2448,10.2338,10.2265,10.1844,10.1824,10.1898,10.1624,10.1514,10.1514,10.1514,10.1551,10.1624,10.1824,10.1898,10.1898,10.1898,10.1898,10.1771,10.1661,10.1551,10.1661,10.1788,10.2228,10.2175,10.2045,10.1587,10.142,10.0907,9.9769,9.9071,9.8594,9.7419,9.7163,9.7016,9.7089,9.7566,9.808,9.8227,9.8851,9.9769,9.9365,9.8814,9.8154,9.7236,9.6722,9.6722,9.6612,9.5731,9.5072,9.452,9.3951,9.3198,9.2501,9.228,9.2059,9.2005,9.2005,9.195,9.1913,9.1913,9.1877,9.1803,9.1803,9.1803,9.1803,9.1803,9.1803,9.1803,9.1803,9.1803,9.1803,9.1767,9.1693,9.1363,9.0959,9.0482,8.9784,8.8849,8.7968,8.7638,8.7455,11.1221,11.1221,11.1221,11.1221,11.1221,11.1295,11.1236,11.1221,11.1221,11.1221,11.1221,11.1221,11.1221,11.1221,11.1221,11.1148,11.1111,11.1111,11.0634,11.0193,11.0047,10.9716,10.9606,10.9863,10.9936,10.9312,10.8652,10.8211,10.7645,10.6507,10.5715,10.5351,10.4795,10.4034,10.3483,10.312,10.263,10.1951,10.1824,10.1788,10.1587,10.1514,10.1514,10.1551,10.1641,10.2008,10.2338,10.2632,10.2705,10.2742,10.2742,10.2301,10.1918,10.1628,10.2142,10.2814,10.369,10.3332,10.2964,10.2362,10.1347,10.0853,9.9946,9.8929,9.8227,9.7713,9.764,9.7787,9.7933,9.8411,9.8814,9.9255,9.9695,9.9622,9.9218,9.8631,9.797,9.7365,9.6869,9.6722,9.6722,9.6248,9.5866,9.5295,9.4904,9.4552,9.4027,9.3678,9.3373,9.2629,9.2537,9.2207,9.217,9.206,9.206,9.2134,9.1877,9.1913,9.1803,9.1803,9.1803,9.1803,9.1803,9.1803,9.1803,9.1767,9.173,9.162,9.1436,9.0959,9.0555,8.9803,8.8886,8.8556,8.8335,11.1221,11.1221,11.1221,11.1221,11.1221,11.1221,11.1221,11.1221,11.1221,11.1221,11.1221,11.1221,11.1221,11.1221,11.1221,11.1221,11.1221,11.1184,11.1074,11.0891,11.0707,11.0634,11.0597,11.056,11.0304,10.9665,10.9062,10.8434,10.7636,10.6827,10.6851,10.6727,10.5913,10.547,10.5121,10.4741,10.3371,10.2361,10.2348,10.207,10.1827,10.1793,10.1773,10.1903,10.2402,10.2807,10.3081,10.3557,10.3684,10.3676,10.3631,10.337,10.3313,10.3789,10.4523,10.5214,10.5164,10.4653,10.428,10.3166,10.2002,10.1377,10.087,10.0016,9.9179,9.862,9.8568,9.8887,9.8977,9.9345,9.9736,10.016,10.0199,9.9813,9.935,9.874,9.8133,9.7654,9.7193,9.7359,9.7341,9.7504,9.709,9.6523,9.619,9.5963,9.567,9.5262,9.4691,9.3931,9.336,9.3049,9.2868,9.2905,9.2794,9.2831,9.2354,9.2024,9.1987,9.1913,9.1803,9.1803,9.1803,9.1803,9.1803,9.1803,9.1767,9.1693,9.1583,9.1657,9.1289,9.0537,8.9877,8.9473,8.8959,11.1515,11.1221,11.1221,11.1221,11.1221,11.1221,11.1221,11.1221,11.1221,11.1221,11.1221,11.1221,11.1221,11.1221,11.1221,11.1221,11.1221,11.1221,11.1148,11.1148,11.1287,11.1111,11.1148,11.092,11.0377,10.9825,10.9282,10.8597,10.7982,10.777,10.7738,10.7929,10.7325,10.7011,10.665,10.5956,10.5051,10.4023,10.337,10.2963,10.276,10.276,10.2944,10.3057,10.3669,10.417,10.4542,10.5117,10.5303,10.5396,10.5415,10.5229,10.521,10.5729,10.6226,10.6795,10.6965,10.6253,10.5589,10.4455,10.3239,10.2346,10.2007,10.1502,10.0726,10.0069,10.025,10.0487,10.0295,10.0297,10.0667,10.0907,10.0515,10.0158,9.9552,9.8927,9.8421,9.7964,9.7978,9.8181,9.8467,9.8781,9.8535,9.7969,9.7689,9.7827,9.7454,9.6764,9.6087,9.5222,9.4653,9.4276,9.4042,9.3896,9.3786,9.3529,9.3051,9.2684,9.2537,9.2391,9.2024,9.1803,9.1803,9.1803,9.1803,9.1803,9.1803,9.1803,9.1767,9.1803,9.1803,9.1289,9.0629,9.017,8.9583,11.1955,11.1331,11.1221,11.1221,11.1221,11.1221,11.1251,11.1316,11.1388,11.1272,11.1207,11.1221,11.1221,11.1221,11.1221,11.1221,11.1221,11.1221,11.1221,11.1251,11.1481,11.1466,11.1061,11.0607,11.0582,10.9973,10.9416,10.9007,10.8853,10.8611,10.8518,10.8918,10.8172,10.7895,10.7957,10.7265,10.6566,10.6274,10.537,10.4728,10.4519,10.4801,10.5339,10.5328,10.5938,10.667,10.7251,10.7654,10.7792,10.7761,10.7638,10.7241,10.7355,10.7462,10.7857,10.8153,10.8531,10.8052,10.706,10.5865,10.4644,10.3652,10.2931,10.2938,10.2423,10.1675,10.1771,10.202,10.1936,10.179,10.2024,10.1716,10.1301,10.0599,9.9876,9.9282,9.8739,9.8705,9.9189,9.9415,9.979,10.0179,10.0879,10.0383,9.9816,9.9892,9.9639,9.88,9.7856,9.6975,9.6263,9.5753,9.5549,9.5292,9.4797,9.4484,9.3841,9.3492,9.3161,9.2537,9.1987,9.184,9.1803,9.1803,9.1803,9.1803,9.1803,9.1803,9.1803,9.1803,9.1803,9.1803,9.14,9.0812,9.0298,11.2286,11.2065,11.1441,11.1221,11.1221,11.1221,11.1615,11.2169,11.2189,11.1835,11.1316,11.1251,11.1294,11.1432,11.1453,11.1453,11.1388,11.161,11.1251,11.1557,11.1881,11.1872,11.1511,11.1412,11.1055,11.0345,10.9784,10.9467,10.9249,10.9154,10.9281,10.9709,10.9146,10.8952,10.939,10.87,10.8331,10.8282,10.7887,10.693,10.6327,10.6088,10.6223,10.6511,10.7085,10.7631,10.8129,10.843,10.8541,10.8629,10.8629,10.8826,10.9305,10.9461,10.9911,11.0359,11.0062,10.953,10.8678,10.7298,10.5995,10.5471,10.497,10.4712,10.4298,10.3535,10.3238,10.3497,10.3527,10.3354,10.3082,10.2584,10.1995,10.1099,10.0247,9.9657,9.9169,9.983,10.0424,10.085,10.1225,10.1898,10.2737,10.2701,10.2169,10.1939,10.1885,10.1307,10.0279,9.9338,9.8262,9.7705,9.7258,9.6903,9.6181,9.5475,9.4908,9.4043,9.3529,9.2794,9.2042,9.2024,9.2097,9.1877,9.1803,9.1803,9.1803,9.1803,9.1803,9.1803,9.1803,9.1803,9.162,9.1106,9.0739,11.3294,11.294,11.2543,11.2407,11.2407,11.2407,11.2681,11.3073,11.3128,11.2833,11.2466,11.2407,11.2388,11.2388,11.2407,11.2289,11.2309,11.2447,11.2565,11.2681,11.2421,11.2531,11.24,11.1939,11.1286,11.0591,11.025,10.995,10.9913,11.0109,11.0436,11.0612,11.0213,11.0191,11.0675,11.0252,10.9983,11.0066,10.9983,10.9389,10.8453,10.8314,10.8177,10.8368,10.8811,10.9203,10.9497,10.9826,10.9954,11.0069,11.0111,11.0242,11.0573,11.0661,11.0943,11.1147,11.0966,11.0596,10.9811,10.8666,10.7281,10.6806,10.6185,10.5621,10.5606,10.499,10.4964,10.5104,10.4581,10.4374,10.3857,10.3375,10.2652,10.1788,10.0913,10.0214,10.0785,10.1776,10.2459,10.3159,10.3517,10.3835,10.4381,10.4239,10.3665,10.2872,10.2998,10.2211,10.1485,10.098,10.0104,9.9429,9.8862,9.806,9.7177,9.6552,9.6046,9.511,9.4172,9.3492,9.2996,9.2592,9.2354,9.2096,9.1875,9.1803,9.1803,9.1803,9.1803,9.1803,9.1803,9.1803,9.1583,9.1436,9.1216,11.4692,11.3953,11.3968,11.397,11.3873,11.3857,11.3923,11.4038,11.4054,11.4173,11.4215,11.4253,11.4189,11.3944,11.3911,11.3911,11.3739,11.3432,11.3658,11.3571,11.3303,11.312,11.2613,11.1938,11.1583,11.1144,11.0744,11.097,11.1162,11.1185,11.1185,11.1478,11.1511,11.1472,11.1511,11.1472,11.1242,11.1165,11.1126,11.1318,11.1094,11.0829,11.0337,11.0561,11.106,11.1472,11.1462,11.1462,11.1451,11.1396,11.1208,11.1219,11.128,11.1302,11.1336,11.1429,11.1418,11.0902,11.0183,10.9233,10.835,10.7678,10.6905,10.6423,10.6364,10.6305,10.6284,10.6046,10.5503,10.4972,10.4465,10.3706,10.2982,10.2494,10.1586,10.1109,10.2304,10.3401,10.419,10.499,10.5239,10.5525,10.5508,10.5413,10.4846,10.4059,10.3212,10.2327,10.1606,10.1325,10.0774,10.0343,9.9971,9.9145,9.833,9.7682,9.7184,9.6525,9.5642,9.4749,9.3967,9.3498,9.2927,9.2237,9.2036,9.1893,9.1822,9.1803,9.1803,9.1803,9.1803,9.1803,9.1767,9.1657,9.1693,11.6171,11.4859,11.4858,11.4527,11.3999,11.3923,11.4279,11.4916,11.4974,11.5321,11.5741,11.5842,11.5348,11.3907,11.3911,11.4005,11.4332,11.4183,11.3973,11.3814,11.4116,11.376,11.3255,11.275,11.2369,11.1763,11.1226,11.1407,11.1511,11.1511,11.1511,11.1511,11.1511,11.1511,11.1511,11.1511,11.1511,11.1511,11.1511,11.1511,11.1511,11.128,11.1318,11.1357,11.1406,11.1511,11.1511,11.1511,11.1511,11.1511,11.1511,11.1511,11.1511,11.1511,11.1511,11.1511,11.1511,11.1021,11.0252,10.9406,10.8559,10.7752,10.6982,10.6395,10.6385,10.6385,10.6297,10.622,10.5717,10.5153,10.4523,10.3409,10.2594,10.2671,10.2163,10.2652,10.3478,10.4259,10.4962,10.5433,10.5731,10.5913,10.6105,10.5818,10.5279,10.452,10.3789,10.2866,10.1548,10.1394,10.1279,10.1052,10.0836,10.0528,9.9847,9.8917,9.8343,9.7749,9.7092,9.6255,9.5357,9.4382,9.3742,9.3169,9.239,9.1965,9.1875,9.1965,9.1803,9.1803,9.1803,9.1803,9.1822,9.1821,9.1875]}]]